[[{"header":{"parameterUnit":"m.s-1","parameterCategory":1,"la1":31.0,"la2":29.5877,"lo1":-88.7671,"lo2":-86.6584,"dx":0.0162,"dy":0.0185,"nx":115,"ny":88,"refTime":"2023-01-30T06:00:00:Z","depth":0,"parameterNumber":2,"parameterNumberName":"U-component_of_WINDS"},"data":[0.0,0.0,0.0,0.0,0.0,0.0,0.0,0.0,0.0,0.0,0.0,0.0,0.0,0.0,0.0,0.0,0.0,0.0,0.0,0.0,0.0,0.0,0.0,0.0,0.0,0.0,0.0,0.0,0.0,0.0,0.0,0.0,0.0,0.0,0.0,0.0,0.0,0.0,0.0,0.0,0.0,0.0,0.0,0.0,0.0,0.0,0.0,0.0,0.0,0.0,0.0,0.0,0.0,0.0,0.0,0.0,0.0,0.0,0.0,0.0,0.0,0.0,0.0,0.0,0.0,0.0,0.0,0.0,0.0,0.0,0.0,0.0,0.0,0.0,0.0,0.0,0.0,0.0,0.0,0.0,0.0,0.0,0.0,0.0,0.0,0.0,0.0,0.0,0.0,0.0,0.0,0.0,0.0,0.0,0.0,0.0,0.0,0.0,0.0,0.0,0.0,0.0,0.0,0.0,0.0,0.0,0.0,0.0,0.0,0.0,0.0,0.0,0.0,0.0,0.0,0.0,0.0,0.0,0.0,0.0,0.0,0.0,0.0,0.0,0.0,0.0,0.0,0.0,0.0,0.0,0.0,0.0,0.0,0.0,0.0,0.0,0.0,0.0,0.0,0.0,0.0,0.0,0.0,0.0,0.0,0.0,0.0,0.0,0.0,0.0,0.0,0.0,0.0,0.0,0.0,0.0,0.0,0.0,0.0,0.0,0.0,0.0,0.0,0.0,0.0,0.0,0.0,0.0,0.0,0.0,0.0,0.0,0.0,0.0,0.0,0.0,0.0,0.0,0.0,0.0,0.0,0.0,0.0,0.0,0.0,0.0,0.0,0.0,0.0,0.0,0.0,0.0,0.0,0.0,0.0,0.0,0.0,0.0,0.0,0.0,0.0,0.0,0.0,0.0,0.0,0.0,0.0,0.0,0.0,0.0,0.0,0.0,0.0,0.0,0.0,0.0,0.0,0.0,0.0,0.0,0.0,0.0,0.0,0.0,0.0,0.0,0.0,0.0,0.0,0.0,0.0,0.0,0.0,0.0,0.0,0.0,0.0,0.0,0.0,0.0,0.0,0.0,0.0,0.0,0.0,0.0,0.0,0.0,0.0,0.0,0.0,0.0,0.0,0.0,0.0,0.0,0.0,0.0,0.0,0.0,0.0,0.0,0.0,0.0,0.0,0.0,0.0,0.0,0.0,0.0,0.0,0.0,0.0,0.0,0.0,0.0,0.0,0.0,0.0,0.0,0.0,0.0,0.0,0.0,0.0,0.0,0.0,0.0,0.0,0.0,0.0,0.0,0.0,0.0,0.0,0.0,0.0,0.0,0.0,0.0,0.0,0.0,0.0,0.0,0.0,0.0,0.0,0.0,0.0,0.0,0.0,0.0,0.0,0.0,0.0,0.0,0.0,0.0,0.0,0.0,0.0,0.0,0.0,0.0,0.0,0.0,0.0,0.0,0.0,0.0,0.0,0.0,0.0,0.0,0.0,0.0,0.0,0.0,0.0,0.0,0.0,0.0,0.0,0.0,0.0,0.0,0.0,0.0,0.0,0.0,0.0,0.0,0.0,0.0,0.0,0.0,0.0,0.0,0.0,0.0,0.0,0.0,0.0,0.0,0.0,0.0,0.0,0.0,0.0,0.0,0.0,0.0,0.0,0.0,0.0,0.0,0.0,0.0,0.0,0.0,0.0,0.0,0.0,0.0,0.0,0.0,0.0,0.0,0.0,0.0,0.0,0.0,0.0,0.0,0.0,0.0,0.0,0.0,0.0,0.0,0.0,0.0,0.0,0.0,0.0,0.0,0.0,0.0,0.0,0.0,0.0,0.0,0.0,0.0,0.0,0.0,0.0,0.0,0.0,0.0,0.0,0.0,0.0,0.0,0.0,0.0,0.0,0.0,0.0,0.0,0.0,0.0,0.0,0.0,0.0,0.0,0.0,0.0,0.0,0.0,0.0,0.0,0.0,0.0,0.0,0.0,0.0,0.0,0.0,0.0,0.0,0.0,0.0,0.0,0.0,0.0,0.0,0.0,0.0,0.0,0.0,0.0,0.0,0.0,0.0,0.0,0.0,0.0,0.0,0.0,0.0,0.0,0.0,0.0,0.0,0.0,0.0,0.0,0.0,0.0,0.0,0.0,0.0,0.0,0.0,0.0,0.0,0.0,0.0,0.0,0.0,0.0,0.0,0.0,0.0,0.0,0.0,0.0,0.0,0.0,0.0,0.0,0.0,0.0,0.0,0.0,0.0,0.0,0.0,0.0,0.0,0.0,0.0,0.0,0.0,0.0,0.0,0.0,0.0,0.0,0.0,0.0,0.0,0.0,0.0,0.0,0.0,0.0,0.0,0.0,0.0,0.0,0.0,0.0,0.0,0.0,0.0,0.0,0.0,0.0,0.0,0.0,0.0,0.0,0.0,0.0,0.0,0.0,0.0,0.0,0.0,0.0,0.0,0.0,0.0,0.0,0.0,0.0,0.0,0.0,0.0,0.0,0.0,0.0,0.0,0.0,0.0,0.0,0.0,0.0,0.0,0.0,0.0,0.0,0.0,0.0,0.0,0.0,0.0,0.0,0.0,0.0,0.0,0.0,0.0,0.0,0.0,0.0,0.0,0.0,0.0,0.0,0.0,0.0,0.0,0.0,0.0,0.0,0.0,0.0,0.0,0.0,0.0,0.0,0.0,0.0,0.0,0.0,0.0,0.0,0.0,0.0,0.0,0.0,0.0,0.0,0.0,0.0,0.0,0.0,0.0,0.0,0.0,0.0,0.0,0.0,0.0,0.0,0.0,0.0,0.0,0.0,0.0,0.0,0.0,0.0,0.0,0.0,0.0,0.0,0.0,0.0,0.0,0.0,0.0,0.0,0.0,0.0,0.0,0.0,0.0,0.0,0.0,0.0,0.0,0.0,0.0,0.0,0.0,0.0,0.0,0.0,0.0,0.0,0.0,0.0,0.0,0.0,0.0,0.0,0.0,0.0,0.0,0.0,0.0,0.0,0.0,0.0,0.0,0.0,0.0,0.0,0.0,0.0,0.0,0.0,0.0,0.0,0.0,0.0,0.0,0.0,0.0,0.0,0.0,0.0,0.0,0.0,0.0,0.0,0.0,0.0,0.0,0.0,0.0,0.0,0.0,0.0,0.0,0.0,0.0,0.0,0.0,0.0,0.0,0.0,0.0,0.0,0.0,0.0,0.0,0.0,0.0,0.0,0.0,0.0,0.0,0.0,0.0,0.0,0.0,0.0,0.0,0.0,0.0,0.0,0.0,0.0,0.0,0.0,0.0,0.0,0.0,0.0,0.0,0.0,0.0,0.0,0.0,0.0,0.0,0.0,0.0,0.0,0.0,0.0,0.0,0.0,0.0,0.0,0.0,0.0,0.0,0.0,0.0,0.0,0.0,0.0,0.0,0.0,0.0,0.0,0.0,0.0,0.0,0.0,0.0,0.0,0.0,0.0,0.0,0.0,0.0,0.0,0.0,0.0,0.0,0.0,0.0,0.0,0.0,0.0,0.0,0.0,0.0,0.0,0.0,0.0,0.0,0.0,0.0,0.0,0.0,0.0,0.0,0.0,0.0,0.0,0.0,0.0,0.0,0.0,0.0,0.0,0.0,0.0,0.0,0.0,0.0,0.0,0.0,0.0,0.0,0.0,0.0,0.0,0.0,0.0,0.0,0.0,0.0,0.0,0.0,0.0,0.0,0.0,0.0,0.0,0.0,0.0,0.0,0.0,0.0,0.0,0.0,0.0,0.0,0.0,0.0,0.0,0.0,0.0,0.0,0.0,0.0,0.0,0.0,0.0,0.0,0.0,0.0,0.0,0.0,0.0,0.0,0.0,0.0,0.0,0.0,0.0,0.0,0.0,0.0,0.0,0.0,0.0,0.0,0.0,0.0,0.0,0.0,0.0,0.0,0.0,0.0,0.0,0.0,0.0,0.0,0.0,0.0,0.0,0.0,0.0,0.0,0.0,0.0,0.0,0.0,0.0,0.0,0.0,0.0,0.0,0.0,0.0,0.0,0.0,0.0,0.0,0.0,0.0,0.0,0.0,0.0,0.0,0.0,0.0,0.0,0.0,0.0,0.0,0.0,0.0,0.0,0.0,0.0,0.0,0.0,0.0,0.0,0.0,0.0,0.0,0.0,0.0,0.0,0.0,0.0,0.0,0.0,0.0,0.0,0.0,0.0,0.0,0.0,0.0,0.0,0.0,0.0,0.0,0.0,0.0,0.0,0.0,0.0,0.0,0.0,0.0,0.0,0.0,0.0,0.0,0.0,0.0,2.3144,0.0,0.0,0.0,0.0,0.0,0.0,0.0,0.0,0.0,0.0,0.0,0.0,0.0,0.0,0.0,0.0,0.0,0.0,0.0,0.0,0.0,0.0,0.0,0.0,0.0,0.0,0.0,0.0,0.0,0.0,0.0,0.0,0.0,0.0,0.0,0.0,0.0,0.0,0.0,0.0,0.0,0.0,0.0,0.0,0.0,0.0,0.0,0.0,0.0,0.0,0.0,0.0,0.0,0.0,0.0,0.0,0.0,0.0,0.0,0.0,0.0,0.0,0.0,0.0,0.0,0.0,0.0,0.0,0.0,0.0,0.0,0.0,0.0,0.0,0.0,0.0,0.0,0.0,0.0,0.0,0.0,0.0,0.0,0.0,0.0,0.0,0.0,0.0,0.0,0.0,0.0,0.0,0.0,0.0,0.0,0.0,0.0,0.0,0.0,0.0,0.0,0.0,0.0,0.0,0.0,0.0,0.0,0.0,0.0,0.0,2.1737,2.2216,2.1425,2.1516,2.2591,0.0,0.0,0.0,0.0,0.0,0.0,0.0,0.0,0.0,0.0,0.0,0.0,0.0,0.0,0.0,0.0,0.0,0.0,0.0,0.0,0.0,0.0,0.0,0.0,0.0,0.0,0.0,0.0,0.0,0.0,0.0,0.0,0.0,0.0,0.0,0.0,0.0,0.0,0.0,0.0,0.0,0.0,0.0,0.0,0.0,0.0,0.0,0.0,0.0,0.0,0.0,0.0,0.0,0.0,0.0,0.0,0.0,0.0,0.0,0.0,0.0,0.0,0.0,0.0,0.0,0.0,0.0,0.0,0.0,0.0,0.0,0.0,0.0,0.0,0.0,0.0,0.0,0.0,0.0,0.0,0.0,0.0,0.0,0.0,0.0,0.0,0.0,0.0,0.0,0.0,0.0,0.0,0.0,0.0,0.0,0.0,0.0,0.0,0.0,0.0,0.0,0.0,0.0,0.0,0.0,0.0,0.0,0.0,0.0,0.0,0.0,0.0,2.1287,2.1143,2.2097,0.0,0.0,0.0,0.0,0.0,0.0,0.0,0.0,0.0,0.0,0.0,0.0,0.0,0.0,0.0,0.0,0.0,0.0,0.0,0.0,0.0,0.0,0.0,0.0,0.0,0.0,0.0,0.0,0.0,0.0,0.0,0.0,0.0,0.0,0.0,0.0,0.0,0.0,0.0,0.0,0.0,0.0,0.0,0.0,0.0,0.0,0.0,0.0,0.0,0.0,0.0,0.0,0.0,0.0,0.0,0.0,0.0,0.0,0.0,0.0,0.0,0.0,0.0,0.0,0.0,0.0,0.0,0.0,0.0,0.0,0.0,0.0,0.0,0.0,0.0,0.0,0.0,0.0,0.0,0.0,0.0,0.0,0.0,0.0,0.0,0.0,0.0,0.0,0.0,0.0,0.0,0.0,0.0,0.0,0.0,0.0,0.0,0.0,0.0,0.0,0.0,0.0,0.0,0.0,0.0,0.0,0.0,0.0,0.0,0.0,2.0524,2.1493,2.1438,0.0,2.1855,0.0,0.0,0.0,0.0,0.0,0.0,0.0,0.0,0.0,0.0,0.0,0.0,0.0,0.0,0.0,0.0,0.0,0.0,0.0,0.0,0.0,0.0,0.0,0.0,0.0,0.0,0.0,0.0,0.0,0.0,0.0,0.0,0.0,0.0,0.0,0.0,0.0,0.0,0.0,0.0,0.0,0.0,0.0,0.0,0.0,0.0,0.0,0.0,0.0,0.0,0.0,0.0,0.0,0.0,0.0,0.0,0.0,0.0,0.0,0.0,0.0,0.0,0.0,0.0,0.0,0.0,0.0,0.0,0.0,0.0,0.0,0.0,0.0,0.0,0.0,0.0,0.0,0.0,0.0,0.0,0.0,0.0,0.0,0.0,0.0,0.0,0.0,0.0,0.0,0.0,0.0,0.0,0.0,0.0,0.0,0.0,0.0,0.0,0.0,0.0,0.0,0.0,0.0,0.0,0.0,0.0,0.0,0.0,0.0,0.0,2.0312,2.1304,2.1538,2.1429,0.0,0.0,0.0,0.0,0.0,0.0,0.0,0.0,0.0,0.0,0.0,0.0,0.0,0.0,0.0,0.0,0.0,0.0,0.0,0.0,0.0,0.0,0.0,0.0,0.0,0.0,0.0,0.0,0.0,0.0,0.0,0.0,0.0,0.0,0.0,0.0,0.0,0.0,0.0,0.0,0.0,0.0,0.0,0.0,0.0,0.0,0.0,0.0,0.0,0.0,0.0,0.0,0.0,0.0,0.0,0.0,0.0,0.0,0.0,0.0,0.0,0.0,0.0,0.0,0.0,0.0,0.0,0.0,0.0,0.0,0.0,0.0,0.0,0.0,0.0,0.0,0.0,0.0,0.0,0.0,0.0,0.0,0.0,0.0,0.0,0.0,0.0,0.0,0.0,0.0,0.0,0.0,0.0,0.0,0.0,0.0,0.0,0.0,0.0,0.0,0.0,0.0,0.0,0.0,0.0,0.0,0.0,0.0,0.0,0.0,2.0076,2.0589,2.1578,2.1713,2.1453,2.0878,0.0,0.0,0.0,0.0,0.0,0.0,0.0,0.0,0.0,0.0,0.0,0.0,0.0,0.0,0.0,0.0,0.0,0.0,0.0,0.0,0.0,0.0,0.0,0.0,0.0,0.0,0.0,0.0,0.0,0.0,0.0,0.0,0.0,0.0,0.0,0.0,0.0,0.0,0.0,0.0,0.0,0.0,0.0,0.0,0.0,0.0,0.0,0.0,0.0,0.0,0.0,0.0,0.0,0.0,0.0,0.0,0.0,0.0,0.0,0.0,0.0,0.0,0.0,0.0,0.0,0.0,0.0,0.0,0.0,0.0,0.0,0.0,0.0,0.0,0.0,0.0,0.0,0.0,0.0,0.0,0.0,0.0,0.0,0.0,0.0,0.0,0.0,0.0,0.0,0.0,0.0,0.0,0.0,0.0,0.0,0.0,0.0,0.0,0.0,0.0,0.0,0.0,0.0,0.0,0.0,0.0,0.0,0.0,2.0443,2.0637,2.1333,2.2422,2.2041,2.1764,0.0,0.0,0.0,0.0,0.0,0.0,0.0,0.0,0.0,0.0,0.0,0.0,0.0,0.0,0.0,0.0,0.0,0.0,0.0,0.0,0.0,0.0,0.0,0.0,0.0,0.0,0.0,0.0,0.0,0.0,0.0,0.0,0.0,0.0,0.0,0.0,0.0,0.0,0.0,0.0,0.0,0.0,0.0,0.0,0.0,0.0,0.0,0.0,0.0,0.0,0.0,0.0,0.0,0.0,0.0,0.0,0.0,0.0,0.0,0.0,0.0,0.0,0.0,0.0,0.0,0.0,0.0,0.0,0.0,0.0,0.0,0.0,0.0,0.0,0.0,0.0,0.0,0.0,0.0,0.0,0.0,0.0,0.0,0.0,0.0,0.0,0.0,0.0,0.0,0.0,0.0,0.0,0.0,0.0,0.0,0.0,0.0,0.0,0.0,0.0,0.0,0.0,0.0,0.0,0.0,0.0,0.0,0.0,0.0,1.9614,2.0315,2.0739,2.0865,2.1263,2.1324,0.0,0.0,0.0,0.0,0.0,0.0,0.0,0.0,0.0,0.0,0.0,0.0,0.0,0.0,0.0,0.0,0.0,0.0,0.0,0.0,0.0,0.0,0.0,0.0,0.0,0.0,0.0,0.0,0.0,0.0,0.0,0.0,0.0,0.0,0.0,0.0,0.0,0.0,0.0,0.0,0.0,0.0,0.0,0.0,0.0,0.0,0.0,0.0,0.0,0.0,0.0,0.0,0.0,0.0,0.0,0.0,0.0,0.0,0.0,0.0,0.0,0.0,0.0,0.0,0.0,0.0,0.0,0.0,0.0,0.0,0.0,0.0,0.0,0.0,0.0,0.0,0.0,0.0,0.0,0.0,0.0,0.0,0.0,0.0,0.0,0.0,0.0,0.0,0.0,0.0,0.0,0.0,0.0,0.0,0.0,0.0,0.0,0.0,0.0,0.0,0.0,0.0,0.0,0.0,0.0,0.0,0.0,0.0,0.0,1.929,0.0,1.9899,2.0031,2.0594,2.0742,0.0,0.0,0.0,0.0,0.0,0.0,0.0,0.0,0.0,0.0,0.0,0.0,0.0,0.0,0.0,0.0,0.0,0.0,0.0,0.0,0.0,0.0,0.0,0.0,0.0,0.0,0.0,0.0,0.0,0.0,0.0,0.0,0.0,0.0,0.0,0.0,0.0,0.0,0.0,0.0,0.0,0.0,0.0,0.0,0.0,0.0,0.0,0.0,0.0,0.0,0.0,0.0,0.0,0.0,0.0,0.0,0.0,0.0,0.0,0.0,0.0,0.0,0.0,0.0,0.0,0.0,0.0,0.0,0.0,0.0,0.0,0.0,0.0,0.0,0.0,0.0,0.0,0.0,0.0,0.0,0.0,0.0,0.0,0.0,0.0,0.0,0.0,0.0,0.0,0.0,0.0,0.0,0.0,0.0,0.0,0.0,0.0,0.0,0.0,0.0,0.0,0.0,0.0,0.0,0.0,0.0,0.0,0.0,1.8667,1.9564,1.8723,1.8841,2.0118,2.0075,2.0078,0.0,0.0,0.0,0.0,0.0,0.0,0.0,0.0,0.0,0.0,0.0,0.0,0.0,0.0,0.0,0.0,0.0,0.0,0.0,0.0,0.0,0.0,0.0,0.0,0.0,0.0,0.0,0.0,0.0,0.0,0.0,0.0,0.0,0.0,0.0,0.0,0.0,0.0,0.0,0.0,0.0,0.0,0.0,0.0,0.0,0.0,0.0,0.0,0.0,0.0,0.0,0.0,0.0,0.0,0.0,0.0,0.0,0.0,0.0,0.0,0.0,0.0,0.0,0.0,0.0,0.0,0.0,0.0,0.0,0.0,0.0,0.0,0.0,0.0,0.0,0.0,0.0,0.0,0.0,0.0,0.0,0.0,0.0,0.0,0.0,0.0,0.0,0.0,0.0,0.0,0.0,0.0,0.0,0.0,0.0,0.0,0.0,0.0,0.0,0.0,0.0,0.0,0.0,0.0,0.0,0.0,0.0,0.0,0.0,1.828,1.6936,1.7148,1.91,1.8672,1.8925,0.0,0.0,0.0,0.0,0.0,0.0,0.0,0.0,0.0,0.0,0.0,0.0,0.0,0.0,0.0,0.0,0.0,0.0,0.0,0.0,0.0,0.0,0.0,0.0,0.0,0.0,0.0,0.0,0.0,0.0,0.0,0.0,0.0,0.0,0.0,0.0,0.0,0.0,0.0,0.0,0.0,0.0,0.0,0.0,0.0,0.0,0.0,0.0,0.0,0.0,0.0,0.0,0.0,0.0,0.0,0.0,0.0,0.0,0.0,0.0,0.0,0.0,0.0,0.0,0.0,0.0,0.0,0.0,0.0,0.0,0.0,0.0,0.0,0.0,0.0,0.0,0.0,0.0,0.0,0.0,0.0,0.0,0.0,0.0,0.0,0.0,0.0,0.0,0.0,0.0,0.0,0.0,0.0,0.0,0.0,0.0,0.0,0.0,0.0,0.0,0.0,0.0,0.0,0.0,0.0,0.0,0.0,0.0,0.0,1.4924,1.4576,1.5229,1.7084,1.7218,1.7937,1.9344,0.0,0.0,0.0,0.0,0.0,0.0,0.0,0.0,0.0,0.0,0.0,0.0,0.0,0.0,0.0,0.0,0.0,0.0,0.0,0.0,0.0,0.0,0.0,0.0,0.0,0.0,0.0,0.0,0.0,0.0,0.0,0.0,0.0,0.0,0.0,0.0,0.0,0.0,0.0,0.0,0.0,0.0,0.0,0.0,0.0,0.0,0.0,0.0,0.0,0.0,0.0,0.0,0.0,0.0,0.0,0.0,0.0,0.0,0.0,0.0,0.0,0.0,0.0,0.0,0.0,0.0,0.0,0.0,0.0,0.0,0.0,0.0,0.0,0.0,0.0,0.0,0.0,0.0,0.0,0.0,0.0,0.0,0.0,0.0,0.0,0.0,0.0,0.0,0.0,0.0,0.0,0.0,0.0,0.0,0.0,0.0,0.0,0.0,0.0,0.0,0.0,0.0,0.0,0.0,0.0,0.0,0.0,0.0,1.0247,1.1823,1.3164,1.4215,1.5766,1.7081,0.0,0.0,0.0,0.0,0.0,0.0,0.0,0.0,0.0,0.0,0.0,0.0,0.0,0.0,0.0,0.0,0.0,0.0,0.0,0.0,0.0,0.0,0.0,0.0,0.0,0.0,0.0,0.0,0.0,0.0,0.0,0.0,0.0,0.0,0.0,0.0,0.0,0.0,0.0,0.0,0.0,0.0,0.0,0.0,0.0,0.0,0.0,0.0,0.0,0.0,0.0,0.0,0.0,0.0,0.0,0.0,0.0,0.0,0.0,0.0,0.0,0.0,0.0,0.0,0.0,0.0,0.0,0.0,0.0,0.0,0.0,0.0,0.0,0.0,0.0,0.0,0.0,0.0,0.0,0.0,0.0,0.0,0.0,0.0,0.0,0.0,0.0,0.0,0.0,0.0,0.0,0.0,0.0,0.0,0.0,0.0,0.0,0.0,0.0,0.0,0.0,0.0,0.0,0.0,0.0,0.0,0.0,0.0,0.0,0.8362,0.9203,1.0696,1.2824,1.4404,1.6228,0.0,0.0,0.0,0.0,0.0,0.0,0.0,0.0,0.0,0.0,0.0,0.0,0.0,0.0,0.0,0.0,0.0,0.0,0.0,0.0,0.0,0.0,0.0,0.0,0.0,0.0,0.0,0.0,0.0,0.0,0.0,0.0,0.0,0.0,0.0,0.0,0.0,0.0,0.0,0.0,0.0,0.0,0.0,0.0,0.0,0.0,0.0,0.0,0.0,0.0,0.0,0.0,0.0,0.0,0.0,0.0,0.0,0.0,0.0,0.0,0.0,0.0,0.0,0.0,0.0,0.0,0.0,0.0,0.0,0.0,0.0,0.0,0.0,0.0,0.0,0.0,0.0,0.0,0.0,0.0,0.0,0.0,0.0,0.0,0.0,0.0,0.0,0.0,0.0,0.0,0.0,0.0,0.0,0.0,0.0,0.0,0.0,0.0,0.0,0.0,0.0,0.0,0.0,0.0,0.0,0.0,0.0,0.0,0.6695,0.6673,0.7226,0.8766,1.1424,1.393,1.6112,0.0,0.0,0.0,0.0,0.0,0.0,0.0,0.0,0.0,0.0,0.0,0.0,0.0,0.0,0.0,0.0,0.0,0.0,0.0,0.0,0.0,0.0,0.0,0.0,0.0,0.0,0.0,0.0,0.0,0.0,0.0,0.0,0.0,0.0,0.0,0.0,0.0,0.0,0.0,0.0,0.0,0.0,0.0,0.0,0.0,0.0,0.0,0.0,0.0,0.0,0.0,0.0,0.0,0.0,0.0,0.0,0.0,0.0,0.0,0.0,0.0,0.0,0.0,0.0,0.0,0.0,0.0,0.0,0.0,0.0,0.0,0.0,0.0,0.0,0.0,0.0,0.0,0.0,0.0,0.0,0.0,0.0,0.0,0.0,0.0,0.0,0.0,0.0,0.0,0.0,0.0,0.0,0.0,0.0,0.0,0.0,0.0,0.0,0.0,0.0,0.0,0.0,0.0,0.0,0.0,0.0,0.0,0.0,0.5203,0.5205,0.6207,0.7818,1.0225,1.3899,1.6378,0.0,0.0,0.0,0.0,0.0,0.0,0.0,0.0,0.0,0.0,0.0,0.0,0.0,0.0,0.0,0.0,0.0,0.0,0.0,0.0,0.0,0.0,0.0,0.0,0.0,0.0,0.0,0.0,0.0,0.0,0.0,0.0,0.0,0.0,0.0,0.0,0.0,0.0,0.0,0.0,0.0,0.0,0.0,0.0,0.0,0.0,0.0,0.0,0.0,0.0,0.0,0.0,0.0,0.0,0.0,0.0,0.0,0.0,0.0,0.0,0.0,0.0,0.0,0.0,0.0,0.0,0.0,0.0,0.0,0.0,0.0,0.0,0.0,0.0,0.0,0.0,0.0,0.0,0.0,0.0,0.0,0.0,0.0,0.0,0.0,0.0,0.0,0.0,0.0,0.0,0.0,0.0,0.0,0.0,0.0,0.0,0.0,0.0,0.0,0.0,0.0,0.0,0.0,0.0,0.0,0.0,0.0,0.0,0.5313,0.3956,0.7861,1.0125,1.0434,1.3329,1.5978,0.0,0.0,0.0,0.0,0.0,0.0,0.0,0.0,0.0,0.0,0.0,0.0,0.0,0.0,0.0,0.0,0.0,0.0,0.0,0.0,0.0,0.0,0.0,0.0,0.0,0.0,0.0,0.0,0.0,0.0,0.0,0.0,0.0,0.0,0.0,0.0,0.0,0.0,0.0,0.0,0.0,0.0,0.0,0.0,0.0,0.0,0.0,0.0,-0.4131,0.0,0.0,0.0,0.0,0.0,0.0,0.0,0.0,0.0,0.0,0.0,0.0,0.0,0.0,0.0,0.0,0.0,0.0,0.0,0.0,0.0,0.0,0.0,0.0,0.0,0.0,0.0,0.0,0.0,0.0,0.0,0.0,0.0,0.0,0.0,0.0,0.0,0.0,0.0,0.0,0.0,0.0,0.0,0.0,0.0,0.0,0.0,0.0,0.0,0.0,0.0,0.0,0.0,0.0,0.0,0.0,0.0,0.0,0.0,0.5855,0.5742,0.8988,1.1255,1.2322,1.3992,1.6097,0.0,0.0,0.0,0.0,0.0,0.0,0.0,0.0,0.0,0.0,0.0,0.0,0.0,0.0,0.0,0.0,0.0,0.0,0.0,0.0,0.0,0.0,0.0,0.0,0.0,0.0,0.0,0.0,0.0,0.0,0.0,0.0,0.0,0.0,0.0,0.0,0.0,0.0,0.0,0.0,0.0,0.0,0.0,0.0,0.0,0.0,0.0,0.0,0.0,0.0,0.0,0.0,0.0,0.0,0.0,0.0,0.0,0.0,0.0,0.0,0.0,0.0,0.0,0.0,0.0,0.0,0.0,0.0,0.0,0.0,0.0,0.0,0.0,0.0,0.0,0.0,0.0,0.0,0.0,0.0,0.0,0.0,0.0,0.0,0.0,0.0,0.0,0.0,0.0,0.0,0.0,0.0,0.0,0.0,0.0,0.0,0.0,0.0,0.0,0.0,0.0,0.0,0.0,0.0,0.0,0.0,0.0,0.6299,0.6673,0.7965,0.9873,1.2025,1.4302,1.4912,1.6289,1.8556,0.0,0.0,0.0,0.0,0.0,0.0,0.0,0.0,0.0,0.0,0.0,0.0,0.0,0.0,0.0,0.0,0.0,0.0,0.0,0.0,0.0,0.0,0.0,0.0,0.0,0.0,0.0,0.0,0.0,0.0,0.0,0.0,0.0,0.0,0.0,0.0,0.0,0.0,0.5111,-0.08,0.0,0.0,0.0,0.0,0.0,0.0,0.0,0.0,-0.9986,0.0,0.0,0.0,0.0,0.0,0.0,0.0,0.0,0.0,0.0,0.0,0.0,0.0,0.0,0.0,0.0,0.0,0.0,0.0,0.0,0.0,0.0,0.0,0.0,0.0,0.0,0.0,0.0,0.0,0.0,0.0,0.0,0.0,0.0,0.0,0.0,0.0,0.0,0.0,0.0,0.0,0.0,0.0,0.0,0.0,0.0,0.0,0.0,0.0,0.0,0.0,0.0,0.0,0.0,0.0,0.0,0.5638,0.7212,0.7662,0.7029,1.0694,1.3187,1.4293,1.4892,1.5979,1.749,0.0,0.0,0.0,0.0,0.0,0.0,0.0,0.0,0.0,0.0,0.0,0.0,0.0,0.0,0.0,0.0,0.0,0.0,0.0,0.0,0.0,0.0,0.0,0.0,0.0,0.0,0.0,0.0,0.0,0.0,0.0,0.0,0.0,0.0,0.0,0.0,0.0,0.0,0.0,-0.4517,-0.5788,0.0,0.0,0.0,0.0,0.0,0.0,0.0,0.0,-1.0991,0.0,0.0,0.0,0.0,0.0,0.0,0.0,0.0,0.0,0.0,0.0,0.0,0.0,0.0,0.0,0.0,0.0,0.0,0.0,0.0,0.0,0.0,0.0,0.0,0.0,0.0,0.0,0.0,0.0,0.0,0.0,0.0,0.0,0.0,0.0,0.0,0.0,0.0,0.0,0.0,0.0,0.0,0.0,0.0,0.0,0.0,0.0,0.0,0.0,0.0,0.0,0.0,0.0,0.0,0.0,0.6088,0.6929,0.7654,0.8216,1.1222,1.3396,1.4513,1.4504,1.5144,0.0,0.0,0.0,0.0,0.0,0.0,0.0,0.0,0.0,0.0,0.0,0.0,0.0,0.0,0.0,0.0,0.0,0.0,0.0,0.0,0.0,0.0,0.0,0.0,0.0,0.0,0.0,0.0,0.0,0.0,0.0,0.0,0.0,0.0,0.0,0.0,0.0,0.0,0.0,0.0,-0.7154,-0.7493,-0.7889,0.0,0.0,0.0,0.0,0.0,0.0,-1.0736,-1.1286,0.0,0.0,0.0,0.0,0.0,0.0,0.0,0.0,0.0,0.0,0.0,0.0,0.0,0.0,0.0,0.0,0.0,0.0,0.0,0.0,0.0,0.0,0.0,0.0,0.0,0.0,0.0,0.0,0.0,0.0,0.0,0.0,0.0,0.0,0.0,0.0,0.0,0.0,0.0,0.0,0.0,0.0,0.0,0.0,0.0,0.0,0.0,0.0,0.0,0.0,0.0,0.0,0.0,0.0,0.0,0.7008,0.7007,0.7882,0.9647,1.1612,1.3242,1.4461,1.3905,1.4155,0.0,0.0,0.0,0.0,0.0,0.0,0.0,0.0,0.0,0.0,0.0,0.0,0.0,0.0,0.0,0.0,0.0,0.0,0.0,0.0,0.0,0.0,0.0,0.0,0.0,0.0,0.0,0.0,0.0,0.0,0.0,0.0,0.0,0.0,0.0,0.0,0.0,0.0,0.0,0.0,0.0,-0.9005,-0.9022,-0.884,0.0,0.0,0.0,0.0,-0.9378,-1.0642,0.0,0.0,0.0,0.0,0.0,0.0,0.0,0.0,0.0,0.0,0.0,0.0,0.0,0.0,0.0,0.0,0.0,0.0,0.0,0.0,0.0,0.0,0.0,0.0,0.0,0.0,0.0,0.0,0.0,0.0,0.0,0.0,0.0,0.0,0.0,0.0,0.0,0.0,0.0,0.0,0.0,0.0,0.0,0.0,0.0,0.0,0.0,0.0,0.0,0.0,0.0,0.0,0.0,0.0,0.0,0.0,0.8451,0.8911,0.9481,1.0244,1.1889,1.3021,1.3525,1.3082,1.3189,0.0,0.0,0.0,0.0,0.0,0.0,0.0,0.0,0.0,0.0,0.0,0.0,0.0,0.0,0.0,0.0,0.0,0.0,0.0,0.0,0.0,0.0,0.0,0.0,0.0,0.0,0.0,0.0,0.0,0.0,0.0,0.0,0.0,0.0,0.0,0.0,0.0,0.0,0.0,0.0,0.0,-0.9129,-0.8801,-0.8966,-0.9187,0.0,0.0,-1.0761,-1.0828,-1.1951,0.0,0.0,0.0,0.0,0.0,0.0,0.0,0.0,0.0,0.0,0.0,0.0,0.0,0.0,0.0,0.0,0.0,0.0,0.0,0.0,0.0,0.0,0.0,0.0,0.0,0.0,0.0,0.0,0.0,0.0,0.0,0.0,0.0,0.0,0.0,0.0,0.0,0.0,0.0,0.0,0.0,0.0,0.0,0.0,0.0,0.0,0.0,0.0,0.0,0.0,0.0,0.0,0.0,0.0,0.0,0.793,0.848,0.8764,0.9518,1.0726,1.1693,1.2343,1.2712,1.2228,1.2299,0.0,0.0,0.0,0.0,0.0,0.0,0.0,0.0,0.0,0.0,0.0,0.0,0.0,0.0,0.0,0.0,0.0,0.0,0.0,0.0,0.0,0.0,0.0,0.0,0.0,0.0,0.0,0.0,0.0,0.0,0.0,0.0,0.0,0.0,0.0,0.0,0.0,0.0,0.0,0.0,0.0,0.0,-0.9353,-0.9516,0.0,0.0,0.0,-1.0829,-1.1121,0.0,0.0,0.0,0.0,0.0,0.0,0.0,0.0,0.0,0.0,0.0,0.0,0.0,0.0,0.0,0.0,0.0,0.0,0.0,0.0,0.0,0.0,0.0,0.0,0.0,0.0,0.0,0.0,0.0,0.0,0.0,0.0,0.0,0.0,0.0,0.0,0.0,0.0,0.0,0.0,0.0,0.0,0.0,0.0,0.0,0.0,0.0,0.0,0.0,0.0,0.0,0.0,0.0,0.0,0.0,0.0,0.0,0.8917,0.8737,0.935,1.0837,1.1447,1.1701,1.1554,1.1241,0.0,0.0,0.0,0.0,0.0,0.0,0.0,0.0,0.0,0.0,0.0,0.0,0.0,0.0,0.0,0.0,0.0,0.0,0.0,0.0,0.0,0.0,0.0,0.0,0.0,0.0,0.0,0.6816,0.0,0.0,0.0,0.0,0.0,0.0,0.0,0.0,0.0,0.0,0.0,0.0,0.0,0.0,-0.9814,-0.9438,-0.9809,-1.0009,0.0,0.0,-1.1004,-1.1024,-1.1268,-1.1153,0.0,0.0,0.0,0.0,0.0,0.0,0.0,0.0,0.0,0.0,0.0,0.0,0.0,0.0,0.0,0.0,0.0,0.0,0.0,0.0,0.0,0.0,0.0,0.0,0.0,0.0,0.0,0.0,0.0,0.0,0.0,0.0,0.0,0.0,0.0,0.0,0.0,0.0,0.0,0.0,0.0,0.0,0.0,0.0,0.0,0.0,0.0,0.0,0.0,0.0,0.0,0.0,0.0,0.0,0.8864,1.0602,0.9504,0.935,1.0352,1.1365,1.1208,0.9837,1.003,1.0229,0.0,0.0,0.0,0.0,0.0,0.0,0.0,0.0,0.0,0.0,0.0,0.0,0.0,0.0,0.0,0.0,0.0,0.0,0.0,0.0,0.0,0.0,0.0,0.0,0.0,0.0,0.0,0.0,0.0,0.0,0.0,0.0,0.0,0.0,0.0,0.0,0.0,0.0,0.0,0.0,0.0,-0.9653,-0.8458,-0.955,-1.0506,0.0,-1.1483,-1.1758,-1.0792,-1.1267,-1.1448,-1.0518,0.0,0.0,0.0,0.0,0.0,0.0,0.0,0.0,0.0,0.0,0.0,0.0,0.0,0.0,0.0,0.0,0.0,0.0,0.0,0.0,0.0,0.0,0.0,0.0,0.0,0.0,0.0,0.0,0.0,0.0,0.0,0.0,0.0,0.0,0.0,0.0,0.0,0.0,0.0,0.0,0.0,0.0,0.0,0.0,0.0,0.0,0.0,0.0,0.0,0.0,0.0,0.0,0.0,0.9144,0.9878,0.9279,0.9385,1.0267,1.0588,1.0204,0.908,0.9199,0.9316,0.0,0.0,0.0,0.0,0.0,0.0,0.0,0.0,0.0,0.0,0.0,0.0,0.0,0.0,0.0,0.0,0.0,0.0,0.0,0.0,0.0,0.0,0.0,0.0,0.0,0.0,0.0,0.0,0.7781,0.7437,0.7073,0.0,0.0,0.0,0.0,0.0,0.0,0.0,0.0,0.0,0.0,-0.8075,-0.8291,-0.8748,0.0,0.0,-1.0543,-1.0955,-1.0761,-1.1091,-1.0849,-0.9288,-0.9525,0.0,0.0,0.0,0.0,0.0,0.0,0.0,0.0,0.0,0.0,0.0,0.0,0.0,0.0,0.0,0.0,0.0,0.0,0.0,0.0,0.0,0.0,0.0,0.0,0.0,0.0,0.0,0.0,0.0,0.0,0.0,0.0,0.0,0.0,0.0,0.0,0.0,0.0,0.0,0.0,0.0,0.0,0.0,0.0,0.0,0.0,0.0,0.0,0.0,0.0,0.0,0.0,0.9367,0.9949,0.9145,0.9128,0.9953,1.0001,0.9471,0.8364,0.8372,0.816,0.0,0.0,0.0,0.0,0.0,0.0,0.0,0.0,0.0,0.0,0.0,0.0,0.0,0.0,0.0,0.0,0.0,0.0,0.0,0.0,0.0,0.0,0.0,0.0,0.0,0.0,0.0,0.0,0.8367,0.8465,0.8182,0.0,0.0,0.0,0.0,0.0,0.0,0.0,0.0,0.0,0.0,-0.7291,-0.7899,-0.8286,-0.8772,-0.9444,-0.9982,-1.0391,-1.0596,-1.0477,-0.987,-0.8352,0.0,0.0,0.0,0.0,0.0,0.0,0.0,0.0,0.0,0.0,0.0,0.0,0.0,0.0,0.0,0.0,0.0,0.0,0.0,0.0,0.0,0.0,0.0,0.0,0.0,0.0,0.0,1.8984,0.0,0.0,1.674,0.0,0.0,0.0,0.0,0.0,0.0,0.0,0.0,0.0,0.0,0.0,0.0,0.0,0.0,0.0,0.0,0.0,0.0,0.0,0.0,0.0,0.0,0.9626,1.1395,0.9251,0.8482,0.9213,0.9807,0.9247,0.7569,0.7512,0.6718,0.508,0.0,0.0,0.0,0.0,0.0,0.0,0.0,0.0,0.0,0.0,0.0,0.0,0.0,0.0,0.0,0.0,0.0,0.0,0.0,0.0,0.0,0.0,0.0,0.0,0.0,0.0,0.9071,0.8865,0.9185,0.0,0.0,0.0,0.0,0.0,0.0,0.0,0.0,0.0,-0.574,-0.7042,-0.7646,-0.7125,-0.829,-0.9331,-0.9893,-1.0126,-1.0233,-1.0154,-0.9387,-0.8539,0.0,0.0,0.0,0.0,0.0,0.0,0.0,0.0,0.0,0.0,0.0,0.0,0.0,0.0,0.0,0.0,0.0,0.0,0.0,0.0,0.0,0.0,0.0,0.0,0.0,0.0,0.0,1.7196,1.7084,0.0,0.0,0.0,0.0,0.0,0.0,0.0,0.0,0.0,0.0,0.0,0.0912,0.047,0.0,0.0,0.0,0.0,0.0,0.0,0.0,0.0,0.0,0.0,0.0,0.0,1.051,1.1231,0.9296,0.8478,0.8987,0.9457,0.9276,0.8354,0.7783,0.7162,0.6436,0.0,0.0,0.0,0.0,0.0,0.0,0.0,0.0,0.0,0.0,0.0,0.0,0.0,0.0,0.0,0.0,0.0,0.0,0.0,0.0,0.0,0.0,0.0,0.0,0.0,0.9447,0.0,0.0,0.0,0.0,0.0,0.0,0.0,0.0,0.0,0.0,0.0,-0.4173,-0.51,-0.5685,-0.616,-0.648,-0.6944,-0.7275,0.0,0.0,0.0,0.0,0.0,0.0,0.0,0.0,0.0,0.0,0.0,0.0,0.0,0.0,-1.0994,-1.1161,-1.1571,-1.1888,-1.1939,0.0,0.0,0.0,0.0,0.0,0.0,0.0,0.0,0.0,0.0,0.0,0.0,0.0,0.0,1.6065,0.0,1.4891,0.0,0.0,0.0,0.0,0.0,0.0,0.0,0.0,0.2477,0.0752,-0.0745,-0.1394,-0.2249,0.0,-0.3872,-0.2919,0.0,0.0,0.0,0.0,0.0,0.0,0.0,0.0,1.126,1.139,0.9374,0.8525,0.8994,0.9322,0.9282,0.88,0.7637,0.6765,0.624,0.7225,0.8259,0.0,0.0,0.0,0.0,0.0,0.0,0.0,0.0,0.0,0.0,0.0,0.0,0.0,0.0,0.0,0.0,0.0,0.0,0.0,0.0,0.0,0.0,0.0,0.809,0.0,0.0,0.0,0.0,0.0,0.0,0.0,0.0,0.0,-0.2029,-0.3138,-0.4055,-0.4587,-0.4843,-0.5256,-0.5965,0.0,0.0,0.0,0.0,0.0,0.0,0.0,-0.828,-0.7203,-0.848,-0.9801,-1.0358,-1.112,-1.1571,-1.1282,0.0,0.0,-1.0625,-1.1163,-1.1613,-1.1645,-1.1502,-1.1771,-1.2945,-1.2344,-1.1765,0.0,0.0,0.0,0.0,0.0,0.0,0.0,0.0,1.5087,1.5299,0.0,1.4117,0.0,0.0,0.0,0.0,0.8347,0.6748,0.0,0.0,0.0468,-0.1255,-0.1633,-0.2748,-0.3561,-0.4103,-0.4921,-0.5212,-0.4818,-0.0535,0.0,0.0,0.0,0.0,0.0,0.0,1.181,1.1694,0.9551,0.8644,0.9189,0.9409,0.9275,0.8767,0.7095,0.5637,0.4538,0.5882,0.6555,0.6308,0.9734,0.0,0.0,0.0,0.0,0.0,0.0,0.0,0.0,0.0,0.0,0.0,0.0,0.0,0.0,0.0,0.0,0.0,0.0,0.0,0.0,0.7355,0.0,0.0,0.0,0.0,0.0,0.0,0.0,0.0,0.0,0.0,-0.254,-0.3217,-0.3761,-0.4169,0.0,0.0,0.0,0.0,-0.7402,-0.7268,-0.8282,-0.8869,-0.8443,-0.7714,-0.6959,-0.6366,0.0,0.0,-1.1445,-1.2328,-1.2628,-1.2774,-1.1743,-1.0692,-0.9708,-1.0287,-1.0879,-1.0976,-1.1555,-1.2177,-1.2343,-1.2225,-1.1867,1.5407,0.0,0.0,0.0,0.0,1.5101,1.4686,1.401,1.4282,1.4249,1.3944,1.3026,0.0,0.0,0.0,0.0,0.0,0.0,0.5336,0.3817,0.152,-0.0662,-0.2741,-0.4334,-0.5304,-0.582,-0.6899,-0.6359,-0.4276,-0.1715,0.1673,0.5782,0.0,0.0,0.0,0.0,1.2433,1.1391,1.0384,0.9728,0.9419,0.9659,0.9382,0.8549,0.7599,0.6246,0.4476,0.4654,0.5264,0.6245,0.7674,0.0,0.0,0.0,0.0,0.0,0.0,0.0,0.0,0.0,0.0,0.0,0.0,0.0,0.0,0.0,0.0,0.0,0.0,0.0,0.6282,0.2276,0.0955,0.0,0.0,0.0,0.0,0.0,0.0,0.0,0.0,0.0,-0.2331,-0.319,-0.4022,0.0,0.0,-0.539,-0.5818,-0.6333,-0.6328,-0.5474,-0.5783,0.0,-0.5586,-0.5922,-0.6023,-0.5463,-0.6641,-0.8243,-0.9995,-1.0618,-1.0873,-1.0937,-1.1056,-1.0861,-1.0009,-0.9994,-1.0193,-1.0225,-1.0426,-1.0794,-1.1326,-1.1493,-1.1613,1.3452,1.4333,1.5392,1.5053,1.3906,1.4411,1.4125,1.3304,1.3705,1.3669,1.3227,1.2046,1.1439,1.1282,1.0055,0.0,0.0,0.0,0.5332,0.3095,0.1542,-0.0597,-0.3119,-0.4676,-0.5628,-0.6062,-0.7085,-0.6356,-0.3946,-0.1585,0.1527,0.5415,0.0,0.0,1.3894,1.308,1.2029,1.0809,1.0271,0.9888,0.9632,0.9876,0.9738,0.9105,0.8029,0.6543,0.4561,0.4196,0.4436,0.5309,0.6401,0.7594,0.0,0.0,0.0,0.0,0.0,0.0,0.0,0.0,0.0,0.0,0.0,1.163,1.1632,0.0,0.0,0.0,0.922,0.6607,0.261,0.0283,0.0,0.0,0.0,0.0,0.0,0.0,0.0,-0.0575,-0.1613,-0.2309,-0.2395,-0.2763,-0.3207,-0.3669,-0.3884,-0.4243,-0.4949,0.0,-0.5324,-0.4718,-0.5035,-0.5251,-0.4966,-0.5142,-0.5274,-0.5182,-0.661,-0.8193,-0.9461,-1.0464,-1.109,-1.1111,-1.1167,-1.1059,-1.0533,-1.0157,-1.0032,-1.032,-1.0645,-1.106,-1.1571,-1.1686,-1.1843,1.1631,1.1505,1.3637,1.3818,1.2818,1.3768,1.3547,1.2577,1.3325,1.3423,1.2895,1.1321,1.0852,1.1169,0.9829,0.0,0.7211,0.7007,0.5108,0.1957,0.0933,-0.0696,-0.2825,-0.4036,-0.4763,-0.5058,-0.5868,-0.5302,-0.3397,-0.0523,0.2571,0.5802,0.8835,1.0891,1.1932,1.1733,1.1098,1.0103,0.9701,0.9608,0.9819,1.0051,1.0163,1.0049,0.8372,0.6568,0.4692,0.4308,0.408,0.4004,0.5613,0.662,0.6778,0.0,0.0,0.0,0.0,0.0,0.0,0.0,0.0,0.0,0.0,0.0,0.0,0.0,0.0,0.0,0.5918,0.0,-0.0935,0.0095,0.0,0.0,0.0,0.0531,-0.0637,-0.0726,-0.0974,-0.1669,0.0,0.0,-0.247,-0.2012,-0.1739,-0.1947,-0.1962,-0.2367,-0.3451,-0.4149,-0.4514,-0.4632,-0.5295,-0.5741,-0.5435,-0.4944,-0.4757,-0.5456,-0.6921,-0.837,-0.9661,-1.1146,-1.2283,-1.2208,-1.1779,-1.1228,-1.1136,-1.0457,-1.0219,-1.0847,-1.1556,-1.2131,-1.211,-1.2126,-1.1983,1.0982,1.0602,1.1767,1.2089,1.1852,1.2251,1.245,1.2522,1.2968,1.3125,1.3016,1.2005,1.0933,0.9778,0.7804,0.7034,0.7211,0.5846,0.4347,0.2755,0.1513,0.018,-0.1202,-0.2474,-0.3036,-0.3068,-0.3776,-0.2513,0.0475,0.094,0.3313,0.7349,0.8457,0.9938,1.1932,1.2195,1.152,0.9971,1.0726,1.0749,0.9984,1.007,0.9729,0.8919,0.8435,0.7018,0.4648,0.4494,0.4397,0.4224,0.454,0.5075,0.5794,0.7628,0.0,0.0,0.0,0.0,0.0,0.0,0.0,0.0,0.0,0.9904,0.9574,0.0,0.8047,0.0,0.4383,0.0863,-0.246,-0.321,0.0,0.0,-0.2955,-0.2329,-0.2158,-0.233,-0.219,-0.1423,-0.1916,-0.1933,-0.0919,-0.1009,-0.1091,-0.0927,-0.247,-0.362,-0.3657,-0.429,-0.4568,-0.4036,-0.3994,-0.405,-0.416,-0.3853,-0.4244,-0.6019,-0.6612,-0.7531,-0.9615,-1.0308,-1.067,-1.0774,-1.1108,-1.1011,-1.0492,-1.066,-1.0741,-1.045,-1.0475,-1.0569,-1.0592,-1.067,-1.0664,1.026,0.9944,1.0592,1.0902,1.0982,1.1672,1.2025,1.2159,1.2806,1.302,1.2842,1.1747,1.0352,0.866,0.6945,0.6338,0.6548,0.5129,0.3865,0.2824,0.1702,0.0608,-0.0506,-0.1343,-0.1628,-0.142,-0.1555,-0.0331,0.2012,0.2303,0.3886,0.6734,0.7236,0.8395,1.0191,1.1242,1.1477,1.0978,1.117,1.0838,0.9916,1.0029,1.0075,0.9957,0.8999,0.824,0.766,0.6415,0.5675,0.564,0.5202,0.5002,0.5172,0.6347,0.6873,0.0,0.0,0.0,0.0,0.0,0.0,0.0,0.0,0.0,0.0,0.0,0.5081,0.5213,0.2163,-0.0418,-0.1826,-0.2849,-0.364,-0.4102,-0.3659,-0.3319,-0.3258,-0.3171,-0.2836,-0.2214,-0.2275,-0.2096,-0.1389,-0.095,-0.083,-0.1143,-0.2161,-0.2844,-0.2833,-0.3341,-0.3627,-0.3377,-0.3344,-0.3387,-0.3486,-0.3429,-0.3968,-0.555,-0.6266,-0.7183,-0.8963,-0.9714,-1.0077,-1.0214,-1.0545,-1.0693,-1.027,-1.0456,-1.0609,-1.0294,-1.0075,-1.0046,-1.0037,-1.0112,-1.0144,0.971,0.9538,0.9944,1.011,1.0172,1.1395,1.1728,1.1577,1.2536,1.2791,1.2428,1.1054,0.9598,0.8108,0.6803,0.6106,0.5845,0.4658,0.355,0.2536,0.1669,0.0808,-0.0066,-0.035,-0.0283,0.0044,0.0569,0.1329,0.2283,0.3301,0.4297,0.5236,0.5991,0.6999,0.8317,0.9843,1.1129,1.2133,1.1298,1.0558,1.0025,1.0353,1.097,1.1744,1.0129,0.987,1.1225,0.9277,0.7967,0.7639,0.6787,0.5849,0.4937,0.5464,0.5751,0.0,0.6199,0.0,0.0,0.0,0.0,0.0,0.0,0.0,0.0,0.1184,0.1231,0.1409,-0.0127,-0.1022,-0.0816,-0.1357,-0.2245,-0.3529,-0.3299,-0.3279,-0.3864,-0.3475,-0.3154,-0.3218,-0.2662,-0.2364,-0.2415,-0.1303,-0.0883,-0.1866,-0.1708,-0.1596,-0.1744,-0.2173,-0.2598,-0.2928,-0.3295,-0.3713,-0.3752,-0.3851,-0.4382,-0.5393,-0.6335,-0.7263,-0.8507,-0.9465,-1.011,-1.0184,-1.0233,-1.0212,-1.0207,-1.0175,-1.016,-1.0215,-1.0163,-1.0111,-1.0122,-1.0152,-1.0189,0.9866,0.9617,1.0021,0.9932,0.9595,0.9995,1.0449,1.0996,1.1446,1.1555,1.1359,1.0547,0.9774,0.8932,0.7069,0.6138,0.5885,0.4285,0.3087,0.2254,0.1536,0.1233,0.1231,0.1243,0.1421,0.1804,0.1988,0.2247,0.2613,0.3093,0.4219,0.5876,0.639,0.7733,0.9821,0.0,0.0,0.0,1.1227,1.1266,1.1571,1.241,1.2659,1.2237,1.2361,0.0,1.0231,1.2325,1.2297,0.9642,0.8398,0.0,0.0,0.0,0.0,0.0,0.0,0.0,0.0,0.0,0.0,0.0,0.306,0.2712,0.2171,0.1458,0.0696,-0.0098,-0.1131,-0.2209,-0.3351,-0.3388,-0.3507,-0.3857,-0.3414,-0.3181,-0.3418,-0.3335,-0.3148,-0.2834,-0.2407,-0.2083,-0.1903,-0.1408,-0.1518,-0.2414,-0.2065,-0.1706,-0.1859,-0.2249,-0.2589,-0.2927,-0.389,-0.4653,-0.4697,-0.5345,-0.6071,-0.7281,-0.764,-0.8281,-0.9298,-0.9798,-1.0106,-1.0197,-1.0191,-1.0214,-1.0263,-1.0229,-1.0205,-1.0264,-1.0262,-1.0236,-1.0195,-1.0187,-1.0232,0.9997,0.9499,0.9751,0.953,0.0,0.9162,0.9286,0.9435,1.0467,1.0861,1.0721,1.0216,0.9577,0.872,0.6956,0.5911,0.5449,0.4021,0.2895,0.209,0.1754,0.1659,0.1811,0.2166,0.2623,0.3136,0.3397,0.3602,0.3783,0.3817,0.4414,0.5497,0.5758,0.6645,0.8177,0.8163,0.8856,1.0339,1.0476,1.0608,1.0731,1.136,1.1709,1.1804,1.1677,0.0,0.0,0.0,0.0,0.0,0.0,0.0,0.0,0.5019,0.0,0.4643,0.4378,0.4129,0.397,0.3374,0.2615,0.1693,0.1002,0.0641,0.0657,-0.0331,-0.1281,-0.1961,-0.2184,-0.2596,-0.3378,-0.3391,-0.3307,-0.3287,-0.3105,-0.299,-0.3049,-0.2895,-0.2716,-0.2611,-0.2647,-0.2543,-0.2102,-0.1786,-0.1903,-0.2596,-0.2294,-0.2051,-0.2336,-0.2896,-0.3428,-0.378,-0.38,-0.4234,-0.4851,-0.5331,-0.6392,-0.7642,-0.816,-0.8662,-0.9701,-1.001,-1.0148,-1.0232,-1.0223,-1.0214,-1.0273,-1.0231,-1.0231,-1.0273,-1.0273,-1.0254,-1.0194,-1.0194,-1.0214,1.0079,0.9274,0.9307,0.9,0.8456,0.8368,0.8065,0.7732,0.0,0.0,0.0,0.9755,0.8995,0.7901,0.6508,0.547,0.4712,0.3698,0.277,0.2024,0.2062,0.2164,0.2285,0.2863,0.3513,0.4189,0.4555,0.4807,0.4964,0.4781,0.4798,0.4938,0.5055,0.539,0.5973,0.647,0.7492,0.9024,0.9693,0.991,0.9762,1.0157,1.0773,1.1611,1.0777,1.1062,1.2555,1.1223,1.0423,1.0345,0.8667,0.7229,0.617,0.5085,0.429,0.3918,0.3602,0.3181,0.26,0.1844,0.1069,0.0398,-0.0566,-0.1192,-0.1247,-0.2174,-0.2868,-0.3142,-0.2733,-0.2506,-0.2678,-0.272,-0.2702,-0.2597,-0.2721,-0.2834,-0.2896,-0.2516,-0.2354,-0.2548,-0.2814,-0.296,-0.2602,-0.225,-0.2223,-0.2671,-0.2537,-0.2357,-0.2755,-0.3678,-0.4549,-0.4705,-0.4769,-0.47,-0.5254,-0.5915,-0.6477,-0.8223,-0.857,-0.8931,-0.9659,-1.0013,-1.0155,-1.0242,-1.0239,-1.0228,-1.0271,-1.0233,-1.0232,-1.0271,-1.0247,-1.0198,-1.0188,-1.018,-1.018,0.9984,0.9,0.8749,0.8241,0.754,0.708,0.6764,0.6674,0.8311,0.8893,0.8684,0.8508,0.785,0.6798,0.5544,0.4595,0.3844,0.3159,0.2581,0.2096,0.2333,0.2717,0.3309,0.3621,0.4188,0.492,0.5111,0.5224,0.5256,0.5384,0.5366,0.5273,0.5379,0.5643,0.6025,0.6483,0.6954,0.7462,0.9358,1.0572,1.1117,1.2066,1.2662,1.2898,1.2267,1.211,1.2404,1.2217,1.1828,1.1139,0.9467,0.8086,0.7033,0.5371,0.4256,0.3902,0.3487,0.3006,0.2452,0.1737,0.0847,-0.0154,-0.0428,-0.0924,-0.1844,-0.181,-0.1788,-0.1938,-0.1895,-0.1954,-0.2239,-0.238,-0.2471,-0.2559,-0.2721,-0.2863,-0.2957,-0.2604,-0.2512,-0.2984,-0.25,-0.2421,-0.2888,-0.2721,-0.2731,-0.3203,-0.2888,-0.2522,-0.2651,-0.4235,-0.5367,-0.5538,-0.7133,-0.8116,-0.7718,-0.8551,-0.8997,-0.9558,-0.9639,-0.9701,-0.9923,-1.0093,-1.0193,-1.0205,-1.0217,-1.0202,-1.0225,-1.02,-1.0211,-1.0217,-1.0209,-1.0195,-1.0127,-1.0119,-1.0115,1.0384,0.9202,0.872,0.8019,0.7159,0.6297,0.5921,0.6014,0.6529,0.7068,0.7434,0.7128,0.6639,0.5975,0.4955,0.4127,0.3578,0.337,0.3059,0.2759,0.3309,0.3753,0.4093,0.4722,0.5288,0.5748,0.6092,0.6226,0.6203,0.608,0.5989,0.6031,0.6299,0.6597,0.6833,0.7318,0.7808,0.8293,0.8788,0.9315,0.9872,1.0619,1.1089,1.1295,1.1095,1.1049,1.1138,1.1219,1.1091,1.0725,0.9511,0.8329,0.7297,0.5909,0.4748,0.3854,0.3389,0.289,0.2318,0.1471,0.0707,0.0088,0.0044,-0.0193,-0.0734,-0.1147,-0.1367,-0.1432,-0.1512,-0.166,-0.1806,-0.2005,-0.1983,-0.1582,-0.2152,-0.2339,-0.188,-0.1919,-0.208,-0.2359,-0.2133,-0.2071,-0.2471,-0.2791,-0.305,-0.3352,-0.2913,-0.2498,-0.2538,-0.531,-0.704,-0.622,-0.7588,-0.8591,-0.8418,-0.8989,-0.9609,-0.9898,-1.0017,-1.0049,-1.0059,-1.0163,-1.0207,-1.0189,-1.0201,-1.0187,-1.0183,-1.0191,-1.02,-1.0198,-1.0157,-1.0128,-1.011,-1.0046,-1.0039,1.077,0.9399,0.8684,0.7732,0.6609,0.5626,0.5244,0.5338,0.5106,0.5469,0.6122,0.5846,0.5616,0.5435,0.4593,0.4091,0.3925,0.3972,0.3886,0.3772,0.4317,0.4643,0.4843,0.5585,0.6132,0.644,0.6816,0.7047,0.7071,0.6791,0.6629,0.6737,0.7105,0.7338,0.7486,0.8032,0.8586,0.9069,0.8522,0.8415,0.8816,0.9112,0.9367,0.9591,0.9775,0.9882,1.0015,1.0125,1.0175,1.0146,0.9369,0.8515,0.7685,0.6882,0.5906,0.4782,0.4141,0.3322,0.2268,0.1405,0.0818,0.0623,0.0586,0.0544,0.0387,-0.0306,-0.0882,-0.1049,-0.1233,-0.1378,-0.141,-0.1299,-0.121,-0.0956,-0.1374,-0.1486,-0.0944,-0.1202,-0.1564,-0.1726,-0.1895,-0.1926,-0.1933,-0.247,-0.3008,-0.3156,-0.2823,-0.2749,-0.403,-0.7049,-0.833,-0.7961,-0.8587,-0.9632,-0.9293,-0.9476,-1.0008,-1.0396,-1.044,-1.0592,-1.0656,-1.0668,-1.0503,-1.052,-1.028,-1.0183,-1.0172,-1.0151,-1.0119,-1.0096,-1.0082,-1.003,-0.9997,-0.9933,-1.0041,1.0799,0.9527,0.8518,0.7046,0.5557,0.5042,0.4722,0.4469,0.4632,0.4808,0.4938,0.4778,0.4966,0.5105,0.4535,0.4544,0.5033,0.496,0.4947,0.5019,0.5004,0.5182,0.5591,0.5755,0.617,0.678,0.6999,0.7255,0.752,0.755,0.7414,0.7107,0.7236,0.7325,0.7406,0.8003,0.8483,0.8757,0.8969,0.9223,0.9463,0.9201,0.9126,0.9312,0.951,0.9661,0.9793,0.9982,1.0109,1.0042,0.9402,0.8862,0.8667,0.8459,0.8138,0.7637,0.6614,0.494,0.2529,0.1782,0.1575,0.1245,0.1308,0.1263,0.1028,0.0636,0.0098,-0.0474,-0.0819,-0.1016,-0.1129,-0.037,-0.0289,-0.1041,-0.0485,-0.0192,-0.094,-0.1168,-0.1322,-0.1994,-0.2043,-0.1968,-0.1609,-0.1681,-0.2263,-0.337,-0.3195,-0.4021,-0.6924,-0.9011,-1.0213,-1.0147,-1.1554,-1.2363,-1.1745,-1.121,-1.1248,-1.1786,-1.1542,-1.1526,-1.1814,-1.1644,-1.1285,-1.1015,-1.054,-1.0098,-1.0055,-1.0015,-0.9938,-0.9953,-0.993,-0.9887,-0.9799,-0.9767,-1.0031,1.0946,0.995,0.9017,0.7576,0.5881,0.5449,0.5079,0.4813,0.4727,0.4688,0.4726,0.4931,0.5187,0.5451,0.4959,0.4934,0.5261,0.5636,0.5695,0.5606,0.5998,0.6277,0.6378,0.6631,0.701,0.7403,0.754,0.7676,0.7801,0.7744,0.7742,0.7869,0.8067,0.8212,0.835,0.8936,0.9478,0.9904,0.9778,0.9908,1.0225,0.9624,0.9174,0.9095,0.9242,0.9661,1.0188,1.0508,1.0923,1.1378,1.1208,1.0834,1.0308,1.0228,0.9806,0.8928,0.8116,0.6638,0.4328,0.4916,0.4869,0.3717,0.3418,0.3617,0.435,0.2402,0.0799,0.0458,-0.0139,-0.0597,-0.0632,-0.0437,-0.0144,0.0253,0.0708,0.0833,0.0839,0.0282,-0.0383,-0.1235,-0.173,-0.2044,-0.1931,-0.0865,-0.134,-0.3422,-0.4192,-0.5623,-0.8214,-1.0098,-1.0918,-1.0955,-1.2406,-1.3065,-1.2266,-1.2188,-1.2234,-1.2247,-1.2123,-1.2209,-1.2453,-1.1992,-1.1402,-1.1404,-1.0583,-1.003,-0.9962,-0.9911,-0.983,-0.9806,-0.9787,-0.9812,-1.0163,-0.9873,-0.9979,1.0925,1.0209,0.9189,0.7772,0.6189,0.5664,0.5426,0.5323,0.5192,0.5242,0.5428,0.5951,0.6398,0.6631,0.6032,0.5809,0.5998,0.6523,0.6668,0.6471,0.7011,0.7187,0.7127,0.7392,0.7627,0.7792,0.7859,0.7917,0.7917,0.7879,0.8004,0.8375,0.8745,0.8965,0.9112,0.9646,1.0148,1.0592,1.0336,1.0377,1.0579,1.0093,0.9633,0.9363,0.9342,0.9799,1.0783,1.1102,1.1569,1.2299,1.244,1.2237,1.1701,1.1836,1.1455,1.0353,0.9787,0.8666,0.6697,0.7575,0.7606,0.6354,0.5885,0.603,0.6339,0.475,0.332,0.2872,0.1927,0.1363,0.0858,0.1032,0.1687,0.2595,0.2341,0.2356,0.2841,0.2058,0.0992,-0.0127,-0.059,-0.1169,-0.1394,-0.0183,-0.0241,-0.3764,-0.6446,-0.8005,-0.958,-1.0965,-1.1359,-1.1511,-1.2848,-1.3192,-1.2464,-1.2442,-1.2737,-1.2901,-1.2806,-1.2796,-1.302,-1.2429,-1.167,-1.1708,-1.066,-0.9959,-0.98,-0.9743,-0.9631,-0.9624,-0.9577,-0.9588,-0.9812,-0.9571,-0.9616,1.0687,1.006,0.86,0.7349,0.6189,0.5585,0.5419,0.5794,0.6082,0.653,0.7138,0.7944,0.871,0.9084,0.7876,0.7505,0.7743,0.7794,0.7931,0.8056,0.7812,0.7686,0.7869,0.7879,0.7889,0.791,0.7889,0.787,0.7812,0.8025,0.8187,0.8293,0.8916,0.9247,0.9328,0.9698,1.0021,1.0322,1.0503,1.0542,1.0399,1.0518,1.0492,1.0352,0.994,1.0203,1.1207,1.1487,1.1794,1.2209,1.2365,1.2406,1.2513,1.3226,1.3198,1.2375,1.2022,1.1065,0.9369,0.9054,0.8836,0.8625,0.8381,0.788,0.7595,0.7873,0.7788,0.7015,0.6044,0.5151,0.4464,0.5455,0.5759,0.5094,0.4637,0.4688,0.4909,0.4186,0.2811,0.1558,0.091,0.062,0.0689,0.1045,-0.0401,-0.4252,-0.963,-1.344,-1.2865,-1.2028,-1.1712,-1.2411,-1.2984,-1.3192,-1.3171,-1.2979,-1.3139,-1.3352,-1.3365,-1.3498,-1.3712,-1.3656,-1.281,-1.188,-1.0703,-0.9939,-0.9665,-0.9478,-0.9332,-0.926,-0.9223,-0.9264,-0.9284,-0.9237,-0.9275,0.9587,0.8964,0.8407,0.7761,0.718,0.7143,0.7272,0.7461,0.761,0.7943,0.8406,0.9067,0.9408,0.9476,0.9609,0.9422,0.9087,0.934,0.9383,0.9224,0.914,0.912,0.9025,0.8807,0.865,0.8619,0.8427,0.8466,0.8679,0.84,0.8487,0.8919,0.8985,0.9128,0.9422,0.9738,1.0046,1.0285,1.0409,1.0487,1.0528,1.0398,1.0523,1.0947,1.0455,1.0571,1.1494,1.1824,1.2367,1.325,1.3293,1.3449,1.3894,1.428,1.4389,1.4101,1.4025,1.3145,1.1599,1.2202,1.2218,1.1085,1.0774,1.1178,1.1717,1.0877,0.9954,1.0282,1.024,0.9555,0.9095,1.0003,0.9998,0.8122,0.8564,0.8886,0.8306,0.6892,0.5265,0.3966,0.2206,0.0839,0.1809,0.1794,0.0255,-0.3536,-0.806,-1.1443,-1.3219,-1.2597,-1.1885,-1.2089,-1.1905,-1.1499,-1.1327,-1.2423,-1.3131,-1.3478,-1.3648,-1.3753,-1.3926,-1.337,-1.2562,-1.1706,-1.0592,-0.9824,-0.9508,-0.9007,-0.8894,-0.8824,-0.8784,-0.8736,-0.8639,-0.8757,-0.8828,0.8778,0.8193,0.8226,0.8062,0.7743,0.8182,0.8459,0.8647,0.8836,0.9131,0.9611,1.0221,1.0464,1.0547,1.1148,1.1151,1.0653,1.0498,1.0201,0.995,1.0015,1.0005,0.9929,0.9709,0.9495,0.9296,0.907,0.9152,0.9513,0.9191,0.9332,0.986,0.9689,0.9662,0.9873,1.0051,1.0262,1.0392,1.0365,1.0464,1.0744,1.0486,1.0532,1.0951,1.0757,1.0986,1.1857,1.214,1.2734,1.3579,1.369,1.3961,1.4503,1.4709,1.4855,1.4941,1.4993,1.4567,1.3534,1.4359,1.4503,1.3353,1.3296,1.4029,1.5045,1.3741,1.3411,1.374,1.3941,1.367,1.333,1.3577,1.2915,1.084,1.1118,1.151,1.1097,0.9473,0.8057,0.6705,0.4127,0.3022,0.3443,0.1672,-0.0591,-0.3235,-0.6928,-1.0656,-1.2444,-1.2347,-1.1605,-1.1228,-1.054,-1.0194,-1.014,-1.0937,-1.1812,-1.2233,-1.2938,-1.3313,-1.3412,-1.2843,-1.2228,-1.143,-1.0627,-0.9846,-0.9208,-0.8674,-0.8441,-0.8348,-0.8341,-0.83,-0.8311,-0.8374,-0.8406,0.8399,0.7881,0.816,0.824,0.807,0.8593,0.8815,0.9208,0.9685,1.0227,1.0818,1.1509,1.1852,1.2269,1.2269,1.2449,1.2283,1.1206,1.0625,1.0608,1.0508,1.053,1.0671,1.0546,1.0186,0.9701,0.9645,0.9787,1.0102,1.0237,1.0458,1.0783,1.096,1.0814,1.0606,1.0678,1.0706,1.0689,1.0547,1.0638,1.1017,1.0881,1.0802,1.0865,1.0934,1.1439,1.2447,1.2447,1.2687,1.3227,1.3341,1.3649,1.4192,1.4483,1.4663,1.478,1.4907,1.5027,1.5048,1.5048,1.5184,1.5048,1.5753,1.5722,1.5583,1.6832,1.7537,1.682,1.6758,1.6953,1.659,1.5634,1.451,1.3577,1.2187,1.1627,1.2243,1.183,1.0823,0.9405,0.7131,0.6542,0.6268,0.2751,-0.1325,-0.2994,-0.6953,-1.0676,-1.1268,-1.075,-1.0261,-0.9739,-0.9001,-0.8432,-0.8846,-0.9392,-1.0077,-1.0764,-1.1596,-1.2189,-1.2265,-1.192,-1.1471,-1.0732,-0.9872,-0.9103,-0.8623,-0.8129,-0.7855,-0.7768,-0.7826,-0.7847,-0.7837,-0.7857,-0.796,0.8475,0.8491,0.9269,0.9546,0.956,1.0676,1.1025,1.0784,1.1253,1.1713,1.2009,1.2031,1.2456,1.2873,1.2545,1.2654,1.3209,1.2476,1.2184,1.2255,1.2257,1.2233,1.2141,1.14,1.0443,0.9719,0.9776,0.999,1.0227,1.0322,1.0614,1.1148,1.1149,1.1186,1.1278,1.1312,1.1312,1.1316,1.1235,1.1305,1.1432,1.1536,1.1584,1.1612,1.1764,1.2215,1.2819,1.2298,1.2133,1.2485,1.2657,1.3073,1.3701,1.4167,1.4419,1.4529,1.4707,1.484,1.5009,1.5517,1.5837,1.6034,1.6678,1.7289,1.7472,1.8258,1.8714,1.8254,1.7844,1.7331,1.6662,1.5754,1.5233,1.5475,1.4579,1.4145,1.4851,1.3953,1.243,1.1107,1.0352,1.0097,0.8947,0.4654,0.1075,-0.133,-0.5335,-0.8408,-0.8983,-0.841,-0.7599,-0.736,-0.6848,-0.6568,-0.6857,-0.7308,-0.7983,-0.8969,-0.999,-1.0884,-1.1028,-1.0994,-1.0547,-0.9889,-0.9043,-0.8429,-0.7967,-0.7648,-0.7351,-0.7293,-0.7385,-0.7347,-0.7242,-0.729,-0.7458,0.881,0.9167,1.0094,1.0498,1.0634,1.2035,1.2419,1.2129,1.2529,1.2844,1.2963,1.2877,1.3128,1.3495,1.307,1.319,1.3749,1.3455,1.3369,1.3511,1.3482,1.338,1.3156,1.2288,1.1326,1.0658,1.0862,1.1099,1.1129,1.116,1.1454,1.189,1.1853,1.1824,1.1927,1.1889,1.1977,1.2115,1.1801,1.1889,1.2304,1.2073,1.1947,1.2118,1.2099,1.2298,1.2706,1.2302,1.2308,1.2748,1.3147,1.3639,1.4195,1.4399,1.4453,1.4583,1.4561,1.4643,1.508,1.5592,1.6157,1.6474,1.7254,1.7922,1.8526,1.8892,1.9266,1.9196,1.8577,1.7722,1.6954,1.6361,1.6226,1.6587,1.6029,1.6152,1.6499,1.5496,1.4256,1.3184,1.2591,1.1965,1.048,0.6833,0.3535,0.0352,-0.3168,-0.5883,-0.6406,-0.6026,-0.5524,-0.5176,-0.4898,-0.4753,-0.4722,-0.5222,-0.5838,-0.7064,-0.8319,-0.9231,-0.9821,-0.9765,-0.9487,-0.8562,-0.7684,-0.7424,-0.6999,-0.6943,-0.675,-0.6841,-0.6845,-0.6747,-0.6657,-0.6828,-0.6968,0.9468,0.9831,1.0723,1.1189,1.1407,1.2658,1.3112,1.3043,1.3451,1.3609,1.3668,1.3703,1.3929,1.404,1.3789,1.3813,1.4134,1.3882,1.3848,1.3964,1.3914,1.3651,1.3078,1.264,1.2204,1.2039,1.2389,1.2663,1.259,1.2627,1.2911,1.3007,1.3101,1.2992,1.2772,1.2592,1.2893,1.3144,1.2416,1.2751,1.3883,1.2751,1.2159,1.2637,1.2367,1.239,1.2729,1.3067,1.3446,1.4065,1.4422,1.4829,1.5244,1.4962,1.4829,1.507,1.4549,1.4869,1.5387,1.584,1.6132,1.6885,1.7656,1.8139,1.8521,1.9181,1.9665,1.9734,1.9059,1.8345,1.7725,1.7272,1.7179,1.7089,1.6771,1.6701,1.6821,1.6247,1.5668,1.5312,1.4192,1.2853,1.2084,0.7428,0.4197,0.2154,-0.1056,-0.3417,-0.3922,-0.3665,-0.3424,-0.3145,-0.2879,-0.3083,-0.3115,-0.3844,-0.4483,-0.5291,-0.6498,-0.7422,-0.8327,-0.8386,-0.8123,-0.722,-0.6741,-0.644,-0.6122,-0.6012,-0.6041,-0.6103,-0.6088,-0.6049,-0.6074,-0.6138,-0.6267,1.0573,1.1411,1.2073,1.2553,1.3059,1.4083,1.4087,1.3572,1.3987,1.4178,1.4151,1.3836,1.4124,1.4656,1.3704,1.3676,1.4138,1.374,1.3725,1.4122,1.4158,1.3477,1.2598,1.2091,1.2091,1.2276,1.2529,1.2782,1.3404,1.3489,1.3718,1.416,1.4137,1.4225,1.4237,1.4124,1.4287,1.4412,1.4199,1.4148,1.45,1.4286,1.4123,1.4198,1.412,1.4189,1.4487,1.5009,1.4943,1.4444,1.4842,1.5267,1.5632,1.5526,1.5519,1.5731,1.5674,1.5617,1.6031,1.6671,1.7225,1.7569,1.8252,1.8996,1.9261,1.9383,1.9638,1.9594,1.895,1.8328,1.805,1.7508,1.7349,1.7711,1.7679,1.7636,1.7495,1.7238,1.6959,1.6651,1.5575,1.4572,1.2765,0.9384,0.5461,0.419,0.1534,-0.1382,-0.1284,-0.1237,-0.0968,-0.101,-0.0952,-0.1316,-0.1744,-0.2475,-0.3167,-0.375,-0.464,-0.5486,-0.6348,-0.6928,-0.649,-0.5825,-0.6052,-0.5889,-0.5318,-0.4955,-0.5079,-0.5355,-0.5075,-0.4965,-0.5025,-0.509,-0.5328,1.1715,1.2706,1.3236,1.3657,1.4014,1.4756,1.4763,1.4362,1.4534,1.4695,1.457,1.4168,1.4249,1.4631,1.3794,1.3647,1.41,1.3563,1.3512,1.3695,1.3465,1.3035,1.2569,1.2347,1.247,1.2572,1.2957,1.346,1.3922,1.4078,1.4317,1.4568,1.4722,1.4838,1.4789,1.4916,1.5015,1.5155,1.504,1.5053,1.5505,1.513,1.5079,1.5195,1.5312,1.5465,1.5712,1.6127,1.5999,1.5589,1.5748,1.6111,1.6391,1.6191,1.6172,1.6366,1.6128,1.6044,1.657,1.717,1.7665,1.8055,1.8662,1.8925,1.9125,1.9178,1.9253,1.936,1.8915,1.8587,1.8175,1.7605,1.753,1.7909,1.8215,1.8282,1.8128,1.7665,1.7418,1.7056,1.6202,1.4829,1.3819,1.0137,0.7777,0.5813,0.374,0.2167,0.1513,0.1474,0.1296,0.1072,0.041,-0.0241,-0.0836,-0.1539,-0.1976,-0.2552,-0.294,-0.3728,-0.4579,-0.5315,-0.5107,-0.4825,-0.518,-0.5203,-0.4508,-0.4153,-0.4505,-0.4552,-0.4132,-0.3995,-0.4138,-0.424,-0.4463,1.2706,1.3716,1.4186,1.4419,1.4536,1.4937,1.5073,1.5073,1.496,1.4926,1.4824,1.449,1.4239,1.428,1.3674,1.36,1.361,1.311,1.314,1.3032,1.2805,1.2613,1.2929,1.2845,1.3033,1.313,1.3869,1.4182,1.4399,1.4607,1.4655,1.4752,1.4876,1.5012,1.507,1.4995,1.5249,1.5577,1.5296,1.5524,1.607,1.5683,1.5507,1.5777,1.5981,1.6203,1.6452,1.6633,1.6622,1.6691,1.693,1.7101,1.7363,1.6965,1.693,1.6905,1.6697,1.6661,1.7107,1.7391,1.7661,1.8375,1.8502,1.8596,1.8822,1.8896,1.8842,1.9079,1.9146,1.876,1.8352,1.7799,1.7736,1.8025,1.8087,1.8258,1.8422,1.7908,1.7452,1.7583,1.6161,1.4298,1.2668,1.1001,0.9352,0.7488,0.5567,0.4387,0.3653,0.3315,0.3053,0.2774,0.1804,0.0581,0.0,-0.0633,-0.0978,-0.1356,-0.1537,-0.2139,-0.306,-0.363,-0.3635,-0.3689,-0.3972,-0.3868,-0.3443,-0.3429,-0.3834,-0.3731,-0.3316,-0.3341,-0.3464,-0.3546,-0.3699,1.3246,1.4244,1.4326,1.4605,1.4926,1.5062,1.5119,1.5062,1.4697,1.4558,1.4419,1.3999,1.3752,1.3705,1.3016,1.2706,1.2618,1.2138,1.19,1.2403,1.2706,1.2792,1.2768,1.2494,1.2827,1.3482,1.3416,1.3928,1.4693,1.4998,1.5005,1.4815,1.5167,1.5495,1.5489,1.5203,1.55,1.6083,1.5819,1.5844,1.6341,1.6338,1.6271,1.6468,1.6729,1.7208,1.7499,1.7287,1.7166,1.7318,1.7423,1.7535,1.7626,1.7926,1.8098,1.8143,1.816,1.8143,1.8291,1.8068,1.816,1.8832,1.8606,1.858,1.9482,1.8792,1.8603,1.8699,1.8662,1.8556,1.836,1.8322,1.8104,1.7996,1.7902,1.789,1.8104,1.8176,1.806,1.7694,1.662,1.5327,1.4396,1.1817,1.0204,0.888,0.7652,0.6341,0.5685,0.5193,0.4693,0.4282,0.2864,0.1674,0.1347,0.0703,0.0239,-0.0119,-0.0308,-0.06,-0.1499,-0.2166,-0.2299,-0.2455,-0.2685,-0.2557,-0.2554,-0.2688,-0.3098,-0.2802,-0.2557,-0.2599,-0.2661,-0.2782,-0.3131,1.4014,1.4697,1.4743,1.488,1.5062,1.5119,1.4971,1.4743,1.4523,1.4129,1.3579,1.3102,1.2764,1.2511,1.1981,1.1692,1.1692,1.1451,1.156,1.2067,1.2412,1.2618,1.2842,1.2528,1.2872,1.382,1.3882,1.4337,1.5028,1.5344,1.5339,1.5194,1.532,1.5332,1.5459,1.521,1.5344,1.57,1.5844,1.5932,1.6151,1.6479,1.6778,1.6915,1.7141,1.7409,1.7841,1.7762,1.7791,1.8003,1.8042,1.7862,1.7852,1.8551,1.8884,1.8413,1.8704,1.8757,1.8687,1.8616,1.875,1.9525,1.8961,1.8996,1.9171,1.8683,1.8363,1.8413,1.8395,1.8338,1.8169,1.811,1.7984,1.7815,1.7726,1.7715,1.7732,1.7854,1.8048,1.7831,1.6823,1.5951,1.4577,1.2722,1.1546,1.0449,0.9616,0.8389,0.7568,0.7027,0.6117,0.5293,0.3813,0.2835,0.2622,0.2131,0.1508,0.1155,0.0879,0.0622,0.0075,-0.0531,-0.1035,-0.1401,-0.1835,-0.2103,-0.2137,-0.2272,-0.2206,-0.2001,-0.1849,-0.1779,-0.1887,-0.2169,-0.2616,1.4651,1.5119,1.5119,1.5119,1.5108,1.5017,1.4731,1.4419,1.4233,1.3627,1.288,1.2267,1.208,1.1633,1.1301,1.1116,1.1167,1.1418,1.1719,1.2076,1.2323,1.2578,1.2842,1.2996,1.3185,1.3658,1.4007,1.463,1.5096,1.5389,1.5219,1.5325,1.5151,1.4971,1.4982,1.4879,1.4971,1.5244,1.5501,1.5712,1.592,1.6281,1.6808,1.7192,1.721,1.7509,1.7927,1.8017,1.8172,1.867,1.8684,1.8282,1.8219,1.884,1.9399,1.8012,1.8766,1.9125,1.9168,1.906,1.9286,2.0145,1.9593,1.9328,1.929,1.8956,1.8562,1.8323,1.8301,1.8063,1.7755,1.7693,1.7569,1.7415,1.7489,1.7505,1.7422,1.7344,1.7614,1.7752,1.6968,1.6114,1.531,1.3941,1.3025,1.2053,1.1209,1.0364,0.9483,0.8507,0.746,0.6453,0.4993,0.3922,0.3621,0.3413,0.2802,0.2373,0.2097,0.1731,0.1414,0.0877,0.0181,-0.0643,-0.1104,-0.1375,-0.1542,-0.1573,-0.1442,-0.1212,-0.1171,-0.1185,-0.1379,-0.1623,-0.2133,1.4697,1.5119,1.5119,1.5119,1.5028,1.4697,1.4477,1.4222,1.3505,1.3054,1.2861,1.2442,1.2215,1.2107,1.1868,1.1519,1.1309,1.1519,1.1918,1.2224,1.2471,1.2822,1.3104,1.3467,1.3695,1.3732,1.405,1.4422,1.4801,1.4937,1.4778,1.419,1.4305,1.4485,1.4399,1.4168,1.4373,1.488,1.5187,1.54,1.58,1.6337,1.682,1.7338,1.733,1.7809,1.8252,1.8136,1.813,1.8694,1.8923,1.8734,1.8588,1.924,1.9429,1.9292,1.9467,1.9735,1.9792,1.9619,1.9903,2.025,1.9977,2.0006,2.0166,1.9805,1.9102,1.8707,1.8268,1.7861,1.7776,1.7545,1.7264,1.7092,1.7034,1.7142,1.7335,1.7399,1.7344,1.7482,1.6868,1.6275,1.554,1.4803,1.3825,1.2812,1.1924,1.1115,1.0313,0.93,0.8257,0.7259,0.6264,0.5317,0.4612,0.4371,0.4026,0.3609,0.3233,0.2774,0.2445,0.2043,0.1375,0.0435,-0.024,-0.0645,-0.0745,-0.0844,-0.0974,-0.0976,-0.0839,-0.0636,-0.0854,-0.1126,-0.1782,1.488,1.5119,1.5119,1.4971,1.4697,1.4512,1.4082,1.3647,1.3112,1.2677,1.2286,1.2008,1.1859,1.1701,1.1543,1.1342,1.1401,1.146,1.1959,1.2403,1.2745,1.3218,1.3658,1.4061,1.4411,1.463,1.4767,1.4709,1.4801,1.496,1.4571,1.4136,1.4039,1.3994,1.3942,1.3794,1.3915,1.4419,1.4823,1.5232,1.5534,1.6219,1.6735,1.6976,1.7434,1.7908,1.8249,1.8682,1.884,1.9236,1.9301,1.9228,1.9275,1.9359,1.9505,1.9327,1.9654,2.0029,2.015,2.0016,2.0324,2.1052,2.0588,2.0384,2.0462,1.9992,1.9442,1.9151,1.8754,1.8192,1.7964,1.7461,1.7059,1.6908,1.6831,1.7027,1.7327,1.7439,1.7408,1.7313,1.7042,1.6597,1.6013,1.5254,1.4429,1.3538,1.2645,1.1823,1.1004,1.005,0.894,0.7998,0.7064,0.6149,0.5432,0.5125,0.4909,0.4608,0.4232,0.375,0.332,0.2885,0.22,0.1359,0.0798,0.0212,-0.0173,-0.0347,-0.0547,-0.0641,-0.0304,-0.0101,-0.0336,-0.0701,-0.1268,1.4926,1.4777,1.4789,1.4593,1.4291,1.4129,1.3695,1.3112,1.2929,1.254,1.1909,1.1859,1.1751,1.1484,1.1484,1.1534,1.1642,1.1792,1.2374,1.3044,1.3283,1.3747,1.4329,1.4879,1.5188,1.5611,1.5915,1.5572,1.5085,1.5154,1.4937,1.4496,1.401,1.41,1.419,1.4339,1.4053,1.4331,1.4731,1.5232,1.5546,1.6076,1.6534,1.6565,1.7256,1.7747,1.8039,1.8598,1.9111,1.9426,1.9492,1.9485,1.9702,1.969,1.9371,1.9027,1.9452,1.9909,2.0254,2.0453,2.0798,2.142,2.113,2.0871,2.0582,2.0152,1.9607,1.959,1.9328,1.8766,1.8153,1.755,1.7164,1.6903,1.6885,1.6993,1.7337,1.7496,1.7472,1.7401,1.7288,1.6885,1.6262,1.5505,1.4645,1.3813,1.2917,1.2106,1.1335,1.0619,0.9635,0.8696,0.7736,0.6875,0.6204,0.5819,0.5577,0.5256,0.4875,0.4475,0.4061,0.3622,0.3013,0.2471,0.1628,0.1058,0.0624,0.0251,0.0142,0.0176,0.0414,0.0441,0.0303,-0.0034,-0.0572,1.4222,1.381,1.38,1.381,1.3763,1.3399,1.3208,1.3122,1.2754,1.2627,1.2471,1.252,1.252,1.252,1.2569,1.2852,1.3084,1.3112,1.3389,1.3993,1.4222,1.4499,1.4902,1.5765,1.6149,1.652,1.6921,1.6312,1.5659,1.5637,1.5272,1.4729,1.5252,1.5592,1.5427,1.5411,1.5622,1.56,1.5657,1.5888,1.6207,1.6436,1.6491,1.665,1.7018,1.7517,1.7879,1.8405,1.8846,1.9213,1.9362,1.9413,1.9472,1.9617,1.966,1.9672,1.9932,2.0304,2.0589,2.0767,2.1035,2.1339,2.1209,2.1069,2.0733,2.0559,2.0266,2.0262,1.9974,1.9436,1.8673,1.8205,1.7736,1.7441,1.7309,1.7337,1.7494,1.7922,1.7856,1.7379,1.7268,1.6937,1.6432,1.5636,1.4819,1.403,1.3225,1.2401,1.1616,1.0819,1.005,0.9044,0.8407,0.7551,0.693,0.655,0.6204,0.5937,0.558,0.5181,0.4693,0.4315,0.4278,0.3665,0.2774,0.1935,0.1498,0.1155,0.0978,0.0993,0.1157,0.1119,0.1012,0.0575,0.0104,1.3999,1.4035,1.3716,1.3467,1.3218,1.2967,1.2832,1.2754,1.2569,1.2627,1.2774,1.2832,1.2822,1.2929,1.2891,1.2978,1.3248,1.3515,1.3884,1.4578,1.5037,1.558,1.616,1.6844,1.7311,1.7429,1.7594,1.7439,1.668,1.6256,1.5948,1.5825,1.6098,1.6311,1.6446,1.6394,1.6132,1.5951,1.5863,1.6032,1.6392,1.6534,1.6534,1.6534,1.6989,1.7394,1.78,1.8249,1.8669,1.9064,1.925,1.9339,1.9376,1.9523,1.9632,1.9654,1.9767,2.007,2.0379,2.0597,2.0877,2.1151,2.1119,2.0861,2.0699,2.0782,2.0835,2.0744,2.0565,2.0113,1.9465,1.9105,1.8724,1.8361,1.8085,1.816,1.8228,1.8253,1.8324,1.7749,1.7209,1.6819,1.637,1.5535,1.4724,1.396,1.3238,1.2555,1.1726,1.0954,1.0137,0.931,0.8748,0.8226,0.769,0.7189,0.6921,0.6619,0.6343,0.5876,0.528,0.4986,0.5043,0.456,0.3609,0.2896,0.2391,0.1905,0.1519,0.1687,0.1895,0.1697,0.1515,0.1142,0.0337,1.3658,1.3988,1.3478,1.3084,1.2725,1.2725,1.2754,1.2627,1.2627,1.2725,1.2871,1.3017,1.3162,1.3248,1.3344,1.3488,1.3573,1.381,1.4258,1.497,1.573,1.6441,1.7008,1.7694,1.8188,1.8405,1.8309,1.8226,1.8019,1.7545,1.7205,1.6922,1.7248,1.7326,1.7287,1.729,1.7109,1.6443,1.6336,1.6392,1.6473,1.6534,1.6534,1.665,1.6934,1.7393,1.7773,1.8252,1.8707,1.9064,1.9213,1.9302,1.9376,1.9487,1.9611,1.9632,1.9726,1.9818,2.005,2.0243,2.0481,2.0697,2.0745,2.0444,2.0462,2.0861,2.1071,2.075,2.0854,2.0597,2.0274,1.9715,1.9442,1.9214,1.9127,1.9246,1.9239,1.9014,1.8566,1.7885,1.7324,1.6693,1.6144,1.5372,1.4596,1.3901,1.3263,1.265,1.1906,1.1082,1.038,0.9603,0.909,0.8643,0.8149,0.7734,0.7497,0.7283,0.7002,0.6793,0.6328,0.6019,0.5945,0.5261,0.4479,0.4252,0.398,0.3003,0.2096,0.2319,0.2418,0.2163,0.1915,0.1473,0.0282,1.2957,1.3064,1.2657,1.252,1.2569,1.2627,1.2774,1.2871,1.292,1.2929,1.3065,1.3334,1.3705,1.4025,1.4025,1.4269,1.4823,1.496,1.5256,1.5783,1.6478,1.6959,1.7525,1.8141,1.8722,1.8858,1.8858,1.9108,1.9296,1.8734,1.8103,1.7606,1.8259,1.8654,1.8712,1.8448,1.8068,1.7427,1.7206,1.694,1.6767,1.6647,1.6597,1.6658,1.696,1.7381,1.7783,1.8182,1.8655,1.9049,1.925,1.9325,1.9376,1.9523,1.9632,1.9654,1.9705,1.9762,1.9854,2.0015,2.0174,2.0189,2.012,2.005,2.0154,2.0296,2.0398,2.0563,2.0783,2.0637,2.0284,1.9978,2.002,1.9943,1.9866,1.9776,1.969,1.937,1.8866,1.8084,1.7468,1.6931,1.623,1.5505,1.4735,1.4013,1.3116,1.2532,1.1982,1.1236,1.0635,1.0005,0.9484,0.8955,0.8419,0.8119,0.8034,0.7795,0.7477,0.7629,0.7636,0.7332,0.6476,0.6287,0.5606,0.5579,0.536,0.4308,0.3487,0.3124,0.2903,0.2721,0.1618,0.059,-0.0771,1.3246,1.3016,1.3314,1.3094,1.2529,1.2852,1.3094,1.3238,1.3573,1.3705,1.3705,1.3705,1.3884,1.4165,1.3988,1.4118,1.4684,1.5371,1.5695,1.6338,1.7003,1.7739,1.8216,1.8622,1.9216,1.9255,1.9267,1.9292,1.9401,1.9403,1.9216,1.8998,1.927,1.9377,1.9407,1.9183,1.8733,1.8455,1.8053,1.7739,1.7601,1.7187,1.7049,1.7081,1.6696,1.7186,1.7679,1.7907,1.8447,1.8936,1.9213,1.9339,1.9413,1.956,1.9654,1.969,1.9705,1.9705,1.9705,1.9818,1.9889,1.9945,1.9945,1.998,1.998,2.0104,2.0379,2.0613,2.0712,2.0606,2.097,2.0888,2.0805,2.0701,2.0508,2.0307,2.0076,1.9719,1.9357,1.8667,1.7929,1.7257,1.6473,1.5723,1.4938,1.4126,1.3248,1.2471,1.2114,1.1577,1.1065,1.0618,1.0109,0.9495,0.8952,0.8758,0.8602,0.8307,0.8051,0.8153,0.8242,0.723,0.6563,0.6618,0.669,0.637,0.5955,0.5396,0.4872,0.4381,0.3829,0.3334,0.1879,-0.0089,-0.1638,1.3627,1.3399,1.3789,1.36,1.3045,1.3218,1.3362,1.3467,1.3668,1.3941,1.4071,1.3988,1.4222,1.4398,1.4444,1.4633,1.5188,1.5626,1.6092,1.6717,1.7484,1.8213,1.8631,1.9025,1.9433,1.958,1.9679,1.9715,1.9998,1.9924,1.9924,1.9994,1.9992,1.9957,1.9659,1.9484,1.9196,1.8945,1.8706,1.8329,1.8166,1.784,1.7451,1.7388,1.7081,1.7111,1.7596,1.7868,1.8305,1.8784,1.9139,1.9339,1.945,1.9545,1.9654,1.969,1.9705,1.9705,1.969,1.9705,1.9705,1.9797,1.9889,1.9854,1.9854,1.9909,2.012,2.0342,2.0512,2.0778,2.1183,2.0927,2.0847,2.0671,2.0591,2.0416,2.0269,2.0007,1.9695,1.9275,1.8433,1.7455,1.6647,1.5841,1.5118,1.4387,1.3754,1.3176,1.3027,1.244,1.1643,1.1217,1.0786,1.0205,0.9565,0.9392,0.9243,0.9066,0.8803,0.8693,0.8412,0.7548,0.7328,0.7692,0.7624,0.7067,0.6599,0.6123,0.5823,0.5518,0.4465,0.3049,0.1357,-0.0574,-0.2086,1.3967,1.4071,1.3695,1.3789,1.4082,1.3763,1.361,1.3705,1.343,1.3525,1.3988,1.4593,1.4971,1.5119,1.5302,1.5683,1.6067,1.6099,1.6524,1.74,1.7724,1.8154,1.8619,1.9132,1.958,2.0151,2.0091,2.0196,2.0778,2.0477,2.0643,2.0588,2.0291,2.0129,1.9836,1.9798,1.9522,1.912,1.8983,1.8769,1.8493,1.8292,1.7965,1.7614,1.74,1.7396,1.74,1.7841,1.8266,1.8616,1.9101,1.9339,1.9428,1.9523,1.9617,1.969,1.969,1.969,1.969,1.969,1.9705,1.9705,1.9833,1.9747,1.9711,1.9747,1.9803,2.005,2.0085,2.0204,2.0342,2.0429,2.053,2.0579,2.0496,2.0345,2.0158,2.0035,1.9681,1.9244,1.8417,1.7565,1.6777,1.5994,1.526,1.4644,1.4118,1.3825,1.3599,1.3015,1.2111,1.1557,1.1159,1.0603,1.0066,0.9963,0.9856,0.9714,0.9462,0.9156,0.9177,0.8836,0.8753,0.8905,0.8466,0.7804,0.7339,0.6881,0.5917,0.4757,0.3506,0.2087,0.0453,-0.1112,-0.2693,1.4468,1.4571,1.4858,1.5096,1.5142,1.4398,1.4258,1.4593,1.4731,1.4926,1.5017,1.521,1.53,1.5563,1.581,1.6208,1.662,1.746,1.7846,1.7943,1.8181,1.857,1.8988,1.9356,1.9752,1.9964,2.0006,2.0285,2.0665,2.0649,2.039,2.0226,2.0128,1.985,1.9743,1.9733,1.957,1.9534,1.9535,1.9434,1.9221,1.8894,1.848,1.7953,1.7677,1.7409,1.7274,1.7828,1.8201,1.85,1.8974,1.9376,1.945,1.956,1.9654,1.9675,1.969,1.9654,1.9632,1.9647,1.9669,1.9669,1.969,1.9654,1.9632,1.9647,1.969,1.9732,1.9732,1.9909,2.0154,2.0104,2.0158,2.0204,2.0135,1.9929,1.9773,1.9696,1.9457,1.8898,1.8194,1.754,1.6797,1.6089,1.5369,1.4979,1.4518,1.3871,1.355,1.3052,1.2298,1.1751,1.1319,1.0844,1.0458,1.0111,0.9884,0.9619,0.9453,0.9299,0.937,0.9562,0.9452,0.9177,0.8854,0.8507,0.7463,0.6386,0.4931,0.3682,0.2308,0.1183,-0.0153,-0.18,-0.343,1.5028,1.513,1.5424,1.5659,1.5647,1.4915,1.472,1.4915,1.5334,1.5563,1.5521,1.5568,1.5788,1.6126,1.6374,1.6679,1.7195,1.758,1.8389,1.8449,1.8554,1.8839,1.917,1.9492,1.9794,2.0,2.0229,2.0483,2.0935,2.0742,2.0478,2.0149,1.9745,1.9728,1.9713,1.9641,1.9643,1.9697,1.9723,1.9736,1.9623,1.9409,1.9032,1.8455,1.7937,1.7397,1.745,1.7704,1.8121,1.8475,1.8898,1.9376,1.9487,1.9545,1.9654,1.9654,1.9457,1.9398,1.9302,1.9302,1.9288,1.9295,1.9493,1.956,1.9538,1.9538,1.9581,1.9603,1.9566,1.966,1.9788,1.9773,1.9823,1.9869,1.9603,1.9391,1.9281,1.9199,1.8974,1.8425,1.7935,1.7352,1.671,1.6201,1.5477,1.5223,1.4885,1.416,1.3427,1.2991,1.2402,1.1798,1.1283,1.0705,1.0277,0.9944,0.9717,0.9555,0.951,0.9451,0.9562,0.9725,0.9562,0.9302,0.879,0.8075,0.6972,0.5712,0.3932,0.234,0.0919,-0.0106,-0.0937,-0.2513,-0.4312,1.5614,1.5703,1.5334,1.5424,1.5659,1.5289,1.4869,1.449,1.496,1.5175,1.527,1.6173,1.6397,1.6699,1.7096,1.7507,1.7917,1.7712,1.828,1.8718,1.869,1.8915,1.9073,1.9327,1.977,2.0338,2.0665,2.0752,2.1356,2.1476,2.1068,2.0375,1.9987,1.9858,1.971,1.9654,1.9708,1.9747,1.9798,1.9798,1.9748,1.9736,1.9359,1.8832,1.8242,1.7735,1.7694,1.7929,1.8058,1.8347,1.8822,1.925,1.9487,1.9581,1.9596,1.9487,1.9139,1.8936,1.886,1.8874,1.8836,1.8936,1.9124,1.9288,1.9413,1.9428,1.9435,1.9493,1.9479,1.942,1.942,1.9479,1.9551,1.931,1.9011,1.886,1.8745,1.8567,1.8347,1.7909,1.7447,1.685,1.6207,1.5659,1.5379,1.4914,1.4519,1.3952,1.332,1.3091,1.2464,1.1657,1.1091,1.0557,1.0146,0.9777,0.9718,0.9614,0.9769,0.9821,0.988,0.9888,0.9777,0.9458,0.8626,0.7545,0.6072,0.4358,0.2589,0.0989,-0.0711,-0.1691,-0.2677,-0.3773,-0.5304,1.5671,1.5715,1.5614,1.5703,1.5748,1.5659,1.5525,1.5424,1.557,1.5751,1.6162,1.6073,1.6455,1.667,1.7183,1.7471,1.7857,1.8229,1.869,1.8871,1.8835,1.8931,1.91,1.9365,1.9775,2.0125,2.0454,2.0875,2.1343,2.1693,2.1307,2.0397,2.0183,1.9937,1.9812,1.9654,1.972,1.9747,1.9798,1.9798,1.9798,1.9798,1.9484,1.9008,1.8707,1.8179,1.7785,1.8057,1.808,1.8098,1.8542,1.895,1.9376,1.945,1.945,1.9413,1.9049,1.8784,1.863,1.8397,1.8319,1.8475,1.8669,1.8988,1.9191,1.9302,1.925,1.931,1.9347,1.9288,1.925,1.9288,1.9221,1.8921,1.8669,1.8528,1.8411,1.8175,1.7949,1.7447,1.6947,1.6423,1.578,1.5435,1.5153,1.4628,1.4097,1.3606,1.311,1.2803,1.2218,1.1384,1.0838,1.0198,0.9932,0.9614,0.9666,0.971,0.9925,1.019,1.03,1.03,1.0087,0.9169,0.7664,0.6269,0.4867,0.2925,0.0604,-0.1043,-0.269,-0.3531,-0.4429,-0.5366,-0.5977,1.5715,1.576,1.5792,1.5792,1.5792,1.5792,1.5792,1.5828,1.6008,1.65,1.7159,1.6967,1.7051,1.7579,1.7965,1.8121,1.8181,1.8614,1.9004,1.9004,1.8987,1.9028,1.9143,1.9348,1.972,2.0033,2.043,2.0875,2.1222,2.1039,2.0653,2.0989,2.0447,2.0081,2.0005,1.9895,1.9708,1.9798,1.9798,1.9798,1.9798,1.9798,1.9572,1.9359,1.9196,1.8518,1.7945,1.828,1.8465,1.8413,1.884,1.9561,1.9888,1.9941,1.9501,1.9382,1.8693,1.8383,1.8187,1.7882,1.7882,1.7962,1.8175,1.85,1.886,1.9064,1.9101,1.9161,1.9139,1.9116,1.9116,1.9064,1.886,1.8616,1.8436,1.8293,1.8095,1.7841,1.7434,1.6934,1.6466,1.5988,1.5603,1.5289,1.4971,1.4593,1.4118,1.3589,1.2938,1.2307,1.1625,1.0795,1.0336,0.988,0.9718,0.9666,0.9666,0.9873,1.0241,1.0454,1.0667,1.0233,0.9695,0.8109,0.6221,0.466,0.292,0.0602,-0.1587,-0.318,-0.4555,-0.5437,-0.6058,-0.6455,-0.6902,1.576,1.5792,1.5792,1.5792,1.5792,1.5792,1.5828,1.5912,1.6356,1.7159,1.7905,1.8013,1.8097,1.8362,1.8554,1.8614,1.8626,1.8855,1.8987,1.8987,1.8987,1.8987,1.8987,1.9059,1.9456,2.0117,2.055,2.0692,2.0945,2.0879,2.1023,2.1645,2.0531,1.9992,2.0145,1.9922,1.9759,1.9798,1.9798,1.9798,1.9798,1.9798,1.9786,1.9698,1.9346,1.8844,1.8643,1.8917,1.9489,1.9377,1.9652,2.0382,2.0469,2.0221,1.9719,1.9266,1.8514,1.8271,1.8045,1.7784,1.7536,1.7538,1.7624,1.8206,1.8714,1.8879,1.8912,1.9064,1.9116,1.9116,1.9116,1.8988,1.8784,1.8422,1.8121,1.7962,1.776,1.7516,1.7089,1.6595,1.6076,1.5635,1.5289,1.4937,1.4593,1.4408,1.4035,1.3457,1.2774,1.1981,1.1384,1.0549,1.0249,1.0043,0.9932,0.988,0.9777,0.9984,1.0403,1.0565,1.0616,0.9961,0.9141,0.7172,0.5015,0.2672,0.0657,-0.1744,-0.3806,-0.5127,-0.6396,-0.7281,-0.7794,-0.7913,-0.7551,1.5792,1.5792,1.5792,1.5792,1.5792,1.5792,1.602,1.6392,1.6512,1.6991,1.7472,1.7315,1.7604,1.8446,1.853,1.853,1.8554,1.8879,1.8975,1.8987,1.8987,1.8987,1.8999,1.9064,1.9239,1.945,1.9891,2.0552,2.0937,2.0949,2.0705,2.065,2.011,2.0154,2.0005,1.977,1.9708,1.9798,1.9798,1.9798,1.9798,1.9798,1.9786,1.9773,1.9535,1.9271,1.9079,1.9012,1.937,1.9466,1.959,1.995,2.0266,1.9711,1.9371,1.9093,1.862,1.8464,1.8247,1.8044,1.7852,1.7765,1.7955,1.8506,1.8795,1.8725,1.8803,1.9022,1.9107,1.9121,1.9031,1.8865,1.863,1.8201,1.7801,1.7679,1.7475,1.7089,1.671,1.6238,1.5724,1.5334,1.4983,1.4605,1.4269,1.3884,1.3447,1.2929,1.2344,1.171,1.1592,1.0905,1.0565,1.036,1.0198,1.019,1.019,1.0241,1.0557,1.0667,1.0616,0.9422,0.8174,0.5975,0.3755,0.1088,-0.1684,-0.4274,-0.6134,-0.7236,-0.8103,-0.8978,-0.9103,-0.9176,-0.8554,1.5792,1.5792,1.5792,1.5792,1.5792,1.5792,1.5972,1.62,1.6224,1.6702,1.7412,1.7448,1.7784,1.8482,1.8542,1.8518,1.8578,1.8843,1.8963,1.8987,1.8987,1.8987,1.9052,1.9064,1.9383,1.9516,2.0134,2.077,2.106,2.0865,2.0563,2.0269,2.0207,1.9933,1.9658,1.9608,1.9592,1.9798,1.9798,1.9798,1.9798,1.9798,1.9798,1.9798,1.9723,1.9484,1.9509,1.9504,2.0025,2.0402,2.0782,2.0259,2.0323,2.0013,1.9565,1.9108,1.8807,1.8822,1.8696,1.8534,1.828,1.8203,1.808,1.8516,1.89,1.8917,1.9377,1.9555,1.9305,1.9287,1.8815,1.8599,1.8178,1.7733,1.7774,1.7774,1.731,1.6795,1.6337,1.5736,1.5334,1.5017,1.4708,1.443,1.4093,1.3847,1.3362,1.2832,1.2157,1.1781,1.1554,1.1344,1.1014,1.0624,1.0379,1.049,1.0702,1.0761,1.0769,1.0498,1.0182,0.8672,0.7046,0.467,0.1946,-0.1242,-0.3955,-0.6453,-0.7955,-0.8996,-0.9805,-1.0568,-1.0525,-1.0379,-0.9821,1.5792,1.5792,1.5792,1.5792,1.5792,1.5792,1.5804,1.5816,1.586,1.6423,1.7351,1.7738,1.8338,1.8883,1.8987,1.8987,1.8987,1.8963,1.8987,1.8987,1.8987,1.9052,1.9105,1.9141,1.9441,1.9775,2.03,2.0692,2.108,2.0551,2.0068,2.0101,1.9732,1.9257,1.9462,1.9449,1.9396,1.9695,1.9798,1.9798,1.9798,1.9798,1.9798,1.9798,1.9761,1.9547,1.971,2.0165,2.0812,2.0967,2.1199,2.0724,2.0189,1.9863,1.9373,1.8902,1.9044,1.8986,1.894,1.8942,1.8673,1.8469,1.8352,1.8528,1.891,1.9309,1.9775,1.9842,1.9627,1.9266,1.8823,1.8353,1.7916,1.7512,1.7718,1.7786,1.719,1.6627,1.6037,1.5471,1.5063,1.4787,1.443,1.4197,1.3962,1.3763,1.3382,1.2852,1.2391,1.2204,1.2058,1.1837,1.1575,1.1158,1.0804,1.0812,1.115,1.0964,1.0863,1.0438,0.9629,0.7958,0.5819,0.3084,0.0216,-0.2873,-0.5806,-0.8338,-0.9636,-1.0736,-1.174,-1.2354,-1.1625,-1.1443,-1.1091,1.5792,1.5792,1.5792,1.5792,1.5792,1.5792,1.5792,1.5836,1.5925,1.6332,1.6807,1.7096,1.7751,1.9158,1.9052,1.8987,1.8987,1.8987,1.8987,1.8987,1.904,1.9105,1.9158,1.9223,1.9377,1.9691,1.9916,1.9707,2.0195,1.9649,1.8952,1.8536,1.9125,1.9047,1.9124,1.9239,1.9552,1.9747,1.9786,1.9786,1.9761,1.9773,1.9798,1.9798,1.9798,1.9736,1.9902,2.0395,2.0581,2.0611,2.0468,2.0302,1.9918,1.9458,1.8958,1.8764,1.8909,1.9168,1.9166,1.9326,1.9098,1.8746,1.8758,1.8942,1.9256,1.9495,1.9845,2.007,1.9834,1.9534,1.9083,1.8645,1.82,1.777,1.7728,1.7475,1.7055,1.6653,1.6159,1.5599,1.5061,1.4669,1.4208,1.3962,1.381,1.3583,1.3319,1.2842,1.2721,1.2617,1.2512,1.235,1.2135,1.2049,1.1899,1.1446,1.1514,1.126,1.0751,0.9986,0.8778,0.7094,0.4785,0.1598,-0.1309,-0.4257,-0.7158,-1.0323,-1.1412,-1.2541,-1.3719,-1.4202,-1.3253,-1.2675,-1.2541]},{"header":{"parameterUnit":"m.s-1","parameterCategory":1,"la1":31.0,"la2":29.5877,"lo1":-88.7671,"lo2":-86.6584,"dx":0.0162,"dy":0.0185,"nx":115,"ny":88,"refTime":"2023-01-30T06:00:00:Z","depth":0,"parameterNumber":3,"parameterNumberName":"V-component_of_WINDS"},"data":[0.0,0.0,0.0,0.0,0.0,0.0,0.0,0.0,0.0,0.0,0.0,0.0,0.0,0.0,0.0,0.0,0.0,0.0,0.0,0.0,0.0,0.0,0.0,0.0,0.0,0.0,0.0,0.0,0.0,0.0,0.0,0.0,0.0,0.0,0.0,0.0,0.0,0.0,0.0,0.0,0.0,0.0,0.0,0.0,0.0,0.0,0.0,0.0,0.0,0.0,0.0,0.0,0.0,0.0,0.0,0.0,0.0,0.0,0.0,0.0,0.0,0.0,0.0,0.0,0.0,0.0,0.0,0.0,0.0,0.0,0.0,0.0,0.0,0.0,0.0,0.0,0.0,0.0,0.0,0.0,0.0,0.0,0.0,0.0,0.0,0.0,0.0,0.0,0.0,0.0,0.0,0.0,0.0,0.0,0.0,0.0,0.0,0.0,0.0,0.0,0.0,0.0,0.0,0.0,0.0,0.0,0.0,0.0,0.0,0.0,0.0,0.0,0.0,0.0,0.0,0.0,0.0,0.0,0.0,0.0,0.0,0.0,0.0,0.0,0.0,0.0,0.0,0.0,0.0,0.0,0.0,0.0,0.0,0.0,0.0,0.0,0.0,0.0,0.0,0.0,0.0,0.0,0.0,0.0,0.0,0.0,0.0,0.0,0.0,0.0,0.0,0.0,0.0,0.0,0.0,0.0,0.0,0.0,0.0,0.0,0.0,0.0,0.0,0.0,0.0,0.0,0.0,0.0,0.0,0.0,0.0,0.0,0.0,0.0,0.0,0.0,0.0,0.0,0.0,0.0,0.0,0.0,0.0,0.0,0.0,0.0,0.0,0.0,0.0,0.0,0.0,0.0,0.0,0.0,0.0,0.0,0.0,0.0,0.0,0.0,0.0,0.0,0.0,0.0,0.0,0.0,0.0,0.0,0.0,0.0,0.0,0.0,0.0,0.0,0.0,0.0,0.0,0.0,0.0,0.0,0.0,0.0,0.0,0.0,0.0,0.0,0.0,0.0,0.0,0.0,0.0,0.0,0.0,0.0,0.0,0.0,0.0,0.0,0.0,0.0,0.0,0.0,0.0,0.0,0.0,0.0,0.0,0.0,0.0,0.0,0.0,0.0,0.0,0.0,0.0,0.0,0.0,0.0,0.0,0.0,0.0,0.0,0.0,0.0,0.0,0.0,0.0,0.0,0.0,0.0,0.0,0.0,0.0,0.0,0.0,0.0,0.0,0.0,0.0,0.0,0.0,0.0,0.0,0.0,0.0,0.0,0.0,0.0,0.0,0.0,0.0,0.0,0.0,0.0,0.0,0.0,0.0,0.0,0.0,0.0,0.0,0.0,0.0,0.0,0.0,0.0,0.0,0.0,0.0,0.0,0.0,0.0,0.0,0.0,0.0,0.0,0.0,0.0,0.0,0.0,0.0,0.0,0.0,0.0,0.0,0.0,0.0,0.0,0.0,0.0,0.0,0.0,0.0,0.0,0.0,0.0,0.0,0.0,0.0,0.0,0.0,0.0,0.0,0.0,0.0,0.0,0.0,0.0,0.0,0.0,0.0,0.0,0.0,0.0,0.0,0.0,0.0,0.0,0.0,0.0,0.0,0.0,0.0,0.0,0.0,0.0,0.0,0.0,0.0,0.0,0.0,0.0,0.0,0.0,0.0,0.0,0.0,0.0,0.0,0.0,0.0,0.0,0.0,0.0,0.0,0.0,0.0,0.0,0.0,0.0,0.0,0.0,0.0,0.0,0.0,0.0,0.0,0.0,0.0,0.0,0.0,0.0,0.0,0.0,0.0,0.0,0.0,0.0,0.0,0.0,0.0,0.0,0.0,0.0,0.0,0.0,0.0,0.0,0.0,0.0,0.0,0.0,0.0,0.0,0.0,0.0,0.0,0.0,0.0,0.0,0.0,0.0,0.0,0.0,0.0,0.0,0.0,0.0,0.0,0.0,0.0,0.0,0.0,0.0,0.0,0.0,0.0,0.0,0.0,0.0,0.0,0.0,0.0,0.0,0.0,0.0,0.0,0.0,0.0,0.0,0.0,0.0,0.0,0.0,0.0,0.0,0.0,0.0,0.0,0.0,0.0,0.0,0.0,0.0,0.0,0.0,0.0,0.0,0.0,0.0,0.0,0.0,0.0,0.0,0.0,0.0,0.0,0.0,0.0,0.0,0.0,0.0,0.0,0.0,0.0,0.0,0.0,0.0,0.0,0.0,0.0,0.0,0.0,0.0,0.0,0.0,0.0,0.0,0.0,0.0,0.0,0.0,0.0,0.0,0.0,0.0,0.0,0.0,0.0,0.0,0.0,0.0,0.0,0.0,0.0,0.0,0.0,0.0,0.0,0.0,0.0,0.0,0.0,0.0,0.0,0.0,0.0,0.0,0.0,0.0,0.0,0.0,0.0,0.0,0.0,0.0,0.0,0.0,0.0,0.0,0.0,0.0,0.0,0.0,0.0,0.0,0.0,0.0,0.0,0.0,0.0,0.0,0.0,0.0,0.0,0.0,0.0,0.0,0.0,0.0,0.0,0.0,0.0,0.0,0.0,0.0,0.0,0.0,0.0,0.0,0.0,0.0,0.0,0.0,0.0,0.0,0.0,0.0,0.0,0.0,0.0,0.0,0.0,0.0,0.0,0.0,0.0,0.0,0.0,0.0,0.0,0.0,0.0,0.0,0.0,0.0,0.0,0.0,0.0,0.0,0.0,0.0,0.0,0.0,0.0,0.0,0.0,0.0,0.0,0.0,0.0,0.0,0.0,0.0,0.0,0.0,0.0,0.0,0.0,0.0,0.0,0.0,0.0,0.0,0.0,0.0,0.0,0.0,0.0,0.0,0.0,0.0,0.0,0.0,0.0,0.0,0.0,0.0,0.0,0.0,0.0,0.0,0.0,0.0,0.0,0.0,0.0,0.0,0.0,0.0,0.0,0.0,0.0,0.0,0.0,0.0,0.0,0.0,0.0,0.0,0.0,0.0,0.0,0.0,0.0,0.0,0.0,0.0,0.0,0.0,0.0,0.0,0.0,0.0,0.0,0.0,0.0,0.0,0.0,0.0,0.0,0.0,0.0,0.0,0.0,0.0,0.0,0.0,0.0,0.0,0.0,0.0,0.0,0.0,0.0,0.0,0.0,0.0,0.0,0.0,0.0,0.0,0.0,0.0,0.0,0.0,0.0,0.0,0.0,0.0,0.0,0.0,0.0,0.0,0.0,0.0,0.0,0.0,0.0,0.0,0.0,0.0,0.0,0.0,0.0,0.0,0.0,0.0,0.0,0.0,0.0,0.0,0.0,0.0,0.0,0.0,0.0,0.0,0.0,0.0,0.0,0.0,0.0,0.0,0.0,0.0,0.0,0.0,0.0,0.0,0.0,0.0,0.0,0.0,0.0,0.0,0.0,0.0,0.0,0.0,0.0,0.0,0.0,0.0,0.0,0.0,0.0,0.0,0.0,0.0,0.0,0.0,0.0,0.0,0.0,0.0,0.0,0.0,0.0,0.0,0.0,0.0,0.0,0.0,0.0,0.0,0.0,0.0,0.0,0.0,0.0,0.0,0.0,0.0,0.0,0.0,0.0,0.0,0.0,0.0,0.0,0.0,0.0,0.0,0.0,0.0,0.0,0.0,0.0,0.0,0.0,0.0,0.0,0.0,0.0,0.0,0.0,0.0,0.0,0.0,0.0,0.0,0.0,0.0,0.0,0.0,0.0,0.0,0.0,0.0,0.0,0.0,0.0,0.0,0.0,0.0,0.0,0.0,0.0,0.0,0.0,0.0,0.0,0.0,0.0,0.0,0.0,0.0,0.0,0.0,0.0,0.0,0.0,0.0,0.0,0.0,0.0,0.0,0.0,0.0,0.0,0.0,0.0,0.0,0.0,0.0,0.0,0.0,0.0,0.0,0.0,0.0,0.0,0.0,0.0,0.0,0.0,0.0,0.0,0.0,0.0,0.0,0.0,0.0,0.0,0.0,0.0,0.0,0.0,0.0,0.0,0.0,0.0,0.0,0.0,0.0,0.0,0.0,0.0,0.0,0.0,0.0,0.0,0.0,0.0,0.0,0.0,0.0,0.0,0.0,0.0,0.0,0.0,0.0,0.0,0.0,0.0,0.0,0.0,0.0,0.0,0.0,0.0,0.0,0.0,0.0,0.0,0.0,0.0,0.0,0.0,0.0,0.0,0.0,0.0,0.0,0.0,0.0,0.0,0.0,0.0,0.0,0.0,0.0,0.0,0.0,0.0,0.0,0.0,0.0,0.0,0.0,0.0,0.0,0.0,0.0,0.0101,0.0,0.0,0.0,0.0,0.0,0.0,0.0,0.0,0.0,0.0,0.0,0.0,0.0,0.0,0.0,0.0,0.0,0.0,0.0,0.0,0.0,0.0,0.0,0.0,0.0,0.0,0.0,0.0,0.0,0.0,0.0,0.0,0.0,0.0,0.0,0.0,0.0,0.0,0.0,0.0,0.0,0.0,0.0,0.0,0.0,0.0,0.0,0.0,0.0,0.0,0.0,0.0,0.0,0.0,0.0,0.0,0.0,0.0,0.0,0.0,0.0,0.0,0.0,0.0,0.0,0.0,0.0,0.0,0.0,0.0,0.0,0.0,0.0,0.0,0.0,0.0,0.0,0.0,0.0,0.0,0.0,0.0,0.0,0.0,0.0,0.0,0.0,0.0,0.0,0.0,0.0,0.0,0.0,0.0,0.0,0.0,0.0,0.0,0.0,0.0,0.0,0.0,0.0,0.0,0.0,0.0,0.0,0.0,0.0,0.0,0.3589,0.3172,0.2252,0.141,0.0542,0.0,0.0,0.0,0.0,0.0,0.0,0.0,0.0,0.0,0.0,0.0,0.0,0.0,0.0,0.0,0.0,0.0,0.0,0.0,0.0,0.0,0.0,0.0,0.0,0.0,0.0,0.0,0.0,0.0,0.0,0.0,0.0,0.0,0.0,0.0,0.0,0.0,0.0,0.0,0.0,0.0,0.0,0.0,0.0,0.0,0.0,0.0,0.0,0.0,0.0,0.0,0.0,0.0,0.0,0.0,0.0,0.0,0.0,0.0,0.0,0.0,0.0,0.0,0.0,0.0,0.0,0.0,0.0,0.0,0.0,0.0,0.0,0.0,0.0,0.0,0.0,0.0,0.0,0.0,0.0,0.0,0.0,0.0,0.0,0.0,0.0,0.0,0.0,0.0,0.0,0.0,0.0,0.0,0.0,0.0,0.0,0.0,0.0,0.0,0.0,0.0,0.0,0.0,0.0,0.0,0.0,0.0,0.0,0.0,0.0,0.0,0.0,0.3181,0.2129,0.0723,0.0,0.0,0.0,0.0,0.0,0.0,0.0,0.0,0.0,0.0,0.0,0.0,0.0,0.0,0.0,0.0,0.0,0.0,0.0,0.0,0.0,0.0,0.0,0.0,0.0,0.0,0.0,0.0,0.0,0.0,0.0,0.0,0.0,0.0,0.0,0.0,0.0,0.0,0.0,0.0,0.0,0.0,0.0,0.0,0.0,0.0,0.0,0.0,0.0,0.0,0.0,0.0,0.0,0.0,0.0,0.0,0.0,0.0,0.0,0.0,0.0,0.0,0.0,0.0,0.0,0.0,0.0,0.0,0.0,0.0,0.0,0.0,0.0,0.0,0.0,0.0,0.0,0.0,0.0,0.0,0.0,0.0,0.0,0.0,0.0,0.0,0.0,0.0,0.0,0.0,0.0,0.0,0.0,0.0,0.0,0.0,0.0,0.0,0.0,0.0,0.0,0.0,0.0,0.0,0.0,0.0,0.0,0.0,0.0,0.0,0.4785,0.4275,0.3828,0.0,0.0143,0.0,0.0,0.0,0.0,0.0,0.0,0.0,0.0,0.0,0.0,0.0,0.0,0.0,0.0,0.0,0.0,0.0,0.0,0.0,0.0,0.0,0.0,0.0,0.0,0.0,0.0,0.0,0.0,0.0,0.0,0.0,0.0,0.0,0.0,0.0,0.0,0.0,0.0,0.0,0.0,0.0,0.0,0.0,0.0,0.0,0.0,0.0,0.0,0.0,0.0,0.0,0.0,0.0,0.0,0.0,0.0,0.0,0.0,0.0,0.0,0.0,0.0,0.0,0.0,0.0,0.0,0.0,0.0,0.0,0.0,0.0,0.0,0.0,0.0,0.0,0.0,0.0,0.0,0.0,0.0,0.0,0.0,0.0,0.0,0.0,0.0,0.0,0.0,0.0,0.0,0.0,0.0,0.0,0.0,0.0,0.0,0.0,0.0,0.0,0.0,0.0,0.0,0.0,0.0,0.0,0.0,0.0,0.0,0.0,0.0,0.5159,0.4967,0.4041,0.2394,0.0,0.0,0.0,0.0,0.0,0.0,0.0,0.0,0.0,0.0,0.0,0.0,0.0,0.0,0.0,0.0,0.0,0.0,0.0,0.0,0.0,0.0,0.0,0.0,0.0,0.0,0.0,0.0,0.0,0.0,0.0,0.0,0.0,0.0,0.0,0.0,0.0,0.0,0.0,0.0,0.0,0.0,0.0,0.0,0.0,0.0,0.0,0.0,0.0,0.0,0.0,0.0,0.0,0.0,0.0,0.0,0.0,0.0,0.0,0.0,0.0,0.0,0.0,0.0,0.0,0.0,0.0,0.0,0.0,0.0,0.0,0.0,0.0,0.0,0.0,0.0,0.0,0.0,0.0,0.0,0.0,0.0,0.0,0.0,0.0,0.0,0.0,0.0,0.0,0.0,0.0,0.0,0.0,0.0,0.0,0.0,0.0,0.0,0.0,0.0,0.0,0.0,0.0,0.0,0.0,0.0,0.0,0.0,0.0,0.0,0.5662,0.5565,0.533,0.3731,0.1971,0.0228,0.0,0.0,0.0,0.0,0.0,0.0,0.0,0.0,0.0,0.0,0.0,0.0,0.0,0.0,0.0,0.0,0.0,0.0,0.0,0.0,0.0,0.0,0.0,0.0,0.0,0.0,0.0,0.0,0.0,0.0,0.0,0.0,0.0,0.0,0.0,0.0,0.0,0.0,0.0,0.0,0.0,0.0,0.0,0.0,0.0,0.0,0.0,0.0,0.0,0.0,0.0,0.0,0.0,0.0,0.0,0.0,0.0,0.0,0.0,0.0,0.0,0.0,0.0,0.0,0.0,0.0,0.0,0.0,0.0,0.0,0.0,0.0,0.0,0.0,0.0,0.0,0.0,0.0,0.0,0.0,0.0,0.0,0.0,0.0,0.0,0.0,0.0,0.0,0.0,0.0,0.0,0.0,0.0,0.0,0.0,0.0,0.0,0.0,0.0,0.0,0.0,0.0,0.0,0.0,0.0,0.0,0.0,0.0,0.7039,0.6705,0.6168,0.5331,0.2706,0.1188,0.0,0.0,0.0,0.0,0.0,0.0,0.0,0.0,0.0,0.0,0.0,0.0,0.0,0.0,0.0,0.0,0.0,0.0,0.0,0.0,0.0,0.0,0.0,0.0,0.0,0.0,0.0,0.0,0.0,0.0,0.0,0.0,0.0,0.0,0.0,0.0,0.0,0.0,0.0,0.0,0.0,0.0,0.0,0.0,0.0,0.0,0.0,0.0,0.0,0.0,0.0,0.0,0.0,0.0,0.0,0.0,0.0,0.0,0.0,0.0,0.0,0.0,0.0,0.0,0.0,0.0,0.0,0.0,0.0,0.0,0.0,0.0,0.0,0.0,0.0,0.0,0.0,0.0,0.0,0.0,0.0,0.0,0.0,0.0,0.0,0.0,0.0,0.0,0.0,0.0,0.0,0.0,0.0,0.0,0.0,0.0,0.0,0.0,0.0,0.0,0.0,0.0,0.0,0.0,0.0,0.0,0.0,0.0,0.0,0.7382,0.7344,0.6045,0.3351,0.1394,0.0419,0.0,0.0,0.0,0.0,0.0,0.0,0.0,0.0,0.0,0.0,0.0,0.0,0.0,0.0,0.0,0.0,0.0,0.0,0.0,0.0,0.0,0.0,0.0,0.0,0.0,0.0,0.0,0.0,0.0,0.0,0.0,0.0,0.0,0.0,0.0,0.0,0.0,0.0,0.0,0.0,0.0,0.0,0.0,0.0,0.0,0.0,0.0,0.0,0.0,0.0,0.0,0.0,0.0,0.0,0.0,0.0,0.0,0.0,0.0,0.0,0.0,0.0,0.0,0.0,0.0,0.0,0.0,0.0,0.0,0.0,0.0,0.0,0.0,0.0,0.0,0.0,0.0,0.0,0.0,0.0,0.0,0.0,0.0,0.0,0.0,0.0,0.0,0.0,0.0,0.0,0.0,0.0,0.0,0.0,0.0,0.0,0.0,0.0,0.0,0.0,0.0,0.0,0.0,0.0,0.0,0.0,0.0,0.0,0.0,0.799,0.0,0.6998,0.4303,0.144,-0.0045,0.0,0.0,0.0,0.0,0.0,0.0,0.0,0.0,0.0,0.0,0.0,0.0,0.0,0.0,0.0,0.0,0.0,0.0,0.0,0.0,0.0,0.0,0.0,0.0,0.0,0.0,0.0,0.0,0.0,0.0,0.0,0.0,0.0,0.0,0.0,0.0,0.0,0.0,0.0,0.0,0.0,0.0,0.0,0.0,0.0,0.0,0.0,0.0,0.0,0.0,0.0,0.0,0.0,0.0,0.0,0.0,0.0,0.0,0.0,0.0,0.0,0.0,0.0,0.0,0.0,0.0,0.0,0.0,0.0,0.0,0.0,0.0,0.0,0.0,0.0,0.0,0.0,0.0,0.0,0.0,0.0,0.0,0.0,0.0,0.0,0.0,0.0,0.0,0.0,0.0,0.0,0.0,0.0,0.0,0.0,0.0,0.0,0.0,0.0,0.0,0.0,0.0,0.0,0.0,0.0,0.0,0.0,0.0,0.8954,0.9019,0.9284,0.9088,0.854,0.3224,0.0044,0.0,0.0,0.0,0.0,0.0,0.0,0.0,0.0,0.0,0.0,0.0,0.0,0.0,0.0,0.0,0.0,0.0,0.0,0.0,0.0,0.0,0.0,0.0,0.0,0.0,0.0,0.0,0.0,0.0,0.0,0.0,0.0,0.0,0.0,0.0,0.0,0.0,0.0,0.0,0.0,0.0,0.0,0.0,0.0,0.0,0.0,0.0,0.0,0.0,0.0,0.0,0.0,0.0,0.0,0.0,0.0,0.0,0.0,0.0,0.0,0.0,0.0,0.0,0.0,0.0,0.0,0.0,0.0,0.0,0.0,0.0,0.0,0.0,0.0,0.0,0.0,0.0,0.0,0.0,0.0,0.0,0.0,0.0,0.0,0.0,0.0,0.0,0.0,0.0,0.0,0.0,0.0,0.0,0.0,0.0,0.0,0.0,0.0,0.0,0.0,0.0,0.0,0.0,0.0,0.0,0.0,0.0,0.0,0.0,0.9925,1.0379,1.0101,0.8906,0.7167,0.4152,0.0,0.0,0.0,0.0,0.0,0.0,0.0,0.0,0.0,0.0,0.0,0.0,0.0,0.0,0.0,0.0,0.0,0.0,0.0,0.0,0.0,0.0,0.0,0.0,0.0,0.0,0.0,0.0,0.0,0.0,0.0,0.0,0.0,0.0,0.0,0.0,0.0,0.0,0.0,0.0,0.0,0.0,0.0,0.0,0.0,0.0,0.0,0.0,0.0,0.0,0.0,0.0,0.0,0.0,0.0,0.0,0.0,0.0,0.0,0.0,0.0,0.0,0.0,0.0,0.0,0.0,0.0,0.0,0.0,0.0,0.0,0.0,0.0,0.0,0.0,0.0,0.0,0.0,0.0,0.0,0.0,0.0,0.0,0.0,0.0,0.0,0.0,0.0,0.0,0.0,0.0,0.0,0.0,0.0,0.0,0.0,0.0,0.0,0.0,0.0,0.0,0.0,0.0,0.0,0.0,0.0,0.0,0.0,0.0,1.1765,1.1856,1.1269,0.9863,0.8538,0.5527,0.0675,0.0,0.0,0.0,0.0,0.0,0.0,0.0,0.0,0.0,0.0,0.0,0.0,0.0,0.0,0.0,0.0,0.0,0.0,0.0,0.0,0.0,0.0,0.0,0.0,0.0,0.0,0.0,0.0,0.0,0.0,0.0,0.0,0.0,0.0,0.0,0.0,0.0,0.0,0.0,0.0,0.0,0.0,0.0,0.0,0.0,0.0,0.0,0.0,0.0,0.0,0.0,0.0,0.0,0.0,0.0,0.0,0.0,0.0,0.0,0.0,0.0,0.0,0.0,0.0,0.0,0.0,0.0,0.0,0.0,0.0,0.0,0.0,0.0,0.0,0.0,0.0,0.0,0.0,0.0,0.0,0.0,0.0,0.0,0.0,0.0,0.0,0.0,0.0,0.0,0.0,0.0,0.0,0.0,0.0,0.0,0.0,0.0,0.0,0.0,0.0,0.0,0.0,0.0,0.0,0.0,0.0,0.0,0.0,1.4234,1.3661,1.2713,1.1307,0.7861,0.4697,0.0,0.0,0.0,0.0,0.0,0.0,0.0,0.0,0.0,0.0,0.0,0.0,0.0,0.0,0.0,0.0,0.0,0.0,0.0,0.0,0.0,0.0,0.0,0.0,0.0,0.0,0.0,0.0,0.0,0.0,0.0,0.0,0.0,0.0,0.0,0.0,0.0,0.0,0.0,0.0,0.0,0.0,0.0,0.0,0.0,0.0,0.0,0.0,0.0,0.0,0.0,0.0,0.0,0.0,0.0,0.0,0.0,0.0,0.0,0.0,0.0,0.0,0.0,0.0,0.0,0.0,0.0,0.0,0.0,0.0,0.0,0.0,0.0,0.0,0.0,0.0,0.0,0.0,0.0,0.0,0.0,0.0,0.0,0.0,0.0,0.0,0.0,0.0,0.0,0.0,0.0,0.0,0.0,0.0,0.0,0.0,0.0,0.0,0.0,0.0,0.0,0.0,0.0,0.0,0.0,0.0,0.0,0.0,0.0,1.5727,1.5546,1.4194,1.1648,0.9088,0.6229,0.0,0.0,0.0,0.0,0.0,0.0,0.0,0.0,0.0,0.0,0.0,0.0,0.0,0.0,0.0,0.0,0.0,0.0,0.0,0.0,0.0,0.0,0.0,0.0,0.0,0.0,0.0,0.0,0.0,0.0,0.0,0.0,0.0,0.0,0.0,0.0,0.0,0.0,0.0,0.0,0.0,0.0,0.0,0.0,0.0,0.0,0.0,0.0,0.0,0.0,0.0,0.0,0.0,0.0,0.0,0.0,0.0,0.0,0.0,0.0,0.0,0.0,0.0,0.0,0.0,0.0,0.0,0.0,0.0,0.0,0.0,0.0,0.0,0.0,0.0,0.0,0.0,0.0,0.0,0.0,0.0,0.0,0.0,0.0,0.0,0.0,0.0,0.0,0.0,0.0,0.0,0.0,0.0,0.0,0.0,0.0,0.0,0.0,0.0,0.0,0.0,0.0,0.0,0.0,0.0,0.0,0.0,0.0,1.549,1.6515,1.692,1.5416,1.183,1.0167,0.6881,0.0,0.0,0.0,0.0,0.0,0.0,0.0,0.0,0.0,0.0,0.0,0.0,0.0,0.0,0.0,0.0,0.0,0.0,0.0,0.0,0.0,0.0,0.0,0.0,0.0,0.0,0.0,0.0,0.0,0.0,0.0,0.0,0.0,0.0,0.0,0.0,0.0,0.0,0.0,0.0,0.0,0.0,0.0,0.0,0.0,0.0,0.0,0.0,0.0,0.0,0.0,0.0,0.0,0.0,0.0,0.0,0.0,0.0,0.0,0.0,0.0,0.0,0.0,0.0,0.0,0.0,0.0,0.0,0.0,0.0,0.0,0.0,0.0,0.0,0.0,0.0,0.0,0.0,0.0,0.0,0.0,0.0,0.0,0.0,0.0,0.0,0.0,0.0,0.0,0.0,0.0,0.0,0.0,0.0,0.0,0.0,0.0,0.0,0.0,0.0,0.0,0.0,0.0,0.0,0.0,0.0,0.0,0.0,1.6627,1.6892,1.7527,1.5853,1.1711,1.0569,0.67,0.0,0.0,0.0,0.0,0.0,0.0,0.0,0.0,0.0,0.0,0.0,0.0,0.0,0.0,0.0,0.0,0.0,0.0,0.0,0.0,0.0,0.0,0.0,0.0,0.0,0.0,0.0,0.0,0.0,0.0,0.0,0.0,0.0,0.0,0.0,0.0,0.0,0.0,0.0,0.0,0.0,0.0,0.0,0.0,0.0,0.0,0.0,0.0,0.0,0.0,0.0,0.0,0.0,0.0,0.0,0.0,0.0,0.0,0.0,0.0,0.0,0.0,0.0,0.0,0.0,0.0,0.0,0.0,0.0,0.0,0.0,0.0,0.0,0.0,0.0,0.0,0.0,0.0,0.0,0.0,0.0,0.0,0.0,0.0,0.0,0.0,0.0,0.0,0.0,0.0,0.0,0.0,0.0,0.0,0.0,0.0,0.0,0.0,0.0,0.0,0.0,0.0,0.0,0.0,0.0,0.0,0.0,0.0,1.6981,1.8028,1.5766,1.2959,0.9688,0.7695,0.4506,0.0,0.0,0.0,0.0,0.0,0.0,0.0,0.0,0.0,0.0,0.0,0.0,0.0,0.0,0.0,0.0,0.0,0.0,0.0,0.0,0.0,0.0,0.0,0.0,0.0,0.0,0.0,0.0,0.0,0.0,0.0,0.0,0.0,0.0,0.0,0.0,0.0,0.0,0.0,0.0,0.0,0.0,0.0,0.0,0.0,0.0,0.0,0.0,0.6516,0.0,0.0,0.0,0.0,0.0,0.0,0.0,0.0,0.0,0.0,0.0,0.0,0.0,0.0,0.0,0.0,0.0,0.0,0.0,0.0,0.0,0.0,0.0,0.0,0.0,0.0,0.0,0.0,0.0,0.0,0.0,0.0,0.0,0.0,0.0,0.0,0.0,0.0,0.0,0.0,0.0,0.0,0.0,0.0,0.0,0.0,0.0,0.0,0.0,0.0,0.0,0.0,0.0,0.0,0.0,0.0,0.0,0.0,0.0,1.6885,1.7541,1.5107,1.1964,0.8311,0.5406,0.2226,0.0,0.0,0.0,0.0,0.0,0.0,0.0,0.0,0.0,0.0,0.0,0.0,0.0,0.0,0.0,0.0,0.0,0.0,0.0,0.0,0.0,0.0,0.0,0.0,0.0,0.0,0.0,0.0,0.0,0.0,0.0,0.0,0.0,0.0,0.0,0.0,0.0,0.0,0.0,0.0,0.0,0.0,0.0,0.0,0.0,0.0,0.0,0.0,0.0,0.0,0.0,0.0,0.0,0.0,0.0,0.0,0.0,0.0,0.0,0.0,0.0,0.0,0.0,0.0,0.0,0.0,0.0,0.0,0.0,0.0,0.0,0.0,0.0,0.0,0.0,0.0,0.0,0.0,0.0,0.0,0.0,0.0,0.0,0.0,0.0,0.0,0.0,0.0,0.0,0.0,0.0,0.0,0.0,0.0,0.0,0.0,0.0,0.0,0.0,0.0,0.0,0.0,0.0,0.0,0.0,0.0,0.0,1.5992,1.6621,1.6888,1.4638,1.1361,0.7209,0.3477,0.0,-0.3189,0.0,0.0,0.0,0.0,0.0,0.0,0.0,0.0,0.0,0.0,0.0,0.0,0.0,0.0,0.0,0.0,0.0,0.0,0.0,0.0,0.0,0.0,0.0,0.0,0.0,0.0,0.0,0.0,0.0,0.0,0.0,0.0,0.0,0.0,0.0,0.0,0.0,0.0,0.4914,1.0164,0.0,0.0,0.0,0.0,0.0,0.0,0.0,0.0,0.7255,0.0,0.0,0.0,0.0,0.0,0.0,0.0,0.0,0.0,0.0,0.0,0.0,0.0,0.0,0.0,0.0,0.0,0.0,0.0,0.0,0.0,0.0,0.0,0.0,0.0,0.0,0.0,0.0,0.0,0.0,0.0,0.0,0.0,0.0,0.0,0.0,0.0,0.0,0.0,0.0,0.0,0.0,0.0,0.0,0.0,0.0,0.0,0.0,0.0,0.0,0.0,0.0,0.0,0.0,0.0,0.0,1.6257,1.6009,1.662,1.8076,1.3205,0.9191,0.6215,0.1796,-0.175,-0.4118,0.0,0.0,0.0,0.0,0.0,0.0,0.0,0.0,0.0,0.0,0.0,0.0,0.0,0.0,0.0,0.0,0.0,0.0,0.0,0.0,0.0,0.0,0.0,0.0,0.0,0.0,0.0,0.0,0.0,0.0,0.0,0.0,0.0,0.0,0.0,0.0,0.0,0.0,0.0,0.8724,1.2343,0.0,0.0,0.0,0.0,0.0,0.0,0.0,0.0,0.4496,0.0,0.0,0.0,0.0,0.0,0.0,0.0,0.0,0.0,0.0,0.0,0.0,0.0,0.0,0.0,0.0,0.0,0.0,0.0,0.0,0.0,0.0,0.0,0.0,0.0,0.0,0.0,0.0,0.0,0.0,0.0,0.0,0.0,0.0,0.0,0.0,0.0,0.0,0.0,0.0,0.0,0.0,0.0,0.0,0.0,0.0,0.0,0.0,0.0,0.0,0.0,0.0,0.0,0.0,0.0,1.5655,1.5472,1.552,1.5783,1.1672,0.7734,0.423,0.0887,-0.2128,0.0,0.0,0.0,0.0,0.0,0.0,0.0,0.0,0.0,0.0,0.0,0.0,0.0,0.0,0.0,0.0,0.0,0.0,0.0,0.0,0.0,0.0,0.0,0.0,0.0,0.0,0.0,0.0,0.0,0.0,0.0,0.0,0.0,0.0,0.0,0.0,0.0,0.0,0.0,0.0,0.6029,0.9212,0.7855,0.0,0.0,0.0,0.0,0.0,0.0,0.6012,0.5143,0.0,0.0,0.0,0.0,0.0,0.0,0.0,0.0,0.0,0.0,0.0,0.0,0.0,0.0,0.0,0.0,0.0,0.0,0.0,0.0,0.0,0.0,0.0,0.0,0.0,0.0,0.0,0.0,0.0,0.0,0.0,0.0,0.0,0.0,0.0,0.0,0.0,0.0,0.0,0.0,0.0,0.0,0.0,0.0,0.0,0.0,0.0,0.0,0.0,0.0,0.0,0.0,0.0,0.0,0.0,1.5028,1.4856,1.4367,1.3463,1.0455,0.7004,0.3173,0.0759,-0.1864,0.0,0.0,0.0,0.0,0.0,0.0,0.0,0.0,0.0,0.0,0.0,0.0,0.0,0.0,0.0,0.0,0.0,0.0,0.0,0.0,0.0,0.0,0.0,0.0,0.0,0.0,0.0,0.0,0.0,0.0,0.0,0.0,0.0,0.0,0.0,0.0,0.0,0.0,0.0,0.0,0.0,0.582,0.757,0.9194,0.0,0.0,0.0,0.0,0.6355,0.5778,0.0,0.0,0.0,0.0,0.0,0.0,0.0,0.0,0.0,0.0,0.0,0.0,0.0,0.0,0.0,0.0,0.0,0.0,0.0,0.0,0.0,0.0,0.0,0.0,0.0,0.0,0.0,0.0,0.0,0.0,0.0,0.0,0.0,0.0,0.0,0.0,0.0,0.0,0.0,0.0,0.0,0.0,0.0,0.0,0.0,0.0,0.0,0.0,0.0,0.0,0.0,0.0,0.0,0.0,0.0,0.0,1.5168,1.433,1.3794,1.3533,1.0199,0.7367,0.526,0.178,-0.1183,0.0,0.0,0.0,0.0,0.0,0.0,0.0,0.0,0.0,0.0,0.0,0.0,0.0,0.0,0.0,0.0,0.0,0.0,0.0,0.0,0.0,0.0,0.0,0.0,0.0,0.0,0.0,0.0,0.0,0.0,0.0,0.0,0.0,0.0,0.0,0.0,0.0,0.0,0.0,0.0,0.0,0.3735,0.3556,0.6366,0.8418,0.0,0.0,0.5248,0.5637,0.3597,0.0,0.0,0.0,0.0,0.0,0.0,0.0,0.0,0.0,0.0,0.0,0.0,0.0,0.0,0.0,0.0,0.0,0.0,0.0,0.0,0.0,0.0,0.0,0.0,0.0,0.0,0.0,0.0,0.0,0.0,0.0,0.0,0.0,0.0,0.0,0.0,0.0,0.0,0.0,0.0,0.0,0.0,0.0,0.0,0.0,0.0,0.0,0.0,0.0,0.0,0.0,0.0,0.0,0.0,0.0,1.3395,1.3839,1.3241,1.2293,1.101,0.8495,0.5788,0.2935,0.0962,-0.1049,0.0,0.0,0.0,0.0,0.0,0.0,0.0,0.0,0.0,0.0,0.0,0.0,0.0,0.0,0.0,0.0,0.0,0.0,0.0,0.0,0.0,0.0,0.0,0.0,0.0,0.0,0.0,0.0,0.0,0.0,0.0,0.0,0.0,0.0,0.0,0.0,0.0,0.0,0.0,0.0,0.0,0.0,0.3312,0.382,0.0,0.0,0.0,0.3259,0.6324,0.0,0.0,0.0,0.0,0.0,0.0,0.0,0.0,0.0,0.0,0.0,0.0,0.0,0.0,0.0,0.0,0.0,0.0,0.0,0.0,0.0,0.0,0.0,0.0,0.0,0.0,0.0,0.0,0.0,0.0,0.0,0.0,0.0,0.0,0.0,0.0,0.0,0.0,0.0,0.0,0.0,0.0,0.0,0.0,0.0,0.0,0.0,0.0,0.0,0.0,0.0,0.0,0.0,0.0,0.0,0.0,0.0,1.2735,1.2193,1.0996,0.9053,0.7223,0.4668,0.1419,0.0442,0.0,0.0,0.0,0.0,0.0,0.0,0.0,0.0,0.0,0.0,0.0,0.0,0.0,0.0,0.0,0.0,0.0,0.0,0.0,0.0,0.0,0.0,0.0,0.0,0.0,0.0,0.0,-0.7946,0.0,0.0,0.0,0.0,0.0,0.0,0.0,0.0,0.0,0.0,0.0,0.0,0.0,0.0,-0.045,0.2353,0.184,0.1474,0.0,0.0,0.2339,0.5466,0.2679,0.1617,0.0,0.0,0.0,0.0,0.0,0.0,0.0,0.0,0.0,0.0,0.0,0.0,0.0,0.0,0.0,0.0,0.0,0.0,0.0,0.0,0.0,0.0,0.0,0.0,0.0,0.0,0.0,0.0,0.0,0.0,0.0,0.0,0.0,0.0,0.0,0.0,0.0,0.0,0.0,0.0,0.0,0.0,0.0,0.0,0.0,0.0,0.0,0.0,0.0,0.0,0.0,0.0,0.0,0.0,1.1979,1.2469,1.1427,1.0294,0.9079,0.7206,0.5078,0.2751,0.0988,-0.0715,0.0,0.0,0.0,0.0,0.0,0.0,0.0,0.0,0.0,0.0,0.0,0.0,0.0,0.0,0.0,0.0,0.0,0.0,0.0,0.0,0.0,0.0,0.0,0.0,0.0,0.0,0.0,0.0,0.0,0.0,0.0,0.0,0.0,0.0,0.0,0.0,0.0,0.0,0.0,0.0,0.0,-0.5545,-0.1283,0.0877,0.1829,0.0,0.2704,0.3206,0.1517,-0.0221,-0.0625,0.176,0.0,0.0,0.0,0.0,0.0,0.0,0.0,0.0,0.0,0.0,0.0,0.0,0.0,0.0,0.0,0.0,0.0,0.0,0.0,0.0,0.0,0.0,0.0,0.0,0.0,0.0,0.0,0.0,0.0,0.0,0.0,0.0,0.0,0.0,0.0,0.0,0.0,0.0,0.0,0.0,0.0,0.0,0.0,0.0,0.0,0.0,0.0,0.0,0.0,0.0,0.0,0.0,0.0,1.1142,1.1314,1.0305,0.9063,0.7632,0.6113,0.4201,0.1806,0.0603,-0.0611,0.0,0.0,0.0,0.0,0.0,0.0,0.0,0.0,0.0,0.0,0.0,0.0,0.0,0.0,0.0,0.0,0.0,0.0,0.0,0.0,0.0,0.0,0.0,0.0,0.0,0.0,0.0,0.0,-0.5998,-0.528,-0.5476,0.0,0.0,0.0,0.0,0.0,0.0,0.0,0.0,0.0,0.0,-0.4114,-0.226,-0.3205,0.0,0.0,-0.1318,-0.1151,-0.0094,-0.0242,-0.0474,-0.0406,0.2485,0.0,0.0,0.0,0.0,0.0,0.0,0.0,0.0,0.0,0.0,0.0,0.0,0.0,0.0,0.0,0.0,0.0,0.0,0.0,0.0,0.0,0.0,0.0,0.0,0.0,0.0,0.0,0.0,0.0,0.0,0.0,0.0,0.0,0.0,0.0,0.0,0.0,0.0,0.0,0.0,0.0,0.0,0.0,0.0,0.0,0.0,0.0,0.0,0.0,0.0,0.0,0.0,1.0357,1.0484,0.9387,0.8076,0.6619,0.5402,0.3612,0.125,0.0329,-0.0624,0.0,0.0,0.0,0.0,0.0,0.0,0.0,0.0,0.0,0.0,0.0,0.0,0.0,0.0,0.0,0.0,0.0,0.0,0.0,0.0,0.0,0.0,0.0,0.0,0.0,0.0,0.0,0.0,-0.5512,-0.5683,-0.7081,0.0,0.0,0.0,0.0,0.0,0.0,0.0,0.0,0.0,0.0,-0.4512,-0.4156,-0.5668,-0.5642,-0.2245,-0.3584,-0.3885,-0.0787,-0.0802,-0.1343,-0.1756,0.0,0.0,0.0,0.0,0.0,0.0,0.0,0.0,0.0,0.0,0.0,0.0,0.0,0.0,0.0,0.0,0.0,0.0,0.0,0.0,0.0,0.0,0.0,0.0,0.0,0.0,0.0,0.7335,0.0,0.0,0.952,0.0,0.0,0.0,0.0,0.0,0.0,0.0,0.0,0.0,0.0,0.0,0.0,0.0,0.0,0.0,0.0,0.0,0.0,0.0,0.0,0.0,0.0,0.9626,1.017,0.8779,0.7538,0.6421,0.5269,0.3596,0.1386,0.0328,-0.0736,-0.1861,0.0,0.0,0.0,0.0,0.0,0.0,0.0,0.0,0.0,0.0,0.0,0.0,0.0,0.0,0.0,0.0,0.0,0.0,0.0,0.0,0.0,0.0,0.0,0.0,0.0,0.0,-0.4823,-0.4324,-0.5303,0.0,0.0,0.0,0.0,0.0,0.0,0.0,0.0,0.0,-0.8236,-0.8318,-0.8092,-0.7346,-0.5592,-0.3373,-0.0757,-0.288,-0.375,-0.0666,-0.2471,-0.3869,0.0,0.0,0.0,0.0,0.0,0.0,0.0,0.0,0.0,0.0,0.0,0.0,0.0,0.0,0.0,0.0,0.0,0.0,0.0,0.0,0.0,0.0,0.0,0.0,0.0,0.0,0.0,0.9095,0.918,0.0,0.0,0.0,0.0,0.0,0.0,0.0,0.0,0.0,0.0,0.0,1.2271,1.1963,0.0,0.0,0.0,0.0,0.0,0.0,0.0,0.0,0.0,0.0,0.0,0.0,0.9016,0.8815,0.7295,0.6075,0.5215,0.421,0.2991,0.1548,0.0391,-0.08,-0.206,0.0,0.0,0.0,0.0,0.0,0.0,0.0,0.0,0.0,0.0,0.0,0.0,0.0,0.0,0.0,0.0,0.0,0.0,0.0,0.0,0.0,0.0,0.0,0.0,0.0,-0.7823,0.0,0.0,0.0,0.0,0.0,0.0,0.0,0.0,0.0,0.0,0.0,-0.7085,-0.7633,-0.6314,-0.5238,-0.5062,-0.3869,-0.2847,0.0,0.0,0.0,0.0,0.0,0.0,0.0,0.0,0.0,0.0,0.0,0.0,0.0,0.0,0.4331,0.5086,0.4069,0.3019,0.2811,0.0,0.0,0.0,0.0,0.0,0.0,0.0,0.0,0.0,0.0,0.0,0.0,0.0,0.0,0.9322,0.0,1.1069,0.0,0.0,0.0,0.0,0.0,0.0,0.0,0.0,1.2312,1.1479,1.1362,1.0592,1.0144,0.0,0.8495,0.8724,0.0,0.0,0.0,0.0,0.0,0.0,0.0,0.0,0.8294,0.8012,0.6533,0.5301,0.446,0.3672,0.2705,0.1492,0.0033,-0.1223,-0.2271,-0.2648,-0.3006,0.0,0.0,0.0,0.0,0.0,0.0,0.0,0.0,0.0,0.0,0.0,0.0,0.0,0.0,0.0,0.0,0.0,0.0,0.0,0.0,0.0,0.0,0.0,-0.7985,0.0,0.0,0.0,0.0,0.0,0.0,0.0,0.0,0.0,-0.7706,-0.6226,-0.5455,-0.6372,-0.4907,-0.3663,-0.3496,0.0,0.0,0.0,0.0,0.0,0.0,0.0,-0.1516,-0.3631,-0.0519,0.2263,0.2368,0.3506,0.4069,0.3023,0.0,0.0,0.3122,0.2246,0.1246,0.1121,0.0703,0.0385,0.0339,-0.0054,-0.0539,0.0,0.0,0.0,0.0,0.0,0.0,0.0,0.0,0.902,0.8656,0.0,1.021,0.0,0.0,0.0,0.0,1.417,1.2759,0.0,0.0,1.0204,0.9862,1.0459,0.9351,0.8651,0.8321,0.747,0.7077,0.721,0.7422,0.0,0.0,0.0,0.0,0.0,0.0,0.7452,0.7704,0.6412,0.522,0.4139,0.3612,0.2659,0.1193,-0.0699,-0.1927,-0.2489,-0.2997,-0.3522,-0.4057,-0.4258,0.0,0.0,0.0,0.0,0.0,0.0,0.0,0.0,0.0,0.0,0.0,0.0,0.0,0.0,0.0,0.0,0.0,0.0,0.0,0.0,-0.7228,0.0,0.0,0.0,0.0,0.0,0.0,0.0,0.0,0.0,0.0,-0.6326,-0.5198,-0.4442,-0.4838,0.0,0.0,0.0,0.0,-0.5329,0.3122,-0.1893,-0.5224,-0.1112,-0.1465,-0.372,-0.8039,0.0,0.0,0.3093,0.3419,0.3119,0.2454,0.059,-0.049,0.0594,0.0359,-0.0047,-0.0096,-0.0429,-0.0505,-0.0081,-0.016,-0.044,1.0788,0.0,0.0,0.0,0.0,1.0476,1.0046,0.9719,0.9098,0.9077,0.9539,0.9551,0.0,0.0,0.0,0.0,0.0,0.0,1.2055,1.1327,1.0989,1.0448,0.9719,0.8838,0.8246,0.7793,0.6405,0.5336,0.4585,0.5398,0.6083,0.6593,0.0,0.0,0.0,0.0,0.7215,0.6676,0.5638,0.4692,0.3902,0.3138,0.208,0.0654,-0.0933,-0.2014,-0.2481,-0.2908,-0.337,-0.3864,-0.4038,0.0,0.0,0.0,0.0,0.0,0.0,0.0,0.0,0.0,0.0,0.0,0.0,0.0,0.0,0.0,0.0,0.0,0.0,0.0,-0.249,-0.0365,0.0283,0.0,0.0,0.0,0.0,0.0,0.0,0.0,0.0,0.0,-0.486,-0.3163,-0.2803,0.0,0.0,0.0047,-0.0509,-0.1088,-0.0861,0.0769,-0.1059,0.0,-0.3733,-0.4342,-0.4436,-0.3565,-0.1351,0.0794,0.2376,0.1753,0.0737,-0.0119,-0.1309,-0.2062,-0.1833,-0.1807,-0.1912,-0.2057,-0.2145,-0.2196,-0.2227,-0.2078,-0.2074,0.9729,1.0176,1.0043,1.0201,1.0527,0.972,0.9305,0.9229,0.8399,0.8458,0.9133,0.9036,1.012,1.2046,1.2036,0.0,0.0,0.0,1.137,1.045,1.0473,1.0119,0.946,0.8795,0.8266,0.783,0.6549,0.5549,0.4872,0.5621,0.6181,0.6598,0.0,0.0,0.6889,0.6809,0.6497,0.5961,0.5093,0.4248,0.3458,0.2531,0.1564,0.0537,-0.0773,-0.1768,-0.2362,-0.279,-0.3164,-0.3514,-0.364,-0.3401,0.0,0.0,0.0,0.0,0.0,0.0,0.0,0.0,0.0,0.0,0.0,-0.7481,-0.692,0.0,0.0,0.0,-0.7106,-0.5495,-0.1454,-0.024,0.0,0.0,0.0,0.0,0.0,0.0,0.0,-0.3962,-0.3622,-0.3624,-0.4006,-0.3136,-0.3578,-0.6586,-0.3421,-0.1068,-0.1704,0.0,-0.2151,-0.08,-0.187,-0.3426,-0.5142,-0.5514,-0.5026,-0.3529,-0.2455,-0.1206,0.0475,0.032,-0.029,-0.1168,-0.2019,-0.2629,-0.2798,-0.2769,-0.2782,-0.2983,-0.3052,-0.3093,-0.3074,-0.286,-0.2707,0.9503,1.0045,1.0137,1.0319,1.0334,0.8814,0.8506,0.8971,0.7424,0.7288,0.8294,0.857,0.9187,1.0101,1.1357,0.0,1.0591,1.0586,1.0133,0.9308,0.927,0.9369,0.9613,0.9064,0.8637,0.8376,0.7511,0.7132,0.7122,0.7247,0.7211,0.7038,0.6996,0.7005,0.7028,0.614,0.5624,0.5543,0.4837,0.3955,0.2885,0.1931,0.1203,0.0769,-0.0347,-0.1321,-0.2138,-0.2614,-0.2924,-0.3059,-0.3128,-0.3087,-0.2877,0.0,0.0,0.0,0.0,0.0,0.0,0.0,0.0,0.0,0.0,0.0,0.0,0.0,0.0,0.0,-0.5765,0.0,-0.2715,-0.4354,0.0,0.0,0.0,-0.6227,-0.71,-0.5913,-0.4685,-0.3704,0.0,0.0,-0.3915,-0.4684,-0.6064,-0.835,-0.6467,-0.4908,-0.4998,-0.6804,-0.6756,-0.1883,-0.4008,-0.6103,-0.617,-0.6024,-0.5849,-0.57,-0.5481,-0.377,-0.1422,-0.0365,-0.0241,-0.0961,-0.1787,-0.2412,-0.2725,-0.2704,-0.2762,-0.2983,-0.3205,-0.325,-0.2852,-0.2605,-0.2329,1.0559,1.1075,1.0457,1.0234,1.0212,0.9572,0.9213,0.9015,0.8143,0.7925,0.8213,0.7871,0.8657,1.0215,1.0309,1.0428,1.0591,1.0493,1.0058,0.945,1.0122,1.0311,0.9967,0.9568,0.9343,0.9168,0.8431,0.785,0.7504,0.752,0.744,0.7317,0.7449,0.7354,0.7028,0.6519,0.6125,0.5815,0.5319,0.4261,0.2582,0.1935,0.1497,0.1234,0.0184,-0.0862,-0.1843,-0.2192,-0.2501,-0.2783,-0.2906,-0.2558,-0.1689,-0.2682,0.0,0.0,0.0,0.0,0.0,0.0,0.0,0.0,0.0,-0.6587,-0.6128,0.0,-0.7057,0.0,-0.623,-0.5776,-0.5015,-0.3281,0.0,0.0,-0.2079,-0.3063,-0.2725,-0.4269,-0.516,-0.4548,-0.4406,-0.4969,-0.6537,-0.6958,-0.8288,-1.1153,-0.7123,-0.4073,-0.4875,-0.5322,-0.5396,-0.4643,-0.6714,-0.8736,-0.8576,-0.8654,-0.754,-0.4474,-0.4012,-0.2835,0.0525,0.0947,0.0536,-0.04,-0.1192,-0.1769,-0.2016,-0.2266,-0.2357,-0.2221,-0.2467,-0.266,-0.2397,-0.2122,-0.1832,1.1445,1.1747,1.1113,1.0808,1.0699,0.9881,0.948,0.9372,0.8396,0.8096,0.834,0.8149,0.8841,1.0095,0.9872,0.9949,1.0279,1.0013,0.975,0.9532,1.0171,1.0314,1.0085,0.987,0.9728,0.9642,0.9681,0.9467,0.9076,0.8987,0.8831,0.8619,0.8071,0.7693,0.7472,0.6923,0.6527,0.6338,0.5208,0.3972,0.2611,0.204,0.1686,0.1555,0.0886,0.0198,-0.0485,-0.0944,-0.1376,-0.1792,-0.2088,-0.2008,-0.152,-0.2263,-0.2417,0.0,0.0,0.0,0.0,0.0,0.0,0.0,0.0,0.0,0.0,0.0,-0.7123,-0.6733,-0.6464,-0.6177,-0.5834,-0.3747,-0.2133,-0.1463,-0.2433,-0.3028,-0.2832,-0.4041,-0.4744,-0.444,-0.5527,-0.6404,-0.6753,-0.8679,-0.9985,-1.0229,-0.8358,-0.736,-0.8113,-0.7684,-0.7118,-0.7325,-0.8654,-0.9699,-0.9643,-0.9684,-0.8558,-0.5359,-0.405,-0.265,0.0196,0.1,0.0904,0.0089,-0.0668,-0.1218,-0.1443,-0.1773,-0.1918,-0.1676,-0.1799,-0.1953,-0.1792,-0.1579,-0.1358,1.1991,1.2153,1.1747,1.1579,1.1498,1.017,0.9754,0.9932,0.8656,0.8346,0.8743,0.8912,0.9432,1.0147,0.9852,0.9819,1.0022,0.955,0.9432,0.9633,0.984,0.9987,1.0078,1.0013,0.9976,1.0019,1.0864,1.123,1.1096,1.0796,1.0503,1.0221,0.8799,0.8123,0.8173,0.7417,0.6921,0.6795,0.4971,0.3713,0.3017,0.239,0.2008,0.1886,0.1718,0.1607,0.1528,0.0852,0.0174,-0.0517,-0.0969,-0.1404,-0.1797,-0.1948,-0.2294,0.0,-0.3193,0.0,0.0,0.0,0.0,0.0,0.0,0.0,0.0,-0.6713,-0.6982,-0.7167,-0.6464,-0.5948,-0.5901,-0.4934,-0.4577,-0.5111,-0.4604,-0.4352,-0.4687,-0.4349,-0.4129,-0.4251,-0.6802,-0.7855,-0.6416,-0.9895,-1.1215,-0.8248,-0.9218,-1.0682,-1.1845,-1.068,-0.9697,-0.9807,-0.9503,-0.9075,-0.9058,-0.891,-0.7865,-0.5733,-0.3978,-0.2483,-0.039,0.0724,0.1152,0.0489,-0.0156,-0.0669,-0.0983,-0.1272,-0.1383,-0.1096,-0.1203,-0.1309,-0.122,-0.1134,-0.0959,1.1863,1.2091,1.1681,1.1732,1.2009,1.1549,1.1059,1.0572,0.9994,0.9869,1.0005,0.9623,1.03,1.1536,1.0285,1.0165,1.0895,0.9914,0.9573,0.9763,0.998,1.0042,1.0022,0.9942,1.0273,1.0926,1.1132,1.1561,1.2164,1.1344,1.0849,1.0655,0.9519,0.8935,0.8882,0.0,0.0,0.0,0.5628,0.4899,0.4126,0.3765,0.3156,0.2351,0.2627,0.0,0.3698,0.3044,0.1893,0.0358,-0.0073,0.0,0.0,0.0,0.0,0.0,0.0,0.0,0.0,0.0,0.0,0.0,-0.5247,-0.5128,-0.4934,-0.4844,-0.5286,-0.6405,-0.5888,-0.5679,-0.6204,-0.5529,-0.5079,-0.5212,-0.4593,-0.4108,-0.4092,-0.4009,-0.4496,-0.6113,-0.8127,-0.9021,-0.808,-1.0019,-1.0634,-0.8349,-0.8603,-0.9437,-1.0282,-1.0144,-0.9922,-0.9725,-0.8487,-0.741,-0.7267,-0.591,-0.437,-0.1799,-0.1074,-0.009,0.1473,0.1684,0.1488,0.087,0.0311,-0.0156,-0.0471,-0.0715,-0.0781,-0.0448,-0.0493,-0.0604,-0.0892,-0.0981,-0.0918,1.2236,1.2159,1.1882,1.2035,0.0,1.2269,1.2102,1.1861,1.0934,1.0627,1.0768,1.0579,1.1213,1.2396,1.152,1.1235,1.1423,1.1049,1.0527,0.9939,1.0479,1.0475,1.0013,1.0302,1.0618,1.1028,1.1847,1.2459,1.2772,1.1924,1.1423,1.127,0.9824,0.8981,0.8692,0.8271,0.7464,0.6305,0.5837,0.5117,0.4146,0.3719,0.3165,0.2428,0.2642,0.0,0.0,0.0,0.0,0.0,0.0,0.0,0.0,-0.2221,0.0,-0.3312,-0.3625,-0.4075,-0.4649,-0.4886,-0.5024,-0.5097,-0.5038,-0.5038,-0.5075,-0.542,-0.5898,-0.6569,-0.6002,-0.5728,-0.6032,-0.5297,-0.4789,-0.4827,-0.4455,-0.4153,-0.4158,-0.4914,-0.5824,-0.6801,-0.8524,-0.9489,-0.9016,-1.0672,-1.0791,-0.8764,-1.0034,-1.0803,-0.9824,-0.8978,-0.8431,-0.8344,-0.8485,-0.788,-0.6832,-0.5818,-0.3616,-0.1057,-0.0267,0.0416,0.2173,0.2037,0.1471,0.0918,0.0491,0.0156,-0.009,-0.0246,-0.0246,-0.0134,-0.0022,0.0022,-0.0133,-0.0156,-0.0134,1.2671,1.2307,1.2184,1.2388,1.2836,1.2824,1.297,1.3126,0.0,0.0,0.0,1.1574,1.2101,1.2957,1.2773,1.2359,1.181,1.2002,1.1427,1.0291,1.0861,1.0881,1.0416,1.0779,1.1057,1.1278,1.26,1.3298,1.3366,1.2537,1.2027,1.1632,1.0029,0.8883,0.8335,0.7955,0.7395,0.6586,0.6086,0.5325,0.4194,0.3672,0.3242,0.2841,0.2712,0.2529,0.2242,0.1803,0.1165,0.0361,-0.0284,-0.1048,-0.1931,-0.2264,-0.2681,-0.323,-0.3524,-0.3807,-0.4202,-0.4479,-0.4724,-0.4925,-0.4968,-0.5217,-0.5745,-0.6357,-0.6676,-0.6551,-0.6031,-0.5662,-0.5582,-0.4857,-0.4346,-0.4387,-0.4334,-0.4261,-0.4313,-0.5891,-0.6936,-0.7096,-0.8532,-0.9532,-0.9149,-1.0364,-1.057,-0.8537,-1.0177,-1.2415,-1.0019,-0.8261,-0.7106,-0.672,-0.6842,-0.7101,-0.5913,-0.4705,-0.3462,-0.0036,0.0262,0.0507,0.1681,0.1811,0.1269,0.0806,0.0559,0.0357,0.0224,0.0179,0.0201,0.0202,0.038,0.0579,0.0735,0.0846,0.0846,1.2722,1.2388,1.2495,1.2813,1.3327,1.36,1.3716,1.3608,1.2557,1.2297,1.2635,1.2496,1.2873,1.3634,1.3221,1.2711,1.2099,1.1589,1.1291,1.1172,1.0526,1.0796,1.1831,1.1145,1.1508,1.2735,1.2975,1.3434,1.3965,1.316,1.2341,1.157,1.0499,0.9392,0.8369,0.797,0.7589,0.7175,0.6988,0.6447,0.5543,0.5215,0.4892,0.4536,0.3897,0.3472,0.3208,0.2736,0.1979,0.0852,0.0331,-0.0565,-0.1901,-0.2294,-0.2698,-0.3188,-0.3611,-0.3971,-0.429,-0.4584,-0.4868,-0.5037,-0.5021,-0.5311,-0.6033,-0.5614,-0.523,-0.5114,-0.5068,-0.4898,-0.4774,-0.4596,-0.4481,-0.4454,-0.4334,-0.4265,-0.4343,-0.5917,-0.7046,-0.703,-0.8507,-0.9037,-0.799,-0.7739,-0.7257,-0.5548,-0.8156,-0.9495,-0.9642,-0.8495,-0.7058,-0.5371,-0.3139,-0.1744,-0.1641,0.0261,0.1085,0.2273,0.2181,0.1886,0.1974,0.1576,0.1116,0.0781,0.0603,0.0512,0.0446,0.0557,0.0692,0.0871,0.0961,0.1094,0.1333,0.1535,0.1557,1.3843,1.3203,1.3364,1.3479,1.3536,1.3979,1.4121,1.3997,1.3613,1.3363,1.3275,1.3265,1.3538,1.3992,1.3992,1.3606,1.3013,1.3149,1.2743,1.1951,1.1831,1.1903,1.2059,1.1911,1.2162,1.2834,1.3214,1.3583,1.385,1.3112,1.2486,1.203,1.091,1.0015,0.9448,0.9078,0.8634,0.8114,0.718,0.6343,0.5557,0.5093,0.4565,0.3972,0.3392,0.2909,0.2546,0.1827,0.1166,0.0609,-0.0125,-0.0912,-0.1735,-0.2209,-0.2714,-0.3277,-0.365,-0.4032,-0.443,-0.4738,-0.495,-0.5038,-0.5039,-0.5192,-0.5577,-0.5227,-0.4972,-0.4913,-0.4868,-0.482,-0.4767,-0.4666,-0.4971,-0.5905,-0.507,-0.5223,-0.6957,-0.7915,-0.8499,-0.8507,-0.9149,-0.9743,-0.9911,-0.8107,-0.7362,-0.7573,-0.9239,-1.0207,-1.0779,-0.8497,-0.6338,-0.5105,-0.3066,-0.1438,-0.057,0.051,0.163,0.2445,0.2451,0.2228,0.1887,0.1361,0.0983,0.0959,0.0825,0.0757,0.0801,0.0936,0.105,0.1072,0.1405,0.1604,0.1714,0.1953,0.2088,1.4892,1.4133,1.4241,1.4093,1.3856,1.4283,1.4407,1.4373,1.4622,1.4532,1.4163,1.4026,1.4077,1.4253,1.4567,1.4269,1.3687,1.4201,1.3779,1.2632,1.2808,1.2756,1.2534,1.2693,1.2785,1.2917,1.345,1.3682,1.3582,1.3045,1.2667,1.2344,1.1152,1.0479,1.0398,1.0007,0.9536,0.8912,0.764,0.6486,0.5536,0.487,0.4171,0.3515,0.2965,0.251,0.2106,0.1198,0.0645,0.0465,-0.0327,-0.1008,-0.1511,-0.2006,-0.2629,-0.3318,-0.3632,-0.3994,-0.45,-0.4819,-0.4952,-0.4981,-0.5044,-0.5069,-0.5063,-0.501,-0.5001,-0.4989,-0.4946,-0.4928,-0.496,-0.5212,-0.5693,-0.6591,-0.6197,-0.6633,-0.8797,-0.9613,-0.9877,-0.979,-0.9421,-0.9793,-1.0825,-0.8983,-0.8154,-1.0656,-1.1535,-1.1673,-1.146,-0.8363,-0.5672,-0.3904,-0.2361,-0.0568,0.0284,0.0829,0.1608,0.2544,0.2267,0.2011,0.1759,0.1263,0.0965,0.1175,0.1217,0.1205,0.1294,0.1449,0.1535,0.1554,0.1869,0.2132,0.2193,0.2385,0.2597,1.528,1.5027,1.468,1.4447,1.4478,1.4644,1.4751,1.485,1.5515,1.5849,1.5543,1.4815,1.4423,1.4416,1.4605,1.409,1.311,1.3179,1.3143,1.2822,1.2155,1.2588,1.3751,1.3236,1.3156,1.3599,1.3663,1.3573,1.3428,1.3344,1.2972,1.2248,1.109,1.0559,1.0479,1.0106,0.9758,0.9432,0.893,0.7877,0.6263,0.5312,0.4675,0.4293,0.3674,0.3256,0.3041,0.2167,0.1466,0.1055,0.0472,-0.029,-0.1199,-0.1721,-0.2372,-0.3301,-0.3535,-0.386,-0.4381,-0.4672,-0.4848,-0.4903,-0.4967,-0.5019,-0.5053,-0.4999,-0.4999,-0.5036,-0.5031,-0.4995,-0.5091,-0.6043,-0.6302,-0.5687,-0.7406,-0.8806,-0.809,-0.8869,-0.9873,-0.9799,-0.8508,-0.8044,-0.9612,-0.8547,-0.8594,-1.1285,-1.1619,-1.1277,-1.0266,-0.7461,-0.423,-0.1336,0.1419,0.3054,0.3535,0.3347,0.3146,0.3324,0.2532,0.2006,0.1818,0.1766,0.1661,0.1475,0.1622,0.1781,0.1909,0.2106,0.2363,0.2298,0.2476,0.2719,0.3019,0.3056,0.2995,1.6152,1.5846,1.5858,1.5883,1.5942,1.6053,1.5867,1.55,1.5833,1.5702,1.5221,1.5176,1.5173,1.508,1.4714,1.4227,1.3796,1.3606,1.3581,1.3618,1.3085,1.3235,1.3835,1.352,1.3394,1.3493,1.3395,1.3295,1.3244,1.3346,1.3143,1.2655,1.2016,1.1727,1.1653,1.1235,1.0808,1.0391,0.9778,0.8961,0.7882,0.6583,0.5513,0.4735,0.4163,0.3879,0.3759,0.2964,0.2347,0.2057,0.1178,0.0355,-0.0315,-0.0962,-0.1751,-0.273,-0.3424,-0.4008,-0.4482,-0.4665,-0.4743,-0.4779,-0.495,-0.5263,-0.5746,-0.5301,-0.5114,-0.5508,-0.5291,-0.5043,-0.5058,-0.5549,-0.6014,-0.644,-0.7525,-0.8651,-1.0376,-0.9957,-0.9758,-0.9707,-0.8318,-0.7904,-0.9493,-1.0139,-1.0008,-1.008,-0.9699,-0.9404,-0.7829,-0.4871,-0.2073,0.0215,0.3122,0.482,0.4832,0.4709,0.4302,0.3628,0.2799,0.218,0.2028,0.2061,0.2036,0.1908,0.2057,0.2224,0.2346,0.2471,0.2703,0.2789,0.2992,0.3236,0.3825,0.3765,0.3706,1.6985,1.6742,1.6924,1.6956,1.689,1.6806,1.6576,1.626,1.622,1.5896,1.5544,1.5916,1.6036,1.5814,1.5215,1.4652,1.4131,1.4069,1.3979,1.3878,1.3613,1.3588,1.3619,1.3544,1.3413,1.3295,1.321,1.3176,1.3176,1.3244,1.3191,1.2959,1.2665,1.251,1.2427,1.2018,1.1571,1.1113,1.0518,0.9891,0.9116,0.7956,0.6776,0.5654,0.502,0.4726,0.4688,0.3931,0.3372,0.3067,0.211,0.1286,0.0639,0.0026,-0.0826,-0.2012,-0.2992,-0.3678,-0.4024,-0.4221,-0.4325,-0.4306,-0.4618,-0.515,-0.5657,-0.5368,-0.5365,-0.5922,-0.5637,-0.5316,-0.5342,-0.5708,-0.6463,-0.7431,-0.7841,-0.9538,-1.1611,-1.0841,-1.0068,-0.9706,-0.871,-0.8593,-1.0415,-1.1991,-1.2283,-0.9496,-0.8593,-0.6867,-0.4595,-0.181,0.0421,0.2394,0.5061,0.6047,0.5713,0.5572,0.5179,0.4285,0.3371,0.2545,0.2413,0.2585,0.2587,0.2596,0.2535,0.2599,0.288,0.3002,0.3223,0.3244,0.3439,0.385,0.442,0.4337,0.4332,1.7526,1.7691,1.7536,1.7313,1.689,1.6337,1.6434,1.6947,1.6825,1.7012,1.7232,1.7135,1.6912,1.6558,1.6238,1.5136,1.3616,1.4281,1.4161,1.3342,1.3396,1.3379,1.3227,1.3244,1.326,1.3362,1.326,1.3294,1.3396,1.3224,1.3102,1.3081,1.2616,1.2327,1.2266,1.1976,1.1681,1.1363,1.1116,1.0588,0.9697,0.9305,0.8458,0.7316,0.6425,0.5921,0.571,0.5265,0.4646,0.382,0.3429,0.2694,0.162,0.1215,0.0374,-0.1083,-0.212,-0.2605,-0.2686,-0.3162,-0.3414,-0.3311,-0.3886,-0.4436,-0.4909,-0.5162,-0.5529,-0.6071,-0.5888,-0.5796,-0.5978,-0.6766,-0.7472,-0.7377,-0.9776,-1.0911,-1.0898,-1.105,-1.0772,-0.9838,-0.9448,-1.0137,-1.2129,-1.4063,-1.3138,-1.0794,-0.9842,-0.7297,-0.1295,0.0736,0.2839,0.5689,0.7234,0.7502,0.7301,0.6792,0.6162,0.5327,0.4246,0.3178,0.3292,0.3437,0.3432,0.3351,0.34,0.3471,0.3541,0.3757,0.4106,0.422,0.4252,0.4619,0.4963,0.4758,0.4726,1.8614,1.838,1.8341,1.8284,1.8227,1.7905,1.7557,1.7159,1.7093,1.6747,1.641,1.6613,1.6377,1.5771,1.6644,1.6075,1.4543,1.466,1.4587,1.434,1.4348,1.4384,1.4374,1.3958,1.371,1.366,1.3227,1.3225,1.3623,1.3314,1.3258,1.3349,1.2831,1.2392,1.2169,1.1918,1.1659,1.1423,1.131,1.1051,1.0574,0.9954,0.9475,0.9226,0.7772,0.703,0.7147,0.6588,0.5965,0.5421,0.5103,0.437,0.3112,0.2102,0.1132,0.0123,-0.0704,-0.1237,-0.1527,-0.2427,-0.2905,-0.2687,-0.3501,-0.4179,-0.4734,-0.5188,-0.5689,-0.6057,-0.5618,-0.5161,-0.4861,-0.5602,-0.6037,-0.5901,-0.7445,-0.8847,-0.8946,-0.9574,-1.0008,-0.9878,-1.0493,-1.163,-1.2289,-1.4105,-1.2966,-0.7897,-0.6527,-0.3173,0.2301,0.4899,0.6187,0.7813,0.8931,0.9479,0.9803,0.8301,0.7129,0.6357,0.548,0.487,0.4727,0.5334,0.5495,0.4494,0.4387,0.4297,0.4333,0.4565,0.4904,0.5069,0.5097,0.5406,0.5451,0.5446,0.5331,1.9374,1.8843,1.8807,1.8878,1.8927,1.8485,1.8037,1.7535,1.7155,1.6644,1.6236,1.6437,1.619,1.5785,1.6605,1.6532,1.5501,1.5275,1.5123,1.4962,1.4919,1.4902,1.4859,1.4395,1.421,1.4247,1.3835,1.3827,1.4103,1.3755,1.3707,1.3887,1.3336,1.2822,1.2412,1.2192,1.2015,1.185,1.1562,1.1419,1.1372,1.0671,1.0349,1.0393,0.9269,0.843,0.8264,0.7771,0.7241,0.6733,0.6457,0.5747,0.4469,0.3227,0.222,0.1537,0.0884,0.0318,-0.0207,-0.1004,-0.1396,-0.1315,-0.2076,-0.2854,-0.3335,-0.3875,-0.4422,-0.4731,-0.4496,-0.3695,-0.3293,-0.3511,-0.3918,-0.4243,-0.5453,-0.6347,-0.6635,-0.7914,-0.9066,-0.9848,-1.0612,-1.1181,-1.1263,-1.2289,-0.9669,-0.3787,-0.2436,0.0768,0.5803,0.8134,0.9067,0.9589,1.0313,1.079,1.0921,0.9891,0.886,0.8058,0.6952,0.6386,0.6361,0.7046,0.7024,0.5918,0.5299,0.5153,0.5183,0.5394,0.5613,0.5818,0.6229,0.6602,0.6493,0.6282,0.6107,1.9668,1.9144,1.8878,1.895,1.8896,1.8016,1.7778,1.7974,1.7118,1.6937,1.7146,1.6903,1.6616,1.6506,1.6506,1.6297,1.6374,1.6305,1.5827,1.508,1.5007,1.4968,1.4892,1.4717,1.4684,1.4939,1.5068,1.4999,1.4837,1.4553,1.4395,1.4374,1.4091,1.3534,1.2924,1.2839,1.2816,1.2626,1.2026,1.1867,1.2236,1.1618,1.1235,1.1202,1.0887,1.0209,0.9085,0.8919,0.8398,0.7598,0.7395,0.6768,0.5591,0.4532,0.3758,0.3175,0.2628,0.1978,0.1449,0.1217,0.0962,0.0953,0.0516,0.0103,-0.0306,-0.0882,-0.1457,-0.1954,-0.1983,-0.1819,-0.1524,-0.1471,-0.2007,-0.3511,-0.4019,-0.4203,-0.473,-0.629,-0.8193,-0.9405,-0.986,-0.9343,-0.8748,-0.886,-0.6587,-0.1567,0.1573,0.4125,0.8149,0.9893,1.0672,1.1253,1.173,1.2098,1.1847,1.1444,1.0712,0.9907,0.8659,0.7803,0.808,0.8581,0.8566,0.7691,0.6565,0.6374,0.6208,0.6409,0.6591,0.6842,0.733,0.7479,0.7087,0.68,0.6799,2.1516,2.0625,2.0223,1.9682,1.9175,1.8869,1.8349,1.7512,1.7494,1.7613,1.7555,1.6945,1.7144,1.7638,1.7031,1.7023,1.7851,1.7491,1.7003,1.6638,1.6564,1.6532,1.6333,1.569,1.5266,1.5183,1.5053,1.531,1.5599,1.5089,1.4812,1.493,1.4464,1.3937,1.356,1.3481,1.3481,1.3426,1.3213,1.3178,1.3327,1.2925,1.2697,1.2672,1.2451,1.1952,1.1242,1.0229,0.9437,0.8865,0.8618,0.7972,0.6794,0.576,0.5035,0.4581,0.3975,0.3529,0.3225,0.2876,0.2864,0.3189,0.3355,0.3282,0.2924,0.2566,0.1884,0.0997,0.0974,0.106,0.0764,0.0481,-0.0199,-0.149,-0.1211,-0.0989,-0.1234,-0.2523,-0.4896,-0.7563,-0.8383,-0.8324,-0.7778,-0.7132,-0.3877,0.1208,0.402,0.6748,1.002,1.1682,1.234,1.262,1.3016,1.3246,1.3033,1.2786,1.2352,1.1532,1.039,0.942,0.9671,1.0118,1.0053,0.9384,0.8287,0.7656,0.7494,0.7516,0.778,0.7753,0.7989,0.781,0.7369,0.7322,0.7458,2.2224,2.1209,2.0697,2.0166,1.9585,1.9448,1.8762,1.7898,1.8145,1.8259,1.8007,1.7562,1.7741,1.832,1.7663,1.7744,1.8496,1.8519,1.8485,1.8259,1.7891,1.7675,1.7379,1.6759,1.6175,1.5875,1.5878,1.6,1.6193,1.5646,1.5408,1.5495,1.5103,1.4602,1.4214,1.4169,1.4274,1.4438,1.4064,1.4169,1.4534,1.4012,1.3683,1.3818,1.3496,1.3074,1.2595,1.1522,1.0699,1.014,0.9684,0.8942,0.795,0.7101,0.6435,0.5929,0.5336,0.4864,0.4718,0.4508,0.4519,0.5037,0.5357,0.5309,0.4964,0.4798,0.4051,0.3385,0.3067,0.2966,0.2572,0.2445,0.1992,0.1561,0.1438,0.1591,0.1444,0.0609,-0.131,-0.3905,-0.5377,-0.5202,-0.3814,-0.2848,-0.0046,0.4596,0.7418,0.9058,1.1923,1.3072,1.3419,1.3662,1.3929,1.4103,1.4217,1.4061,1.3923,1.3078,1.2104,1.1349,1.1052,1.1846,1.2143,1.0958,0.9835,0.9418,0.9204,0.9172,0.9291,0.9078,0.9002,0.8953,0.8874,0.8394,0.8304,2.2037,2.1082,2.0599,2.0394,2.0161,1.9586,1.9167,1.8977,1.8858,1.8817,1.8726,1.8434,1.8484,1.8547,1.8466,1.8498,1.8672,1.9462,1.9869,1.9668,1.9151,1.8448,1.7754,1.7397,1.7109,1.7035,1.7289,1.7113,1.6632,1.6456,1.6159,1.6207,1.6106,1.569,1.5289,1.5007,1.5366,1.5665,1.4797,1.5128,1.6473,1.5128,1.4427,1.4994,1.448,1.3943,1.3473,1.2729,1.1949,1.1088,1.0287,0.9584,0.9024,0.8379,0.7678,0.7148,0.6554,0.6159,0.6022,0.6041,0.6152,0.6146,0.6252,0.629,0.5884,0.5455,0.5086,0.4647,0.4444,0.4151,0.397,0.4107,0.4403,0.4739,0.4104,0.3626,0.3232,0.3011,0.1716,-0.0067,-0.1367,-0.1209,0.2104,0.2777,0.547,0.8803,1.1495,1.2753,1.324,1.392,1.4263,1.4487,1.4641,1.466,1.4653,1.46,1.4437,1.4057,1.3324,1.2855,1.2288,1.2975,1.3256,1.2136,1.1443,1.1099,1.0876,1.0736,1.0787,1.0842,1.076,1.0692,1.0159,0.9498,0.8868,2.2805,2.2156,2.178,2.1099,2.0303,2.03,1.9749,1.894,1.9339,1.9514,1.9389,1.8869,1.9263,1.9988,1.9302,1.9441,2.0191,2.037,2.0638,2.0936,2.0794,1.9981,1.8854,1.7759,1.7759,1.8459,1.8145,1.792,1.795,1.7739,1.7637,1.7486,1.7303,1.718,1.6967,1.6832,1.7026,1.7176,1.6922,1.6786,1.7204,1.695,1.6756,1.6846,1.6605,1.5897,1.4872,1.3396,1.1993,1.0786,1.0059,0.9402,0.898,0.8651,0.8339,0.7843,0.756,0.7407,0.7306,0.7162,0.7003,0.6877,0.7006,0.668,0.6073,0.6204,0.591,0.5572,0.5479,0.5516,0.5218,0.5395,0.5763,0.6272,0.6478,0.6594,0.6411,0.6317,0.5185,0.2489,0.1671,0.2504,0.3872,0.5694,0.7692,1.0504,1.272,1.4348,1.4317,1.4498,1.4773,1.4907,1.5028,1.504,1.5016,1.4992,1.4901,1.4766,1.4387,1.4108,1.3612,1.3524,1.3306,1.2563,1.2477,1.2209,1.2085,1.1963,1.2187,1.2388,1.1956,1.1557,1.0716,0.9989,0.9417,2.2746,2.2231,2.1919,2.1335,2.0679,2.0783,2.032,1.9767,2.0004,2.0225,2.0147,1.9954,2.0256,2.0895,2.0451,2.0619,2.1303,2.1187,2.1312,2.1497,2.1341,2.0759,1.9921,1.8833,1.8752,1.9176,1.8941,1.8611,1.8391,1.8346,1.816,1.7909,1.7859,1.7762,1.7625,1.7697,1.7894,1.7981,1.7924,1.7939,1.8478,1.7951,1.7891,1.787,1.7615,1.6584,1.5107,1.3353,1.2001,1.1274,1.0672,1.0116,0.9655,0.9301,0.9057,0.8702,0.844,0.8263,0.8262,0.8098,0.7958,0.7898,0.7921,0.7694,0.7294,0.7266,0.7007,0.6525,0.6559,0.6309,0.6125,0.6451,0.7082,0.7694,0.8446,0.8671,0.8166,0.7958,0.6993,0.5337,0.4646,0.5106,0.6081,0.7708,0.9561,1.1659,1.3374,1.429,1.4707,1.4967,1.5199,1.5334,1.5639,1.5779,1.5955,1.5981,1.609,1.589,1.5485,1.5234,1.4632,1.4215,1.3937,1.3624,1.3493,1.3379,1.3279,1.3272,1.3465,1.3409,1.2909,1.2297,1.1526,1.0904,1.0263,2.2231,2.1738,2.1433,2.1277,2.115,2.0941,2.0747,2.0747,2.0781,2.0829,2.0878,2.1182,2.121,2.1371,2.1464,2.1764,2.1781,2.1927,2.1977,2.1905,2.1631,2.12,2.0893,2.0162,1.9784,1.965,1.9807,1.9342,1.8936,1.8529,1.8341,1.8463,1.8288,1.805,1.8281,1.819,1.8335,1.8646,1.8474,1.8665,1.9151,1.8608,1.8399,1.8554,1.7516,1.6417,1.4944,1.335,1.2244,1.2182,1.1745,1.1106,1.0692,1.0143,0.9972,0.9859,0.9398,0.9141,0.9096,0.9102,0.9047,0.9062,0.9024,0.892,0.8528,0.8314,0.8047,0.7467,0.7349,0.7154,0.6907,0.7555,0.8318,0.8889,0.9415,0.9253,0.8787,0.8638,0.8371,0.7464,0.7111,0.7804,0.8911,0.9819,1.0711,1.2839,1.4223,1.4691,1.5071,1.5269,1.5523,1.5734,1.6149,1.663,1.6836,1.7059,1.7218,1.7232,1.6726,1.6246,1.5382,1.4976,1.4855,1.466,1.4323,1.4311,1.4479,1.4563,1.4562,1.4428,1.3947,1.3277,1.2599,1.2068,1.1469,2.1936,2.1419,2.134,2.1151,2.0925,2.0827,2.081,2.0827,2.1087,2.1183,2.1277,2.1556,2.1691,2.1721,2.2096,2.2231,2.2303,2.259,2.2738,2.249,2.2231,2.2046,2.1675,2.0793,2.0428,2.0564,2.0561,2.036,2.013,1.9903,2.0094,2.0113,1.9677,1.9743,1.9648,1.9723,1.9839,1.9597,1.9535,1.9565,1.9561,1.9385,1.9135,1.9197,1.7862,1.6763,1.5825,1.4187,1.3113,1.2582,1.1752,1.1117,1.0748,1.0931,1.0874,1.0528,1.0538,1.0528,1.0507,1.0067,0.986,1.0013,0.9686,0.9264,0.8776,0.8963,0.8724,0.8374,0.8456,0.8359,0.8079,0.8495,0.9125,0.967,0.9923,0.9865,0.9424,0.9112,0.8906,0.8678,0.8423,0.8804,1.0556,1.1068,1.2268,1.4073,1.4777,1.5216,1.541,1.5521,1.5843,1.6121,1.6888,1.7381,1.7605,1.7896,1.8221,1.8144,1.7654,1.7177,1.6318,1.5415,1.5159,1.5075,1.5036,1.5078,1.5058,1.5055,1.4896,1.4935,1.488,1.4198,1.353,1.3087,1.2444,2.1477,2.1087,2.1055,2.0958,2.0827,2.081,2.0893,2.1055,2.123,2.1448,2.1731,2.2022,2.222,2.2341,2.2652,2.2824,2.2824,2.2968,2.2935,2.2694,2.2508,2.2415,2.2243,2.1589,2.1317,2.1486,2.1073,2.0861,2.0684,2.0548,2.0356,2.044,2.0516,2.0532,2.0608,2.0744,2.0548,2.0277,2.0189,2.012,1.9945,1.9726,1.9472,1.9119,1.7984,1.7033,1.6349,1.4838,1.3838,1.32,1.2575,1.1655,1.094,1.1257,1.1347,1.0955,1.0962,1.1104,1.0953,1.0802,1.0608,1.0823,1.0349,0.9994,0.9611,0.9622,0.9306,0.903,0.9022,0.9093,0.8862,0.9327,0.9815,1.0079,1.0234,1.0176,1.0186,1.005,0.9697,0.9481,0.9373,0.9967,1.0935,1.176,1.26,1.3867,1.4528,1.4979,1.5432,1.56,1.6146,1.666,1.756,1.8159,1.8368,1.8707,1.9159,1.889,1.8299,1.7821,1.7207,1.6222,1.5277,1.5248,1.5222,1.5207,1.5202,1.5202,1.5212,1.5201,1.5063,1.4756,1.4329,1.3696,1.3001,2.1119,2.081,2.081,2.081,2.0794,2.086,2.1039,2.1277,2.1402,2.1702,2.2085,2.2476,2.2599,2.2832,2.3042,2.3175,2.3151,2.3028,2.2876,2.2712,2.2579,2.246,2.2243,2.2062,2.1836,2.1751,2.1364,2.0991,2.0682,2.0514,2.0567,2.0244,2.0569,2.0989,2.1101,2.1054,2.0893,2.0695,2.0478,2.0292,2.0104,1.9839,1.942,1.8844,1.8295,1.7432,1.6717,1.5593,1.4584,1.3941,1.3889,1.2981,1.2002,1.183,1.2004,1.153,1.1727,1.1778,1.1746,1.1509,1.136,1.1514,1.1142,1.0935,1.0803,1.0561,1.0183,0.9845,0.968,0.9503,0.9292,0.9858,1.0349,1.0568,1.056,1.057,1.0781,1.0943,1.0427,0.9992,0.9945,1.0365,1.1226,1.2066,1.28,1.3563,1.4218,1.487,1.54,1.5916,1.6561,1.7375,1.8316,1.8854,1.9073,1.9112,1.9625,1.9327,1.877,1.8395,1.7972,1.7458,1.6561,1.5494,1.5312,1.5329,1.5313,1.529,1.5323,1.5402,1.5307,1.5051,1.4662,1.4244,1.3663,2.1087,2.081,2.081,2.081,2.0876,2.1087,2.1262,2.1386,2.1823,2.2051,2.2164,2.2446,2.2615,2.2651,2.2799,2.2977,2.306,2.2977,2.2773,2.2632,2.2497,2.2321,2.2135,2.1869,2.1705,2.1658,2.143,2.1181,2.0942,2.0845,2.091,2.1337,2.1308,2.1374,2.155,2.1609,2.1309,2.0958,2.0712,2.053,2.0224,1.9818,1.9435,1.8921,1.8584,1.8043,1.7397,1.6692,1.5969,1.5274,1.5052,1.4375,1.3691,1.3724,1.3795,1.3446,1.3192,1.3001,1.2915,1.2498,1.2377,1.2409,1.2182,1.2021,1.2057,1.19,1.1364,1.0801,1.0388,1.0157,1.0108,1.0542,1.1105,1.1474,1.149,1.1185,1.0885,1.0819,1.0943,1.0608,1.0489,1.062,1.1604,1.2531,1.335,1.4167,1.4923,1.5727,1.6425,1.6864,1.7311,1.8195,1.9137,1.9503,1.9782,1.9717,1.979,1.9473,1.9064,1.884,1.857,1.8658,1.7975,1.6615,1.574,1.5553,1.5509,1.5465,1.5379,1.5399,1.5368,1.5338,1.5034,1.4723,1.4776,2.0958,2.081,2.081,2.0893,2.1087,2.1214,2.1479,2.1735,2.2039,2.2292,2.251,2.2703,2.2782,2.2841,2.29,2.3,2.2993,2.2985,2.273,2.249,2.2298,2.1998,2.1751,2.1446,2.1165,2.0991,2.0894,2.1007,2.0942,2.0877,2.1103,2.1256,2.1413,2.1653,2.1779,2.1757,2.1634,2.1277,2.0974,2.0679,2.0429,1.994,1.9508,1.9273,1.886,1.8383,1.7933,1.7194,1.6522,1.5998,1.5981,1.564,1.5332,1.5193,1.5102,1.4367,1.4084,1.396,1.3784,1.3249,1.3136,1.3155,1.2865,1.2676,1.2662,1.2492,1.2267,1.1736,1.0992,1.0716,1.0794,1.1124,1.1452,1.1675,1.1785,1.1431,1.0933,1.0791,1.0878,1.1029,1.0909,1.1195,1.2177,1.3086,1.3934,1.4774,1.5546,1.6348,1.719,1.7495,1.7737,1.8395,1.9149,1.9503,1.9755,1.9817,1.969,1.9381,1.9287,1.9068,1.8831,1.8744,1.8247,1.7271,1.6621,1.621,1.5878,1.5895,1.5654,1.5455,1.5466,1.5468,1.5387,1.5296,1.526,2.0925,2.1007,2.1023,2.1135,2.1388,2.1448,2.1705,2.2039,2.2169,2.2392,2.2756,2.2782,2.2816,2.2908,2.2908,2.2883,2.2849,2.2773,2.2439,2.2034,2.189,2.1579,2.1244,2.1054,2.1001,2.0811,2.0555,2.0571,2.0859,2.105,2.1037,2.1391,2.1782,2.2026,2.2061,2.1871,2.1847,2.1549,2.1039,2.0679,2.0444,2.003,1.9705,1.9654,1.8997,1.8539,1.8118,1.7572,1.6983,1.6591,1.6574,1.6642,1.6386,1.6522,1.5897,1.4666,1.4592,1.4399,1.4116,1.3861,1.3766,1.3778,1.3397,1.3296,1.3239,1.3149,1.2733,1.2361,1.1671,1.1165,1.1344,1.1561,1.1577,1.1509,1.1605,1.1516,1.0992,1.0774,1.0812,1.0926,1.1067,1.1605,1.2366,1.3243,1.4019,1.4813,1.56,1.6286,1.7044,1.7499,1.7838,1.8335,1.8908,1.928,1.9526,1.9645,1.945,1.9115,1.9195,1.9192,1.8905,1.8636,1.8249,1.8153,1.7718,1.7292,1.6824,1.6404,1.6308,1.6132,1.5815,1.556,1.5427,1.543,1.5419,2.1386,2.1678,2.1661,2.1678,2.1708,2.1866,2.1982,2.2056,2.2315,2.2432,2.2497,2.247,2.247,2.247,2.2443,2.226,2.2101,2.2039,2.1849,2.1444,2.1386,2.1294,2.1086,2.1208,2.1237,2.1049,2.0803,2.0691,2.097,2.1424,2.1709,2.194,2.2506,2.3007,2.2552,2.2112,2.17,2.1571,2.0777,2.0154,1.9925,1.9762,1.9741,1.9581,1.9236,1.8703,1.8193,1.7773,1.7421,1.7073,1.6905,1.6876,1.6778,1.6607,1.6497,1.6145,1.5855,1.544,1.4959,1.4609,1.4255,1.4258,1.4171,1.4413,1.4316,1.3737,1.3224,1.3159,1.23,1.1794,1.1839,1.1879,1.1739,1.1654,1.1675,1.1529,1.1145,1.1418,1.1376,1.1394,1.1702,1.1804,1.227,1.3179,1.4063,1.485,1.5622,1.6309,1.6901,1.7399,1.7854,1.834,1.8663,1.9046,1.9301,1.9434,1.9383,1.8976,1.9145,1.9337,1.918,1.9069,1.9497,1.9304,1.884,1.8414,1.8024,1.7618,1.7218,1.6846,1.6542,1.5996,1.5436,1.5497,1.5879,2.1556,2.1509,2.1738,2.1869,2.1998,2.2124,2.2226,2.2315,2.2443,2.2432,2.2349,2.2338,2.2321,2.2282,2.2327,2.2254,2.2049,2.184,2.1584,2.1311,2.1277,2.1248,2.1155,2.1366,2.1569,2.1523,2.1439,2.144,2.1543,2.1572,2.185,2.2919,2.2991,2.308,2.3056,2.2564,2.2102,2.1557,2.0767,2.0065,1.9797,1.9705,1.9705,1.9705,1.9288,1.8817,1.8352,1.7933,1.7639,1.724,1.7031,1.696,1.6918,1.6748,1.662,1.6565,1.6367,1.5964,1.5567,1.5311,1.496,1.4605,1.4651,1.4949,1.5039,1.4485,1.3922,1.4058,1.2976,1.2446,1.2521,1.2466,1.2335,1.2211,1.2027,1.202,1.1951,1.2196,1.2302,1.2313,1.2332,1.2502,1.2675,1.3327,1.4219,1.497,1.5637,1.6215,1.6825,1.7361,1.7827,1.8273,1.8548,1.8807,1.9033,1.9227,1.9408,1.9224,1.9379,1.9525,1.9533,1.9631,2.0039,2.0154,1.9711,1.9375,1.9128,1.8515,1.7806,1.7517,1.7299,1.6848,1.6493,1.6856,1.7184,2.1751,2.154,2.1886,2.2101,2.2265,2.2265,2.2315,2.2432,2.2432,2.2377,2.2293,2.2209,2.2123,2.2049,2.1991,2.1903,2.1827,2.1678,2.1339,2.1182,2.1258,2.1234,2.1286,2.156,2.2064,2.1934,2.2014,2.2209,2.2252,2.2156,2.2421,2.3724,2.3415,2.3309,2.3362,2.2945,2.2298,2.1332,2.0722,2.0152,1.9807,1.9705,1.9705,1.9581,1.931,1.8898,1.8405,1.8014,1.7598,1.724,1.7073,1.7002,1.6918,1.6791,1.6675,1.662,1.6479,1.6337,1.602,1.5744,1.5433,1.5175,1.5142,1.5546,1.549,1.4949,1.4617,1.4869,1.4,1.3504,1.3355,1.3173,1.2807,1.2657,1.254,1.2678,1.2795,1.2885,1.3121,1.3295,1.3293,1.3338,1.3546,1.378,1.4406,1.5104,1.5667,1.6191,1.6769,1.7395,1.78,1.8253,1.8535,1.8748,1.8968,1.9141,1.9277,1.9609,1.9773,2.0011,2.0224,2.0319,2.0564,2.0528,2.0413,2.0002,1.956,1.8963,1.8397,1.8232,1.8061,1.7936,1.7847,1.8202,1.8474,2.2108,2.2068,2.2371,2.247,2.2443,2.2432,2.2349,2.2293,2.2265,2.2282,2.218,2.1974,2.1721,2.1493,2.1493,2.1355,2.0974,2.0877,2.0807,2.0755,2.0809,2.1225,2.1546,2.2203,2.2813,2.2675,2.2675,2.2975,2.32,2.2828,2.286,2.3049,2.3582,2.3769,2.3524,2.2985,2.2212,2.1425,2.0873,2.0459,2.007,1.9839,1.9779,1.9677,1.9339,1.8803,1.8096,1.7946,1.7625,1.7227,1.7031,1.6947,1.6918,1.6748,1.662,1.6565,1.6534,1.6436,1.6293,1.6064,1.5832,1.5844,1.5932,1.602,1.5888,1.5644,1.5511,1.5355,1.462,1.4317,1.4072,1.3794,1.3314,1.3075,1.3087,1.3152,1.3281,1.3437,1.3707,1.4129,1.4336,1.446,1.455,1.4843,1.4543,1.516,1.5841,1.6332,1.6955,1.7552,1.7876,1.8237,1.8513,1.8774,1.9021,1.9363,2.001,2.0439,2.0682,2.096,2.1268,2.1293,2.1181,2.1054,2.0922,2.0464,2.0179,2.005,1.9773,1.9181,1.886,1.8769,1.8974,1.9327,1.9614,2.1936,2.2096,2.194,2.2118,2.2487,2.226,2.2118,2.2032,2.1827,2.1721,2.1721,2.1721,2.1584,2.1401,2.154,2.1432,2.1167,2.1351,2.1211,2.1486,2.1861,2.2201,2.2595,2.2894,2.3519,2.3462,2.3477,2.3507,2.3746,2.3643,2.3519,2.3671,2.3903,2.3716,2.3438,2.3065,2.2424,2.1994,2.1515,2.1141,2.0976,2.0483,2.0318,2.0266,1.9722,1.9087,1.8468,1.8302,1.7814,1.7352,1.7073,1.696,1.6876,1.6705,1.6565,1.6522,1.6534,1.6534,1.6534,1.6337,1.625,1.6151,1.6151,1.6107,1.6107,1.592,1.5567,1.5322,1.5187,1.4834,1.4211,1.4089,1.3967,1.3701,1.3638,1.3762,1.3927,1.4195,1.4653,1.5184,1.5517,1.5744,1.5838,1.593,1.5469,1.5215,1.5858,1.655,1.7221,1.7913,1.8325,1.8767,1.9112,1.9577,1.9874,2.0386,2.0896,2.1225,2.1532,2.1807,2.2045,2.1925,2.1807,2.1648,2.1544,2.1335,2.1292,2.1441,2.1105,2.0394,1.9928,1.9661,1.997,2.0469,2.0814,2.1702,2.1866,2.1645,2.1764,2.2147,2.1998,2.1911,2.1869,2.1768,2.157,2.1462,2.154,2.1386,2.1245,2.1214,2.1392,2.1194,2.1311,2.1549,2.1885,2.2378,2.2897,2.3214,2.3599,2.3997,2.418,2.4301,2.4346,2.4696,2.4605,2.4605,2.4472,2.4145,2.3996,2.3533,2.3221,2.2877,2.2577,2.2293,2.1844,2.165,2.1261,2.0797,2.0722,2.0266,1.9597,1.8869,1.8422,1.7988,1.7516,1.7157,1.696,1.6833,1.6693,1.6565,1.6522,1.6534,1.6534,1.6522,1.6534,1.6534,1.6392,1.625,1.6293,1.6293,1.6194,1.5932,1.568,1.5457,1.5096,1.4558,1.4721,1.4733,1.4474,1.462,1.4765,1.4998,1.5282,1.5807,1.6317,1.6452,1.642,1.672,1.6766,1.6717,1.6478,1.6985,1.7486,1.7767,1.8443,1.9093,1.9527,1.9969,2.0468,2.0989,2.1345,2.1644,2.1888,2.2205,2.25,2.2648,2.256,2.2386,2.2181,2.2142,2.2244,2.2102,2.1894,2.1733,2.1531,2.1235,2.103,2.1422,2.1926,2.2168,2.1507,2.1462,2.1705,2.1645,2.1479,2.1708,2.1781,2.1721,2.1915,2.1857,2.154,2.1135,2.0893,2.081,2.0774,2.1002,2.1225,2.098,2.1245,2.2171,2.2686,2.272,2.3198,2.3838,2.4506,2.4773,2.4922,2.5163,2.5773,2.5514,2.5606,2.5424,2.4835,2.431,2.364,2.3595,2.3266,2.2787,2.2724,2.2368,2.2039,2.1799,2.141,2.0991,2.0737,2.01,1.9156,1.8475,1.8028,1.7666,1.7199,1.696,1.6888,1.6748,1.6607,1.6522,1.6522,1.6522,1.6522,1.6522,1.6534,1.6534,1.6349,1.6423,1.6466,1.6423,1.6324,1.602,1.5976,1.5856,1.568,1.5534,1.54,1.5367,1.5445,1.5611,1.582,1.6008,1.6441,1.6951,1.6877,1.6815,1.7222,1.7531,1.7789,1.7923,1.8315,1.8513,1.8631,1.9115,1.986,2.0637,2.1098,2.1383,2.1834,2.2117,2.24,2.2611,2.2844,2.3095,2.3297,2.3324,2.3104,2.2753,2.2795,2.2989,2.2588,2.2159,2.2476,2.287,2.2779,2.2717,2.3062,2.3157,2.3184,2.115,2.1103,2.0926,2.0778,2.0745,2.1245,2.1339,2.1135,2.1039,2.0925,2.086,2.0744,2.0677,2.0652,2.1077,2.1315,2.1368,2.2347,2.274,2.2862,2.3271,2.3661,2.3978,2.4334,2.4943,2.5098,2.5264,2.5617,2.6213,2.6076,2.5633,2.5314,2.4967,2.4187,2.3844,2.3726,2.3531,2.3383,2.3281,2.3161,2.2906,2.2517,2.2024,2.1395,2.1066,2.0294,1.9269,1.8623,1.8121,1.7787,1.731,1.6918,1.6833,1.6705,1.6565,1.6509,1.6522,1.6565,1.662,1.6633,1.6577,1.6577,1.6522,1.6565,1.662,1.6633,1.6522,1.6411,1.6411,1.6194,1.5888,1.592,1.582,1.5856,1.5944,1.6139,1.6299,1.6454,1.6765,1.7393,1.757,1.8005,1.8411,1.8673,1.8894,1.8831,1.9092,1.9447,1.9624,2.0099,2.0773,2.1756,2.2335,2.2482,2.2686,2.2843,2.3006,2.3223,2.3397,2.3606,2.3787,2.3816,2.3692,2.3297,2.3526,2.3695,2.3491,2.3422,2.3971,2.4273,2.3971,2.3564,2.3417,2.3525,2.3659,2.078,2.073,2.0561,2.0407,2.0392,2.0909,2.1023,2.0909,2.0628,2.0652,2.0976,2.1038,2.1142,2.1303,2.163,2.2134,2.2009,2.2501,2.3431,2.3508,2.3748,2.3897,2.4208,2.4725,2.5109,2.5369,2.5661,2.5983,2.6795,2.6549,2.6211,2.5674,2.4823,2.4362,2.4021,2.3827,2.3724,2.3578,2.3505,2.352,2.3385,2.3131,2.2682,2.1994,2.1281,2.0459,1.9637,1.8902,1.8201,1.7841,1.7393,1.6918,1.6791,1.6693,1.6565,1.6565,1.6765,1.6863,1.7002,1.7002,1.6989,1.6921,1.6723,1.6705,1.6761,1.6761,1.665,1.6595,1.6637,1.6497,1.6312,1.6299,1.6269,1.6306,1.6595,1.6782,1.6909,1.706,1.731,1.7949,1.8411,1.8936,1.9479,1.9829,2.0079,1.9929,1.9842,2.0223,2.0577,2.0993,2.1481,2.2306,2.3007,2.3088,2.3218,2.3426,2.3605,2.3798,2.3837,2.384,2.3816,2.3771,2.3816,2.3919,2.3987,2.4134,2.4516,2.474,2.4827,2.4871,2.4768,2.4336,2.3849,2.3911,2.4149,2.0441,2.0373,2.0628,2.0561,2.0407,2.0662,2.0942,2.1182,2.0877,2.1275,2.2115,2.1366,2.1466,2.2363,2.2381,2.2509,2.2932,2.2671,2.3293,2.3744,2.3815,2.3886,2.4085,2.4407,2.5078,2.5799,2.6213,2.6442,2.7334,2.7364,2.7088,2.6315,2.5354,2.4633,2.4124,2.3842,2.3696,2.3638,2.3595,2.3595,2.3535,2.352,2.3071,2.2443,2.1739,2.1042,2.0176,1.9227,1.8537,1.8029,1.7475,1.7031,1.6791,1.665,1.6663,1.6791,1.7157,1.7352,1.7434,1.7447,1.7488,1.7352,1.7144,1.6989,1.6876,1.6888,1.682,1.6723,1.671,1.6808,1.6808,1.671,1.6625,1.6934,1.7269,1.7434,1.7557,1.7774,1.8029,1.8464,1.8874,1.9384,1.9925,2.0407,2.0595,2.0717,2.0639,2.098,2.1317,2.1573,2.2031,2.2513,2.3122,2.3435,2.3616,2.375,2.3753,2.3795,2.3732,2.371,2.3707,2.3725,2.375,2.3858,2.4192,2.4489,2.4815,2.5034,2.516,2.5176,2.5048,2.4962,2.4444,2.4516,2.469,2.0423,2.0388,2.0441,2.0373,2.0339,2.0407,2.0509,2.0561,2.0475,2.0902,2.1545,2.0852,2.1347,2.1724,2.2093,2.2463,2.2855,2.3332,2.3815,2.4045,2.3999,2.4122,2.4337,2.4675,2.5198,2.5643,2.618,2.6718,2.7195,2.7641,2.7149,2.6224,2.5374,2.462,2.4141,2.3842,2.3711,2.3638,2.3595,2.3595,2.3595,2.3595,2.3221,2.2753,2.2394,2.1665,2.0641,1.9879,1.9219,1.8416,1.7828,1.7365,1.6918,1.6833,1.6833,1.6876,1.7227,1.7516,1.7679,1.7922,1.8002,1.7841,1.7639,1.7323,1.7128,1.7002,1.7031,1.6934,1.6892,1.6989,1.7031,1.6989,1.7005,1.7338,1.7639,1.7814,1.7935,1.8175,1.8425,1.8874,1.9325,1.9747,2.0289,2.0577,2.0761,2.1087,2.1399,2.1668,2.1927,2.2175,2.2502,2.2958,2.3242,2.3594,2.3685,2.3795,2.3774,2.3735,2.3667,2.3576,2.3549,2.3549,2.362,2.3886,2.4309,2.4685,2.5039,2.5182,2.5168,2.5154,2.5071,2.5124,2.512,2.4977,2.4898,2.0388,2.0354,2.0304,2.0304,2.0304,2.0304,2.0304,2.035,2.0582,2.1214,2.1963,2.1716,2.1824,2.2601,2.2994,2.3194,2.3271,2.3825,2.4214,2.4214,2.4302,2.4245,2.4502,2.4764,2.5241,2.5641,2.6149,2.6718,2.7042,2.6688,2.6198,2.6505,2.5363,2.4578,2.416,2.3921,2.3696,2.3595,2.3595,2.3595,2.3595,2.3595,2.3325,2.3071,2.2877,2.2069,2.1198,2.0571,1.9715,1.8819,1.8194,1.7768,1.7519,1.7488,1.7102,1.7148,1.7585,1.7908,1.8108,1.8436,1.8436,1.8358,1.8175,1.7787,1.7434,1.724,1.7199,1.7102,1.7157,1.7212,1.7212,1.724,1.7434,1.7666,1.7882,1.8055,1.8254,1.8475,1.886,1.931,1.9711,2.01,2.0426,2.0662,2.0893,2.1135,2.1432,2.1748,2.2074,2.2432,2.2815,2.3283,2.3491,2.3707,2.3753,2.3774,2.3774,2.3689,2.3553,2.3481,2.3407,2.3535,2.3699,2.4061,2.4496,2.484,2.5143,2.5071,2.5047,2.4994,2.4879,2.4782,2.4758,2.4738,2.4678,2.0354,2.0304,2.0304,2.0304,2.0304,2.0304,2.035,2.0458,2.1029,2.1963,2.2917,2.3055,2.3163,2.3502,2.3748,2.3825,2.384,2.4133,2.4302,2.4302,2.4302,2.4302,2.4302,2.4394,2.4902,2.5749,2.6303,2.6366,2.6688,2.6367,2.6077,2.673,2.5017,2.4145,2.4221,2.3848,2.3653,2.3595,2.3595,2.3595,2.3595,2.3595,2.358,2.3475,2.3056,2.2458,2.1732,2.0918,2.0006,1.9293,1.8731,1.8432,1.8189,1.7969,1.7446,1.7424,1.7801,1.8271,1.8604,1.8988,1.9137,1.9056,1.8817,1.8446,1.8072,1.7528,1.7406,1.724,1.7212,1.7212,1.7212,1.7323,1.7516,1.7868,1.8201,1.8358,1.8553,1.8784,1.9147,1.9603,2.003,2.0376,2.0662,2.0941,2.1135,2.1261,2.1509,2.1853,2.2237,2.2652,2.2958,2.3417,2.3571,2.366,2.3685,2.3707,2.375,2.3664,2.3504,2.3453,2.343,2.361,2.3814,2.4214,2.4651,2.4896,2.5109,2.4939,2.4728,2.4648,2.4511,2.4385,2.4349,2.4352,2.4508,2.0304,2.0304,2.0304,2.0304,2.0304,2.0304,2.0597,2.1075,2.1229,2.1747,2.2363,2.2163,2.2532,2.3609,2.3717,2.3717,2.3748,2.4164,2.4287,2.4302,2.4302,2.4302,2.4317,2.4291,2.4625,2.4783,2.5231,2.5953,2.6321,2.5986,2.5455,2.55,2.4504,2.4341,2.416,2.3771,2.3696,2.3595,2.3595,2.3595,2.3595,2.3595,2.358,2.3565,2.3281,2.2966,2.2438,2.2162,2.1139,2.0246,1.9935,1.9266,1.8328,1.7748,1.7366,1.7267,1.7747,1.8383,1.9061,1.952,1.9827,1.9905,1.9681,1.9164,1.8632,1.8004,1.761,1.7431,1.728,1.7293,1.7363,1.7515,1.7679,1.8121,1.8514,1.863,1.8822,1.9147,1.9479,1.9874,2.0308,2.0628,2.0909,2.1151,2.1355,2.1584,2.1836,2.2169,2.25,2.2859,2.2875,2.3253,2.3453,2.3544,2.3594,2.3576,2.3576,2.3553,2.3435,2.3407,2.343,2.3767,2.408,2.4416,2.4756,2.4918,2.4865,2.4553,2.4377,2.4236,2.4042,2.3855,2.387,2.3905,2.4155,2.0304,2.0304,2.0304,2.0304,2.0304,2.0304,2.0535,2.0828,2.0859,2.1378,2.2186,2.2232,2.2763,2.3656,2.3733,2.3702,2.3779,2.4117,2.4271,2.4302,2.4302,2.4302,2.4276,2.4291,2.4587,2.4756,2.5312,2.5879,2.6123,2.5652,2.5168,2.5255,2.4954,2.4396,2.4167,2.4106,2.3767,2.3595,2.3595,2.3595,2.3595,2.3595,2.3595,2.3595,2.3505,2.3221,2.2842,2.2536,2.1758,2.0943,2.0511,1.9649,1.8786,1.8258,1.785,1.7741,1.8004,1.8577,1.936,2.005,2.0571,2.0665,2.0799,2.0385,2.0003,1.9418,1.8959,1.8719,1.816,1.8064,1.8249,1.8357,1.8337,1.8606,1.8567,1.8567,1.8974,1.9406,1.9818,2.0323,2.0628,2.086,2.1103,2.1294,2.1495,2.1631,2.1911,2.2226,2.2624,2.2998,2.3047,2.313,2.3353,2.3448,2.345,2.3422,2.3348,2.3342,2.336,2.344,2.3558,2.3988,2.4373,2.46,2.4728,2.4734,2.4626,2.4294,2.3948,2.3744,2.3527,2.3323,2.3364,2.345,2.371,2.0304,2.0304,2.0304,2.0304,2.0304,2.0304,2.032,2.0335,2.03,2.0926,2.1911,2.2601,2.3471,2.4061,2.4302,2.4302,2.4302,2.4271,2.4302,2.4302,2.4302,2.4276,2.4234,2.428,2.4441,2.475,2.518,2.5667,2.6031,2.5379,2.5116,2.5613,2.5256,2.4537,2.4798,2.456,2.3952,2.3681,2.3595,2.3595,2.3595,2.3595,2.3595,2.3595,2.355,2.3295,2.2875,2.2396,2.1931,2.1429,2.0923,1.9926,1.9327,1.8849,1.8627,1.8495,1.8796,1.9405,2.0046,2.0763,2.1292,2.1624,2.1774,2.1598,2.1187,2.0797,2.03,2.0016,1.9457,1.9016,1.9155,1.9256,1.9212,1.9027,1.8835,1.8825,1.9345,1.9728,2.0161,2.0624,2.0923,2.1119,2.1294,2.145,2.1603,2.1708,2.1945,2.226,2.2586,2.2953,2.3163,2.3232,2.3342,2.3393,2.3301,2.3319,2.3245,2.3247,2.3295,2.3445,2.3684,2.4132,2.4474,2.4671,2.4765,2.4736,2.4417,2.4045,2.3702,2.3289,2.3041,2.2873,2.2815,2.295,2.3252,2.0304,2.0304,2.0304,2.0304,2.0304,2.0304,2.0304,2.027,2.02,2.0625,2.132,2.159,2.2416,2.4193,2.4276,2.4302,2.4302,2.4302,2.4302,2.4302,2.4261,2.4234,2.4193,2.4166,2.4143,2.4316,2.4485,2.4554,2.5389,2.4925,2.4699,2.528,2.4813,2.4379,2.4368,2.4078,2.3824,2.3638,2.358,2.358,2.355,2.3565,2.3595,2.3595,2.3595,2.352,2.3302,2.2951,2.2757,2.22,2.1288,2.0302,1.9745,1.9543,1.946,1.9431,1.9752,2.0555,2.1193,2.1653,2.2165,2.254,2.2555,2.2375,2.2054,2.1843,2.1657,2.1902,2.1269,2.0316,2.0286,2.0347,2.0302,1.9822,1.9517,1.9927,2.0415,2.0291,2.0314,2.0795,2.1213,2.1344,2.1466,2.1603,2.1678,2.1844,2.2166,2.2468,2.2716,2.2997,2.3409,2.3473,2.3562,2.3145,2.2981,2.321,2.322,2.3214,2.3454,2.3959,2.4282,2.4339,2.4617,2.5223,2.4985,2.4774,2.4361,2.4028,2.327,2.286,2.2608,2.2401,2.2387,2.2518,2.286]}]]